<?xml version="1.0" encoding="UTF-8" standalone="no" ?>
<gpx xmlns="http://www.topografix.com/GPX/1/1" xmlns:xsi="http://www.w3.org/2001/XMLSchema-instance" xsi:schemaLocation="http://www.topografix.com/GPX/1/1 http://www.topografix.com/GPX/1/1/gpx.xsd" version="1.1" creator="VisuGPX - https://www.visugpx.com">
  <metadata>
    <name>69-070-0300-ORLIENAS=La-GRAND-CROIX</name>
    <desc><![CDATA[Circuit en Aller Retour
Départ ORLIENAS Parking des Randonneurs

Orliénas Les 7 Chemins
Givors
Rive de Gier
.a GRAND-CROIX
Rive de Gier
Givors
Vourles Les 7 Chemins
Brignais
ORLIENAS]]></desc>
  </metadata>
  <trk>
    <name><![CDATA[22-JUIN-21 13:10:37]]></name>
    <extensions>
      <line xmlns="http://www.topografix.com/GPX/gpx_style/0/2">
        <color>0000FF</color>
        <width>4</width>
      </line>
    </extensions>
    <trkseg>
      <trkpt lat="45.66415" lon="4.73712">
        <ele>290.46</ele>
        <time>2021-06-17T11:28:12Z</time>
      </trkpt>
      <trkpt lat="45.66413" lon="4.73724">
        <ele>290.94</ele>
        <time>2021-06-17T11:28:13Z</time>
      </trkpt>
      <trkpt lat="45.66411" lon="4.73735">
        <ele>290.94</ele>
        <time>2021-06-17T11:28:14Z</time>
      </trkpt>
      <trkpt lat="45.66391" lon="4.738">
        <ele>292.86</ele>
        <time>2021-06-17T11:28:21Z</time>
      </trkpt>
      <trkpt lat="45.66387" lon="4.73807">
        <ele>293.34</ele>
        <time>2021-06-17T11:28:22Z</time>
      </trkpt>
      <trkpt lat="45.66383" lon="4.73812">
        <ele>293.34</ele>
        <time>2021-06-17T11:28:23Z</time>
      </trkpt>
      <trkpt lat="45.66355" lon="4.7385">
        <ele>295.74</ele>
        <time>2021-06-17T11:28:31Z</time>
      </trkpt>
      <trkpt lat="45.66351" lon="4.73854">
        <ele>296.22</ele>
        <time>2021-06-17T11:28:32Z</time>
      </trkpt>
      <trkpt lat="45.66347" lon="4.73857">
        <ele>297.18</ele>
        <time>2021-06-17T11:28:33Z</time>
      </trkpt>
      <trkpt lat="45.66278" lon="4.73896">
        <ele>296.22</ele>
        <time>2021-06-17T11:28:46Z</time>
      </trkpt>
      <trkpt lat="45.66191" lon="4.7394">
        <ele>295.26</ele>
        <time>2021-06-17T11:29:02Z</time>
      </trkpt>
      <trkpt lat="45.66174" lon="4.73951">
        <ele>293.82</ele>
        <time>2021-06-17T11:29:05Z</time>
      </trkpt>
      <trkpt lat="45.66139" lon="4.73978">
        <ele>292.38</ele>
        <time>2021-06-17T11:29:10Z</time>
      </trkpt>
      <trkpt lat="45.66108" lon="4.74008">
        <ele>289.97</ele>
        <time>2021-06-17T11:29:14Z</time>
      </trkpt>
      <trkpt lat="45.66084" lon="4.74034">
        <ele>288.53</ele>
        <time>2021-06-17T11:29:17Z</time>
      </trkpt>
      <trkpt lat="45.66044" lon="4.74067">
        <ele>284.69</ele>
        <time>2021-06-17T11:29:22Z</time>
      </trkpt>
      <trkpt lat="45.66037" lon="4.74073">
        <ele>284.21</ele>
        <time>2021-06-17T11:29:23Z</time>
      </trkpt>
      <trkpt lat="45.66023" lon="4.74086">
        <ele>281.32</ele>
        <time>2021-06-17T11:29:25Z</time>
      </trkpt>
      <trkpt lat="45.6601" lon="4.741">
        <ele>278.92</ele>
        <time>2021-06-17T11:29:27Z</time>
      </trkpt>
      <trkpt lat="45.66004" lon="4.74109">
        <ele>277.96</ele>
        <time>2021-06-17T11:29:28Z</time>
      </trkpt>
      <trkpt lat="45.66" lon="4.74119">
        <ele>277</ele>
        <time>2021-06-17T11:29:29Z</time>
      </trkpt>
      <trkpt lat="45.65996" lon="4.7413">
        <ele>276.52</ele>
        <time>2021-06-17T11:29:30Z</time>
      </trkpt>
      <trkpt lat="45.65992" lon="4.74142">
        <ele>276.04</ele>
        <time>2021-06-17T11:29:31Z</time>
      </trkpt>
      <trkpt lat="45.65962" lon="4.74232">
        <ele>272.19</ele>
        <time>2021-06-17T11:29:38Z</time>
      </trkpt>
      <trkpt lat="45.65957" lon="4.74245">
        <ele>271.71</ele>
        <time>2021-06-17T11:29:39Z</time>
      </trkpt>
      <trkpt lat="45.65945" lon="4.7427">
        <ele>270.75</ele>
        <time>2021-06-17T11:29:41Z</time>
      </trkpt>
      <trkpt lat="45.65937" lon="4.74281">
        <ele>270.27</ele>
        <time>2021-06-17T11:29:42Z</time>
      </trkpt>
      <trkpt lat="45.6593" lon="4.74291">
        <ele>269.79</ele>
        <time>2021-06-17T11:29:43Z</time>
      </trkpt>
      <trkpt lat="45.65903" lon="4.74333">
        <ele>268.83</ele>
        <time>2021-06-17T11:29:47Z</time>
      </trkpt>
      <trkpt lat="45.65898" lon="4.74345">
        <ele>268.35</ele>
        <time>2021-06-17T11:29:48Z</time>
      </trkpt>
      <trkpt lat="45.65871" lon="4.74418">
        <ele>267.38</ele>
        <time>2021-06-17T11:29:54Z</time>
      </trkpt>
      <trkpt lat="45.65865" lon="4.74428">
        <ele>266.9</ele>
        <time>2021-06-17T11:29:55Z</time>
      </trkpt>
      <trkpt lat="45.65859" lon="4.74437">
        <ele>266.9</ele>
        <time>2021-06-17T11:29:56Z</time>
      </trkpt>
      <trkpt lat="45.65853" lon="4.74445">
        <ele>266.9</ele>
        <time>2021-06-17T11:29:57Z</time>
      </trkpt>
      <trkpt lat="45.65847" lon="4.74452">
        <ele>267.38</ele>
        <time>2021-06-17T11:29:58Z</time>
      </trkpt>
      <trkpt lat="45.6584" lon="4.74459">
        <ele>266.9</ele>
        <time>2021-06-17T11:29:59Z</time>
      </trkpt>
      <trkpt lat="45.65827" lon="4.74471">
        <ele>266.42</ele>
        <time>2021-06-17T11:30:01Z</time>
      </trkpt>
      <trkpt lat="45.6582" lon="4.74475">
        <ele>266.42</ele>
        <time>2021-06-17T11:30:02Z</time>
      </trkpt>
      <trkpt lat="45.65812" lon="4.74477">
        <ele>266.42</ele>
        <time>2021-06-17T11:30:03Z</time>
      </trkpt>
      <trkpt lat="45.65766" lon="4.74485">
        <ele>264.98</ele>
        <time>2021-06-17T11:30:09Z</time>
      </trkpt>
      <trkpt lat="45.65758" lon="4.74489">
        <ele>264.02</ele>
        <time>2021-06-17T11:30:10Z</time>
      </trkpt>
      <trkpt lat="45.65743" lon="4.745">
        <ele>263.06</ele>
        <time>2021-06-17T11:30:12Z</time>
      </trkpt>
      <trkpt lat="45.65736" lon="4.74507">
        <ele>262.1</ele>
        <time>2021-06-17T11:30:13Z</time>
      </trkpt>
      <trkpt lat="45.65729" lon="4.74515">
        <ele>261.62</ele>
        <time>2021-06-17T11:30:14Z</time>
      </trkpt>
      <trkpt lat="45.65721" lon="4.74525">
        <ele>260.65</ele>
        <time>2021-06-17T11:30:15Z</time>
      </trkpt>
      <trkpt lat="45.65714" lon="4.74536">
        <ele>259.69</ele>
        <time>2021-06-17T11:30:16Z</time>
      </trkpt>
      <trkpt lat="45.65691" lon="4.74572">
        <ele>257.77</ele>
        <time>2021-06-17T11:30:19Z</time>
      </trkpt>
      <trkpt lat="45.65671" lon="4.74606">
        <ele>253.93</ele>
        <time>2021-06-17T11:30:22Z</time>
      </trkpt>
      <trkpt lat="45.65653" lon="4.74639">
        <ele>250.08</ele>
        <time>2021-06-17T11:30:25Z</time>
      </trkpt>
      <trkpt lat="45.65635" lon="4.74671">
        <ele>247.2</ele>
        <time>2021-06-17T11:30:28Z</time>
      </trkpt>
      <trkpt lat="45.65617" lon="4.747">
        <ele>243.35</ele>
        <time>2021-06-17T11:30:31Z</time>
      </trkpt>
      <trkpt lat="45.65598" lon="4.74727">
        <ele>239.51</ele>
        <time>2021-06-17T11:30:34Z</time>
      </trkpt>
      <trkpt lat="45.65588" lon="4.74734">
        <ele>238.54</ele>
        <time>2021-06-17T11:30:35Z</time>
      </trkpt>
      <trkpt lat="45.65578" lon="4.74742">
        <ele>237.1</ele>
        <time>2021-06-17T11:30:36Z</time>
      </trkpt>
      <trkpt lat="45.65541" lon="4.74762">
        <ele>234.22</ele>
        <time>2021-06-17T11:30:39Z</time>
      </trkpt>
      <trkpt lat="45.65502" lon="4.74781">
        <ele>229.89</ele>
        <time>2021-06-17T11:30:42Z</time>
      </trkpt>
      <trkpt lat="45.65457" lon="4.74808">
        <ele>225.57</ele>
        <time>2021-06-17T11:30:46Z</time>
      </trkpt>
      <trkpt lat="45.65422" lon="4.74841">
        <ele>222.2</ele>
        <time>2021-06-17T11:30:50Z</time>
      </trkpt>
      <trkpt lat="45.6539" lon="4.74875">
        <ele>219.8</ele>
        <time>2021-06-17T11:30:54Z</time>
      </trkpt>
      <trkpt lat="45.65355" lon="4.74919">
        <ele>216.43</ele>
        <time>2021-06-17T11:30:59Z</time>
      </trkpt>
      <trkpt lat="45.6535" lon="4.74924">
        <ele>215.95</ele>
        <time>2021-06-17T11:31:00Z</time>
      </trkpt>
      <trkpt lat="45.65344" lon="4.74926">
        <ele>215.47</ele>
        <time>2021-06-17T11:31:01Z</time>
      </trkpt>
      <trkpt lat="45.65339" lon="4.74926">
        <ele>214.99</ele>
        <time>2021-06-17T11:31:02Z</time>
      </trkpt>
      <trkpt lat="45.65332" lon="4.74924">
        <ele>214.03</ele>
        <time>2021-06-17T11:31:04Z</time>
      </trkpt>
      <trkpt lat="45.65329" lon="4.74924">
        <ele>213.07</ele>
        <time>2021-06-17T11:31:05Z</time>
      </trkpt>
      <trkpt lat="45.65327" lon="4.74927">
        <ele>212.11</ele>
        <time>2021-06-17T11:31:06Z</time>
      </trkpt>
      <trkpt lat="45.65325" lon="4.74931">
        <ele>212.59</ele>
        <time>2021-06-17T11:31:07Z</time>
      </trkpt>
      <trkpt lat="45.65322" lon="4.74973">
        <ele>213.07</ele>
        <time>2021-06-17T11:31:18Z</time>
      </trkpt>
      <trkpt lat="45.65324" lon="4.74975">
        <ele>212.59</ele>
        <time>2021-06-17T11:31:19Z</time>
      </trkpt>
      <trkpt lat="45.65326" lon="4.74976">
        <ele>212.59</ele>
        <time>2021-06-17T11:31:20Z</time>
      </trkpt>
      <trkpt lat="45.65328" lon="4.74978">
        <ele>212.59</ele>
        <time>2021-06-17T11:31:21Z</time>
      </trkpt>
      <trkpt lat="45.65328" lon="4.74984">
        <ele>212.59</ele>
        <time>2021-06-17T11:31:29Z</time>
      </trkpt>
      <trkpt lat="45.65328" lon="4.74986">
        <ele>213.07</ele>
        <time>2021-06-17T11:31:30Z</time>
      </trkpt>
      <trkpt lat="45.65327" lon="4.74987">
        <ele>213.07</ele>
        <time>2021-06-17T11:31:31Z</time>
      </trkpt>
      <trkpt lat="45.65322" lon="4.74989">
        <ele>212.59</ele>
        <time>2021-06-17T11:31:41Z</time>
      </trkpt>
      <trkpt lat="45.65319" lon="4.74995">
        <ele>212.11</ele>
        <time>2021-06-17T11:31:54Z</time>
      </trkpt>
      <trkpt lat="45.65301" lon="4.7503">
        <ele>212.11</ele>
        <time>2021-06-17T11:32:04Z</time>
      </trkpt>
      <trkpt lat="45.65303" lon="4.75079">
        <ele>210.67</ele>
        <time>2021-06-17T11:32:17Z</time>
      </trkpt>
      <trkpt lat="45.65316" lon="4.75075">
        <ele>211.15</ele>
        <time>2021-06-17T11:32:28Z</time>
      </trkpt>
      <trkpt lat="45.65316" lon="4.75073">
        <ele>211.15</ele>
        <time>2021-06-17T11:32:44Z</time>
      </trkpt>
      <trkpt lat="45.6532" lon="4.75073">
        <ele>210.67</ele>
        <time>2021-06-17T11:33:01Z</time>
      </trkpt>
      <trkpt lat="45.6532" lon="4.75077">
        <ele>211.63</ele>
        <time>2021-06-17T11:33:14Z</time>
      </trkpt>
      <trkpt lat="45.65321" lon="4.75078">
        <ele>211.63</ele>
        <time>2021-06-17T11:33:29Z</time>
      </trkpt>
      <trkpt lat="45.6532" lon="4.75079">
        <ele>210.67</ele>
        <time>2021-06-17T11:33:59Z</time>
      </trkpt>
      <trkpt lat="45.65322" lon="4.75078">
        <ele>211.63</ele>
        <time>2021-06-17T11:34:21Z</time>
      </trkpt>
      <trkpt lat="45.65321" lon="4.75078">
        <ele>212.11</ele>
        <time>2021-06-17T11:34:47Z</time>
      </trkpt>
      <trkpt lat="45.65323" lon="4.75077">
        <ele>211.15</ele>
        <time>2021-06-17T11:35:15Z</time>
      </trkpt>
      <trkpt lat="45.65328" lon="4.75075">
        <ele>212.11</ele>
        <time>2021-06-17T11:35:42Z</time>
      </trkpt>
      <trkpt lat="45.65327" lon="4.75077">
        <ele>212.59</ele>
        <time>2021-06-17T11:36:14Z</time>
      </trkpt>
      <trkpt lat="45.65323" lon="4.75078">
        <ele>212.11</ele>
        <time>2021-06-17T11:36:43Z</time>
      </trkpt>
      <trkpt lat="45.65324" lon="4.75076">
        <ele>212.59</ele>
        <time>2021-06-17T11:37:11Z</time>
      </trkpt>
      <trkpt lat="45.65325" lon="4.75076">
        <ele>212.11</ele>
        <time>2021-06-17T11:37:25Z</time>
      </trkpt>
      <trkpt lat="45.65326" lon="4.75075">
        <ele>211.63</ele>
        <time>2021-06-17T11:37:26Z</time>
      </trkpt>
      <trkpt lat="45.65329" lon="4.75069">
        <ele>212.11</ele>
        <time>2021-06-17T11:37:29Z</time>
      </trkpt>
      <trkpt lat="45.65329" lon="4.75067">
        <ele>212.11</ele>
        <time>2021-06-17T11:37:30Z</time>
      </trkpt>
      <trkpt lat="45.65328" lon="4.75064">
        <ele>212.59</ele>
        <time>2021-06-17T11:37:31Z</time>
      </trkpt>
      <trkpt lat="45.65328" lon="4.75061">
        <ele>212.11</ele>
        <time>2021-06-17T11:37:32Z</time>
      </trkpt>
      <trkpt lat="45.65328" lon="4.75058">
        <ele>212.11</ele>
        <time>2021-06-17T11:37:33Z</time>
      </trkpt>
      <trkpt lat="45.65319" lon="4.75006">
        <ele>212.59</ele>
        <time>2021-06-17T11:37:46Z</time>
      </trkpt>
      <trkpt lat="45.65319" lon="4.74985">
        <ele>213.07</ele>
        <time>2021-06-17T11:37:53Z</time>
      </trkpt>
      <trkpt lat="45.65318" lon="4.74984">
        <ele>213.55</ele>
        <time>2021-06-17T11:37:54Z</time>
      </trkpt>
      <trkpt lat="45.65316" lon="4.74983">
        <ele>213.55</ele>
        <time>2021-06-17T11:37:55Z</time>
      </trkpt>
      <trkpt lat="45.65273" lon="4.74954">
        <ele>213.55</ele>
        <time>2021-06-17T11:38:07Z</time>
      </trkpt>
      <trkpt lat="45.65202" lon="4.74907">
        <ele>213.07</ele>
        <time>2021-06-17T11:38:20Z</time>
      </trkpt>
      <trkpt lat="45.65196" lon="4.74905">
        <ele>213.07</ele>
        <time>2021-06-17T11:38:21Z</time>
      </trkpt>
      <trkpt lat="45.65189" lon="4.74907">
        <ele>214.03</ele>
        <time>2021-06-17T11:38:22Z</time>
      </trkpt>
      <trkpt lat="45.65183" lon="4.74913">
        <ele>213.55</ele>
        <time>2021-06-17T11:38:23Z</time>
      </trkpt>
      <trkpt lat="45.65179" lon="4.74921">
        <ele>213.07</ele>
        <time>2021-06-17T11:38:24Z</time>
      </trkpt>
      <trkpt lat="45.65176" lon="4.7493">
        <ele>212.59</ele>
        <time>2021-06-17T11:38:25Z</time>
      </trkpt>
      <trkpt lat="45.65173" lon="4.74939">
        <ele>213.07</ele>
        <time>2021-06-17T11:38:26Z</time>
      </trkpt>
      <trkpt lat="45.65171" lon="4.74948">
        <ele>212.59</ele>
        <time>2021-06-17T11:38:27Z</time>
      </trkpt>
      <trkpt lat="45.65168" lon="4.74957">
        <ele>212.59</ele>
        <time>2021-06-17T11:38:28Z</time>
      </trkpt>
      <trkpt lat="45.65158" lon="4.74985">
        <ele>212.11</ele>
        <time>2021-06-17T11:38:31Z</time>
      </trkpt>
      <trkpt lat="45.65134" lon="4.75088">
        <ele>211.63</ele>
        <time>2021-06-17T11:38:41Z</time>
      </trkpt>
      <trkpt lat="45.6513" lon="4.75097">
        <ele>212.11</ele>
        <time>2021-06-17T11:38:42Z</time>
      </trkpt>
      <trkpt lat="45.65125" lon="4.75105">
        <ele>211.63</ele>
        <time>2021-06-17T11:38:43Z</time>
      </trkpt>
      <trkpt lat="45.65119" lon="4.75111">
        <ele>211.15</ele>
        <time>2021-06-17T11:38:44Z</time>
      </trkpt>
      <trkpt lat="45.65112" lon="4.75115">
        <ele>211.15</ele>
        <time>2021-06-17T11:38:45Z</time>
      </trkpt>
      <trkpt lat="45.65104" lon="4.75117">
        <ele>211.15</ele>
        <time>2021-06-17T11:38:46Z</time>
      </trkpt>
      <trkpt lat="45.65097" lon="4.75118">
        <ele>211.15</ele>
        <time>2021-06-17T11:38:47Z</time>
      </trkpt>
      <trkpt lat="45.6509" lon="4.75118">
        <ele>211.63</ele>
        <time>2021-06-17T11:38:48Z</time>
      </trkpt>
      <trkpt lat="45.64952" lon="4.75129">
        <ele>211.15</ele>
        <time>2021-06-17T11:39:07Z</time>
      </trkpt>
      <trkpt lat="45.64809" lon="4.75141">
        <ele>211.15</ele>
        <time>2021-06-17T11:39:25Z</time>
      </trkpt>
      <trkpt lat="45.64713" lon="4.75147">
        <ele>212.11</ele>
        <time>2021-06-17T11:39:38Z</time>
      </trkpt>
      <trkpt lat="45.64562" lon="4.75161">
        <ele>209.22</ele>
        <time>2021-06-17T11:39:57Z</time>
      </trkpt>
      <trkpt lat="45.64503" lon="4.75167">
        <ele>207.78</ele>
        <time>2021-06-17T11:40:04Z</time>
      </trkpt>
      <trkpt lat="45.64402" lon="4.75181">
        <ele>204.9</ele>
        <time>2021-06-17T11:40:16Z</time>
      </trkpt>
      <trkpt lat="45.64291" lon="4.75223">
        <ele>202.98</ele>
        <time>2021-06-17T11:40:30Z</time>
      </trkpt>
      <trkpt lat="45.64206" lon="4.75293">
        <ele>201.53</ele>
        <time>2021-06-17T11:40:41Z</time>
      </trkpt>
      <trkpt lat="45.64084" lon="4.75441">
        <ele>198.17</ele>
        <time>2021-06-17T11:41:00Z</time>
      </trkpt>
      <trkpt lat="45.6402" lon="4.75527">
        <ele>199.13</ele>
        <time>2021-06-17T11:41:12Z</time>
      </trkpt>
      <trkpt lat="45.64015" lon="4.75533">
        <ele>198.65</ele>
        <time>2021-06-17T11:41:13Z</time>
      </trkpt>
      <trkpt lat="45.64009" lon="4.75539">
        <ele>199.61</ele>
        <time>2021-06-17T11:41:14Z</time>
      </trkpt>
      <trkpt lat="45.64004" lon="4.75545">
        <ele>198.65</ele>
        <time>2021-06-17T11:41:15Z</time>
      </trkpt>
      <trkpt lat="45.63999" lon="4.75553">
        <ele>199.13</ele>
        <time>2021-06-17T11:41:16Z</time>
      </trkpt>
      <trkpt lat="45.63995" lon="4.75562">
        <ele>199.13</ele>
        <time>2021-06-17T11:41:17Z</time>
      </trkpt>
      <trkpt lat="45.63991" lon="4.75571">
        <ele>199.13</ele>
        <time>2021-06-17T11:41:18Z</time>
      </trkpt>
      <trkpt lat="45.63986" lon="4.75579">
        <ele>199.61</ele>
        <time>2021-06-17T11:41:19Z</time>
      </trkpt>
      <trkpt lat="45.6398" lon="4.75586">
        <ele>199.61</ele>
        <time>2021-06-17T11:41:20Z</time>
      </trkpt>
      <trkpt lat="45.63973" lon="4.75592">
        <ele>199.61</ele>
        <time>2021-06-17T11:41:21Z</time>
      </trkpt>
      <trkpt lat="45.63966" lon="4.75598">
        <ele>199.61</ele>
        <time>2021-06-17T11:41:22Z</time>
      </trkpt>
      <trkpt lat="45.63919" lon="4.7562">
        <ele>198.65</ele>
        <time>2021-06-17T11:41:28Z</time>
      </trkpt>
      <trkpt lat="45.638" lon="4.75622">
        <ele>195.77</ele>
        <time>2021-06-17T11:41:41Z</time>
      </trkpt>
      <trkpt lat="45.63623" lon="4.75611">
        <ele>193.84</ele>
        <time>2021-06-17T11:42:00Z</time>
      </trkpt>
      <trkpt lat="45.63486" lon="4.75578">
        <ele>193.84</ele>
        <time>2021-06-17T11:42:16Z</time>
      </trkpt>
      <trkpt lat="45.63384" lon="4.75597">
        <ele>193.36</ele>
        <time>2021-06-17T11:42:28Z</time>
      </trkpt>
      <trkpt lat="45.63229" lon="4.75669">
        <ele>192.4</ele>
        <time>2021-06-17T11:42:47Z</time>
      </trkpt>
      <trkpt lat="45.63069" lon="4.75742">
        <ele>191.92</ele>
        <time>2021-06-17T11:43:07Z</time>
      </trkpt>
      <trkpt lat="45.62993" lon="4.75787">
        <ele>190.48</ele>
        <time>2021-06-17T11:43:17Z</time>
      </trkpt>
      <trkpt lat="45.62858" lon="4.75894">
        <ele>188.56</ele>
        <time>2021-06-17T11:43:35Z</time>
      </trkpt>
      <trkpt lat="45.62733" lon="4.75997">
        <ele>188.56</ele>
        <time>2021-06-17T11:43:51Z</time>
      </trkpt>
      <trkpt lat="45.62578" lon="4.76122">
        <ele>186.15</ele>
        <time>2021-06-17T11:44:10Z</time>
      </trkpt>
      <trkpt lat="45.62478" lon="4.7621">
        <ele>185.67</ele>
        <time>2021-06-17T11:44:23Z</time>
      </trkpt>
      <trkpt lat="45.62436" lon="4.76253">
        <ele>185.67</ele>
        <time>2021-06-17T11:44:29Z</time>
      </trkpt>
      <trkpt lat="45.62327" lon="4.76371">
        <ele>184.71</ele>
        <time>2021-06-17T11:44:46Z</time>
      </trkpt>
      <trkpt lat="45.62211" lon="4.76495">
        <ele>184.23</ele>
        <time>2021-06-17T11:45:04Z</time>
      </trkpt>
      <trkpt lat="45.62103" lon="4.76596">
        <ele>182.79</ele>
        <time>2021-06-17T11:45:20Z</time>
      </trkpt>
      <trkpt lat="45.61979" lon="4.76667">
        <ele>181.83</ele>
        <time>2021-06-17T11:45:37Z</time>
      </trkpt>
      <trkpt lat="45.61861" lon="4.76727">
        <ele>180.87</ele>
        <time>2021-06-17T11:45:53Z</time>
      </trkpt>
      <trkpt lat="45.61779" lon="4.76778">
        <ele>180.87</ele>
        <time>2021-06-17T11:46:05Z</time>
      </trkpt>
      <trkpt lat="45.61773" lon="4.76784">
        <ele>180.87</ele>
        <time>2021-06-17T11:46:06Z</time>
      </trkpt>
      <trkpt lat="45.61768" lon="4.76791">
        <ele>180.38</ele>
        <time>2021-06-17T11:46:07Z</time>
      </trkpt>
      <trkpt lat="45.61764" lon="4.76798">
        <ele>180.38</ele>
        <time>2021-06-17T11:46:08Z</time>
      </trkpt>
      <trkpt lat="45.6176" lon="4.76806">
        <ele>179.9</ele>
        <time>2021-06-17T11:46:09Z</time>
      </trkpt>
      <trkpt lat="45.61756" lon="4.76813">
        <ele>179.9</ele>
        <time>2021-06-17T11:46:10Z</time>
      </trkpt>
      <trkpt lat="45.61752" lon="4.7682">
        <ele>179.9</ele>
        <time>2021-06-17T11:46:11Z</time>
      </trkpt>
      <trkpt lat="45.61747" lon="4.76824">
        <ele>179.9</ele>
        <time>2021-06-17T11:46:12Z</time>
      </trkpt>
      <trkpt lat="45.6174" lon="4.76826">
        <ele>179.42</ele>
        <time>2021-06-17T11:46:13Z</time>
      </trkpt>
      <trkpt lat="45.61733" lon="4.76825">
        <ele>179.9</ele>
        <time>2021-06-17T11:46:14Z</time>
      </trkpt>
      <trkpt lat="45.61727" lon="4.76822">
        <ele>179.9</ele>
        <time>2021-06-17T11:46:15Z</time>
      </trkpt>
      <trkpt lat="45.6172" lon="4.76818">
        <ele>179.42</ele>
        <time>2021-06-17T11:46:16Z</time>
      </trkpt>
      <trkpt lat="45.61713" lon="4.76815">
        <ele>179.9</ele>
        <time>2021-06-17T11:46:17Z</time>
      </trkpt>
      <trkpt lat="45.61706" lon="4.76814">
        <ele>179.9</ele>
        <time>2021-06-17T11:46:18Z</time>
      </trkpt>
      <trkpt lat="45.61699" lon="4.76815">
        <ele>179.9</ele>
        <time>2021-06-17T11:46:19Z</time>
      </trkpt>
      <trkpt lat="45.61691" lon="4.76819">
        <ele>181.35</ele>
        <time>2021-06-17T11:46:20Z</time>
      </trkpt>
      <trkpt lat="45.61684" lon="4.76823">
        <ele>180.87</ele>
        <time>2021-06-17T11:46:21Z</time>
      </trkpt>
      <trkpt lat="45.61676" lon="4.76827">
        <ele>180.38</ele>
        <time>2021-06-17T11:46:22Z</time>
      </trkpt>
      <trkpt lat="45.61668" lon="4.76829">
        <ele>179.42</ele>
        <time>2021-06-17T11:46:23Z</time>
      </trkpt>
      <trkpt lat="45.6166" lon="4.76832">
        <ele>179.42</ele>
        <time>2021-06-17T11:46:24Z</time>
      </trkpt>
      <trkpt lat="45.61563" lon="4.76875">
        <ele>178.46</ele>
        <time>2021-06-17T11:46:37Z</time>
      </trkpt>
      <trkpt lat="45.61429" lon="4.76942">
        <ele>177.98</ele>
        <time>2021-06-17T11:46:56Z</time>
      </trkpt>
      <trkpt lat="45.61287" lon="4.77014">
        <ele>176.54</ele>
        <time>2021-06-17T11:47:17Z</time>
      </trkpt>
      <trkpt lat="45.61188" lon="4.77061">
        <ele>176.06</ele>
        <time>2021-06-17T11:47:32Z</time>
      </trkpt>
      <trkpt lat="45.61078" lon="4.77116">
        <ele>176.06</ele>
        <time>2021-06-17T11:47:46Z</time>
      </trkpt>
      <trkpt lat="45.61024" lon="4.77142">
        <ele>175.58</ele>
        <time>2021-06-17T11:47:52Z</time>
      </trkpt>
      <trkpt lat="45.60911" lon="4.77199">
        <ele>174.62</ele>
        <time>2021-06-17T11:48:06Z</time>
      </trkpt>
      <trkpt lat="45.60814" lon="4.77246">
        <ele>175.58</ele>
        <time>2021-06-17T11:48:21Z</time>
      </trkpt>
      <trkpt lat="45.60759" lon="4.77255">
        <ele>173.66</ele>
        <time>2021-06-17T11:48:33Z</time>
      </trkpt>
      <trkpt lat="45.60739" lon="4.77252">
        <ele>173.66</ele>
        <time>2021-06-17T11:48:44Z</time>
      </trkpt>
      <trkpt lat="45.60703" lon="4.77245">
        <ele>173.66</ele>
        <time>2021-06-17T11:48:52Z</time>
      </trkpt>
      <trkpt lat="45.60632" lon="4.77214">
        <ele>173.66</ele>
        <time>2021-06-17T11:49:03Z</time>
      </trkpt>
      <trkpt lat="45.60526" lon="4.77171">
        <ele>173.17</ele>
        <time>2021-06-17T11:49:16Z</time>
      </trkpt>
      <trkpt lat="45.60403" lon="4.77121">
        <ele>173.17</ele>
        <time>2021-06-17T11:49:33Z</time>
      </trkpt>
      <trkpt lat="45.60277" lon="4.77067">
        <ele>172.69</ele>
        <time>2021-06-17T11:49:52Z</time>
      </trkpt>
      <trkpt lat="45.6016" lon="4.77014">
        <ele>171.73</ele>
        <time>2021-06-17T11:50:10Z</time>
      </trkpt>
      <trkpt lat="45.60027" lon="4.76966">
        <ele>169.81</ele>
        <time>2021-06-17T11:50:28Z</time>
      </trkpt>
      <trkpt lat="45.59946" lon="4.76932">
        <ele>170.77</ele>
        <time>2021-06-17T11:50:41Z</time>
      </trkpt>
      <trkpt lat="45.59892" lon="4.7691">
        <ele>170.29</ele>
        <time>2021-06-17T11:50:49Z</time>
      </trkpt>
      <trkpt lat="45.59887" lon="4.76906">
        <ele>170.77</ele>
        <time>2021-06-17T11:50:50Z</time>
      </trkpt>
      <trkpt lat="45.59882" lon="4.76898">
        <ele>171.25</ele>
        <time>2021-06-17T11:50:51Z</time>
      </trkpt>
      <trkpt lat="45.59879" lon="4.76889">
        <ele>171.25</ele>
        <time>2021-06-17T11:50:52Z</time>
      </trkpt>
      <trkpt lat="45.59875" lon="4.76879">
        <ele>171.25</ele>
        <time>2021-06-17T11:50:53Z</time>
      </trkpt>
      <trkpt lat="45.59872" lon="4.7687">
        <ele>171.25</ele>
        <time>2021-06-17T11:50:54Z</time>
      </trkpt>
      <trkpt lat="45.59835" lon="4.76784">
        <ele>170.77</ele>
        <time>2021-06-17T11:51:04Z</time>
      </trkpt>
      <trkpt lat="45.5983" lon="4.76777">
        <ele>170.77</ele>
        <time>2021-06-17T11:51:05Z</time>
      </trkpt>
      <trkpt lat="45.59747" lon="4.7669">
        <ele>171.73</ele>
        <time>2021-06-17T11:51:21Z</time>
      </trkpt>
      <trkpt lat="45.59737" lon="4.76681">
        <ele>171.73</ele>
        <time>2021-06-17T11:51:23Z</time>
      </trkpt>
      <trkpt lat="45.59731" lon="4.76678">
        <ele>171.73</ele>
        <time>2021-06-17T11:51:24Z</time>
      </trkpt>
      <trkpt lat="45.59654" lon="4.76667">
        <ele>170.29</ele>
        <time>2021-06-17T11:51:36Z</time>
      </trkpt>
      <trkpt lat="45.59647" lon="4.76665">
        <ele>170.29</ele>
        <time>2021-06-17T11:51:37Z</time>
      </trkpt>
      <trkpt lat="45.5956" lon="4.76603">
        <ele>170.77</ele>
        <time>2021-06-17T11:51:51Z</time>
      </trkpt>
      <trkpt lat="45.59535" lon="4.76582">
        <ele>170.29</ele>
        <time>2021-06-17T11:51:55Z</time>
      </trkpt>
      <trkpt lat="45.59448" lon="4.76505">
        <ele>169.81</ele>
        <time>2021-06-17T11:52:09Z</time>
      </trkpt>
      <trkpt lat="45.59362" lon="4.76439">
        <ele>170.29</ele>
        <time>2021-06-17T11:52:26Z</time>
      </trkpt>
      <trkpt lat="45.59294" lon="4.76376">
        <ele>170.77</ele>
        <time>2021-06-17T11:52:39Z</time>
      </trkpt>
      <trkpt lat="45.59225" lon="4.76321">
        <ele>170.77</ele>
        <time>2021-06-17T11:52:51Z</time>
      </trkpt>
      <trkpt lat="45.5913" lon="4.76278">
        <ele>171.25</ele>
        <time>2021-06-17T11:53:06Z</time>
      </trkpt>
      <trkpt lat="45.59044" lon="4.76238">
        <ele>171.25</ele>
        <time>2021-06-17T11:53:20Z</time>
      </trkpt>
      <trkpt lat="45.59009" lon="4.76203">
        <ele>172.21</ele>
        <time>2021-06-17T11:53:31Z</time>
      </trkpt>
      <trkpt lat="45.58995" lon="4.76189">
        <ele>172.21</ele>
        <time>2021-06-17T11:53:44Z</time>
      </trkpt>
      <trkpt lat="45.58986" lon="4.76153">
        <ele>173.17</ele>
        <time>2021-06-17T11:53:52Z</time>
      </trkpt>
      <trkpt lat="45.58983" lon="4.76134">
        <ele>173.17</ele>
        <time>2021-06-17T11:53:55Z</time>
      </trkpt>
      <trkpt lat="45.58981" lon="4.76128">
        <ele>174.14</ele>
        <time>2021-06-17T11:53:56Z</time>
      </trkpt>
      <trkpt lat="45.58938" lon="4.76044">
        <ele>176.06</ele>
        <time>2021-06-17T11:54:10Z</time>
      </trkpt>
      <trkpt lat="45.58879" lon="4.75944">
        <ele>176.06</ele>
        <time>2021-06-17T11:54:29Z</time>
      </trkpt>
      <trkpt lat="45.58857" lon="4.75904">
        <ele>177.02</ele>
        <time>2021-06-17T11:54:40Z</time>
      </trkpt>
      <trkpt lat="45.58799" lon="4.75814">
        <ele>178.46</ele>
        <time>2021-06-17T11:54:56Z</time>
      </trkpt>
      <trkpt lat="45.58757" lon="4.75733">
        <ele>178.46</ele>
        <time>2021-06-17T11:55:08Z</time>
      </trkpt>
      <trkpt lat="45.58721" lon="4.75582">
        <ele>177.98</ele>
        <time>2021-06-17T11:55:26Z</time>
      </trkpt>
      <trkpt lat="45.58675" lon="4.75422">
        <ele>178.46</ele>
        <time>2021-06-17T11:55:46Z</time>
      </trkpt>
      <trkpt lat="45.58656" lon="4.75376">
        <ele>178.94</ele>
        <time>2021-06-17T11:55:56Z</time>
      </trkpt>
      <trkpt lat="45.58653" lon="4.75365">
        <ele>178.46</ele>
        <time>2021-06-17T11:55:58Z</time>
      </trkpt>
      <trkpt lat="45.58653" lon="4.7536">
        <ele>178.46</ele>
        <time>2021-06-17T11:55:59Z</time>
      </trkpt>
      <trkpt lat="45.58652" lon="4.75354">
        <ele>178.94</ele>
        <time>2021-06-17T11:56:00Z</time>
      </trkpt>
      <trkpt lat="45.58652" lon="4.75348">
        <ele>178.94</ele>
        <time>2021-06-17T11:56:01Z</time>
      </trkpt>
      <trkpt lat="45.58651" lon="4.75341">
        <ele>179.42</ele>
        <time>2021-06-17T11:56:02Z</time>
      </trkpt>
      <trkpt lat="45.58649" lon="4.75335">
        <ele>179.9</ele>
        <time>2021-06-17T11:56:03Z</time>
      </trkpt>
      <trkpt lat="45.58646" lon="4.7533">
        <ele>179.42</ele>
        <time>2021-06-17T11:56:04Z</time>
      </trkpt>
      <trkpt lat="45.58643" lon="4.75326">
        <ele>179.42</ele>
        <time>2021-06-17T11:56:05Z</time>
      </trkpt>
      <trkpt lat="45.5864" lon="4.75322">
        <ele>179.9</ele>
        <time>2021-06-17T11:56:06Z</time>
      </trkpt>
      <trkpt lat="45.58629" lon="4.75302">
        <ele>179.9</ele>
        <time>2021-06-17T11:56:10Z</time>
      </trkpt>
      <trkpt lat="45.58627" lon="4.75295">
        <ele>179.9</ele>
        <time>2021-06-17T11:56:11Z</time>
      </trkpt>
      <trkpt lat="45.58595" lon="4.75164">
        <ele>180.87</ele>
        <time>2021-06-17T11:56:28Z</time>
      </trkpt>
      <trkpt lat="45.58551" lon="4.75056">
        <ele>181.83</ele>
        <time>2021-06-17T11:56:42Z</time>
      </trkpt>
      <trkpt lat="45.58511" lon="4.74921">
        <ele>182.79</ele>
        <time>2021-06-17T11:56:58Z</time>
      </trkpt>
      <trkpt lat="45.58491" lon="4.74814">
        <ele>182.79</ele>
        <time>2021-06-17T11:57:10Z</time>
      </trkpt>
      <trkpt lat="45.58488" lon="4.74806">
        <ele>182.79</ele>
        <time>2021-06-17T11:57:11Z</time>
      </trkpt>
      <trkpt lat="45.58429" lon="4.74678">
        <ele>183.75</ele>
        <time>2021-06-17T11:57:27Z</time>
      </trkpt>
      <trkpt lat="45.58373" lon="4.74549">
        <ele>184.23</ele>
        <time>2021-06-17T11:57:43Z</time>
      </trkpt>
      <trkpt lat="45.58337" lon="4.74412">
        <ele>185.19</ele>
        <time>2021-06-17T11:57:58Z</time>
      </trkpt>
      <trkpt lat="45.58314" lon="4.74267">
        <ele>185.19</ele>
        <time>2021-06-17T11:58:13Z</time>
      </trkpt>
      <trkpt lat="45.5828" lon="4.74099">
        <ele>184.71</ele>
        <time>2021-06-17T11:58:30Z</time>
      </trkpt>
      <trkpt lat="45.58238" lon="4.73965">
        <ele>184.71</ele>
        <time>2021-06-17T11:58:44Z</time>
      </trkpt>
      <trkpt lat="45.58162" lon="4.7381">
        <ele>184.23</ele>
        <time>2021-06-17T11:59:02Z</time>
      </trkpt>
      <trkpt lat="45.58104" lon="4.73691">
        <ele>184.23</ele>
        <time>2021-06-17T11:59:16Z</time>
      </trkpt>
      <trkpt lat="45.58039" lon="4.73559">
        <ele>186.15</ele>
        <time>2021-06-17T11:59:32Z</time>
      </trkpt>
      <trkpt lat="45.57974" lon="4.73427">
        <ele>186.15</ele>
        <time>2021-06-17T11:59:48Z</time>
      </trkpt>
      <trkpt lat="45.57945" lon="4.73358">
        <ele>186.63</ele>
        <time>2021-06-17T11:59:56Z</time>
      </trkpt>
      <trkpt lat="45.57944" lon="4.73348">
        <ele>186.63</ele>
        <time>2021-06-17T11:59:57Z</time>
      </trkpt>
      <trkpt lat="45.57943" lon="4.73328">
        <ele>187.11</ele>
        <time>2021-06-17T11:59:59Z</time>
      </trkpt>
      <trkpt lat="45.57944" lon="4.73318">
        <ele>187.11</ele>
        <time>2021-06-17T12:00:00Z</time>
      </trkpt>
      <trkpt lat="45.57945" lon="4.73308">
        <ele>187.11</ele>
        <time>2021-06-17T12:00:01Z</time>
      </trkpt>
      <trkpt lat="45.57947" lon="4.73298">
        <ele>187.11</ele>
        <time>2021-06-17T12:00:02Z</time>
      </trkpt>
      <trkpt lat="45.57949" lon="4.73287">
        <ele>187.11</ele>
        <time>2021-06-17T12:00:03Z</time>
      </trkpt>
      <trkpt lat="45.57962" lon="4.73208">
        <ele>188.08</ele>
        <time>2021-06-17T12:00:11Z</time>
      </trkpt>
      <trkpt lat="45.57963" lon="4.73198">
        <ele>188.56</ele>
        <time>2021-06-17T12:00:12Z</time>
      </trkpt>
      <trkpt lat="45.5799" lon="4.73054">
        <ele>189.52</ele>
        <time>2021-06-17T12:00:27Z</time>
      </trkpt>
      <trkpt lat="45.58028" lon="4.72911">
        <ele>190.48</ele>
        <time>2021-06-17T12:00:42Z</time>
      </trkpt>
      <trkpt lat="45.58057" lon="4.72777">
        <ele>191.92</ele>
        <time>2021-06-17T12:00:56Z</time>
      </trkpt>
      <trkpt lat="45.58056" lon="4.72757">
        <ele>191.92</ele>
        <time>2021-06-17T12:00:58Z</time>
      </trkpt>
      <trkpt lat="45.58054" lon="4.72747">
        <ele>191.92</ele>
        <time>2021-06-17T12:00:59Z</time>
      </trkpt>
      <trkpt lat="45.58052" lon="4.72737">
        <ele>192.4</ele>
        <time>2021-06-17T12:01:00Z</time>
      </trkpt>
      <trkpt lat="45.58038" lon="4.72688">
        <ele>191.92</ele>
        <time>2021-06-17T12:01:05Z</time>
      </trkpt>
      <trkpt lat="45.57982" lon="4.72554">
        <ele>192.4</ele>
        <time>2021-06-17T12:01:20Z</time>
      </trkpt>
      <trkpt lat="45.57928" lon="4.72402">
        <ele>193.36</ele>
        <time>2021-06-17T12:01:36Z</time>
      </trkpt>
      <trkpt lat="45.57883" lon="4.72346">
        <ele>193.36</ele>
        <time>2021-06-17T12:01:44Z</time>
      </trkpt>
      <trkpt lat="45.57876" lon="4.72341">
        <ele>194.32</ele>
        <time>2021-06-17T12:01:45Z</time>
      </trkpt>
      <trkpt lat="45.5778" lon="4.72281">
        <ele>193.36</ele>
        <time>2021-06-17T12:01:59Z</time>
      </trkpt>
      <trkpt lat="45.57768" lon="4.72269">
        <ele>192.88</ele>
        <time>2021-06-17T12:02:01Z</time>
      </trkpt>
      <trkpt lat="45.57741" lon="4.72228">
        <ele>193.84</ele>
        <time>2021-06-17T12:02:06Z</time>
      </trkpt>
      <trkpt lat="45.57737" lon="4.72218">
        <ele>193.36</ele>
        <time>2021-06-17T12:02:07Z</time>
      </trkpt>
      <trkpt lat="45.57733" lon="4.72208">
        <ele>193.36</ele>
        <time>2021-06-17T12:02:08Z</time>
      </trkpt>
      <trkpt lat="45.5773" lon="4.72197">
        <ele>193.36</ele>
        <time>2021-06-17T12:02:09Z</time>
      </trkpt>
      <trkpt lat="45.57728" lon="4.72186">
        <ele>193.36</ele>
        <time>2021-06-17T12:02:10Z</time>
      </trkpt>
      <trkpt lat="45.57726" lon="4.72175">
        <ele>193.36</ele>
        <time>2021-06-17T12:02:11Z</time>
      </trkpt>
      <trkpt lat="45.57725" lon="4.72163">
        <ele>193.84</ele>
        <time>2021-06-17T12:02:12Z</time>
      </trkpt>
      <trkpt lat="45.57687" lon="4.72025">
        <ele>193.84</ele>
        <time>2021-06-17T12:02:25Z</time>
      </trkpt>
      <trkpt lat="45.5762" lon="4.71874">
        <ele>193.84</ele>
        <time>2021-06-17T12:02:41Z</time>
      </trkpt>
      <trkpt lat="45.5759" lon="4.71824">
        <ele>194.32</ele>
        <time>2021-06-17T12:02:47Z</time>
      </trkpt>
      <trkpt lat="45.57583" lon="4.71817">
        <ele>193.84</ele>
        <time>2021-06-17T12:02:48Z</time>
      </trkpt>
      <trkpt lat="45.57576" lon="4.71812">
        <ele>193.84</ele>
        <time>2021-06-17T12:02:49Z</time>
      </trkpt>
      <trkpt lat="45.57569" lon="4.71808">
        <ele>193.84</ele>
        <time>2021-06-17T12:02:50Z</time>
      </trkpt>
      <trkpt lat="45.57562" lon="4.71805">
        <ele>193.36</ele>
        <time>2021-06-17T12:02:51Z</time>
      </trkpt>
      <trkpt lat="45.57554" lon="4.71802">
        <ele>193.36</ele>
        <time>2021-06-17T12:02:52Z</time>
      </trkpt>
      <trkpt lat="45.57532" lon="4.71789">
        <ele>193.36</ele>
        <time>2021-06-17T12:02:55Z</time>
      </trkpt>
      <trkpt lat="45.57526" lon="4.71783">
        <ele>193.36</ele>
        <time>2021-06-17T12:02:56Z</time>
      </trkpt>
      <trkpt lat="45.5752" lon="4.71776">
        <ele>193.84</ele>
        <time>2021-06-17T12:02:57Z</time>
      </trkpt>
      <trkpt lat="45.57515" lon="4.71767">
        <ele>194.32</ele>
        <time>2021-06-17T12:02:58Z</time>
      </trkpt>
      <trkpt lat="45.57511" lon="4.71758">
        <ele>193.36</ele>
        <time>2021-06-17T12:02:59Z</time>
      </trkpt>
      <trkpt lat="45.57503" lon="4.71739">
        <ele>193.84</ele>
        <time>2021-06-17T12:03:01Z</time>
      </trkpt>
      <trkpt lat="45.575" lon="4.71729">
        <ele>193.84</ele>
        <time>2021-06-17T12:03:02Z</time>
      </trkpt>
      <trkpt lat="45.57498" lon="4.71719">
        <ele>193.84</ele>
        <time>2021-06-17T12:03:03Z</time>
      </trkpt>
      <trkpt lat="45.57497" lon="4.71707">
        <ele>194.32</ele>
        <time>2021-06-17T12:03:04Z</time>
      </trkpt>
      <trkpt lat="45.57496" lon="4.71696">
        <ele>193.84</ele>
        <time>2021-06-17T12:03:05Z</time>
      </trkpt>
      <trkpt lat="45.57496" lon="4.71685">
        <ele>193.84</ele>
        <time>2021-06-17T12:03:06Z</time>
      </trkpt>
      <trkpt lat="45.57497" lon="4.71675">
        <ele>194.8</ele>
        <time>2021-06-17T12:03:07Z</time>
      </trkpt>
      <trkpt lat="45.57499" lon="4.71664">
        <ele>194.32</ele>
        <time>2021-06-17T12:03:08Z</time>
      </trkpt>
      <trkpt lat="45.57501" lon="4.71653">
        <ele>194.32</ele>
        <time>2021-06-17T12:03:09Z</time>
      </trkpt>
      <trkpt lat="45.57505" lon="4.71633">
        <ele>194.8</ele>
        <time>2021-06-17T12:03:11Z</time>
      </trkpt>
      <trkpt lat="45.57506" lon="4.71622">
        <ele>194.8</ele>
        <time>2021-06-17T12:03:12Z</time>
      </trkpt>
      <trkpt lat="45.57506" lon="4.71611">
        <ele>195.28</ele>
        <time>2021-06-17T12:03:13Z</time>
      </trkpt>
      <trkpt lat="45.57506" lon="4.71601">
        <ele>195.28</ele>
        <time>2021-06-17T12:03:14Z</time>
      </trkpt>
      <trkpt lat="45.57504" lon="4.7159">
        <ele>195.77</ele>
        <time>2021-06-17T12:03:15Z</time>
      </trkpt>
      <trkpt lat="45.57502" lon="4.7158">
        <ele>194.8</ele>
        <time>2021-06-17T12:03:16Z</time>
      </trkpt>
      <trkpt lat="45.575" lon="4.7157">
        <ele>195.28</ele>
        <time>2021-06-17T12:03:17Z</time>
      </trkpt>
      <trkpt lat="45.57497" lon="4.71561">
        <ele>195.77</ele>
        <time>2021-06-17T12:03:18Z</time>
      </trkpt>
      <trkpt lat="45.57493" lon="4.71551">
        <ele>196.25</ele>
        <time>2021-06-17T12:03:19Z</time>
      </trkpt>
      <trkpt lat="45.57442" lon="4.71408">
        <ele>196.73</ele>
        <time>2021-06-17T12:03:35Z</time>
      </trkpt>
      <trkpt lat="45.57438" lon="4.714">
        <ele>196.73</ele>
        <time>2021-06-17T12:03:36Z</time>
      </trkpt>
      <trkpt lat="45.57433" lon="4.71391">
        <ele>197.21</ele>
        <time>2021-06-17T12:03:37Z</time>
      </trkpt>
      <trkpt lat="45.57393" lon="4.71351">
        <ele>197.69</ele>
        <time>2021-06-17T12:03:44Z</time>
      </trkpt>
      <trkpt lat="45.57386" lon="4.71348">
        <ele>197.21</ele>
        <time>2021-06-17T12:03:45Z</time>
      </trkpt>
      <trkpt lat="45.57379" lon="4.71346">
        <ele>197.21</ele>
        <time>2021-06-17T12:03:46Z</time>
      </trkpt>
      <trkpt lat="45.57372" lon="4.71345">
        <ele>197.21</ele>
        <time>2021-06-17T12:03:47Z</time>
      </trkpt>
      <trkpt lat="45.57365" lon="4.71345">
        <ele>198.17</ele>
        <time>2021-06-17T12:03:48Z</time>
      </trkpt>
      <trkpt lat="45.57296" lon="4.71328">
        <ele>198.17</ele>
        <time>2021-06-17T12:03:58Z</time>
      </trkpt>
      <trkpt lat="45.5729" lon="4.71324">
        <ele>198.65</ele>
        <time>2021-06-17T12:03:59Z</time>
      </trkpt>
      <trkpt lat="45.57272" lon="4.71307">
        <ele>198.65</ele>
        <time>2021-06-17T12:04:02Z</time>
      </trkpt>
      <trkpt lat="45.57159" lon="4.71179">
        <ele>200.57</ele>
        <time>2021-06-17T12:04:21Z</time>
      </trkpt>
      <trkpt lat="45.57063" lon="4.71069">
        <ele>201.53</ele>
        <time>2021-06-17T12:04:38Z</time>
      </trkpt>
      <trkpt lat="45.5703" lon="4.71034">
        <ele>202.49</ele>
        <time>2021-06-17T12:04:44Z</time>
      </trkpt>
      <trkpt lat="45.56938" lon="4.70952">
        <ele>203.46</ele>
        <time>2021-06-17T12:05:00Z</time>
      </trkpt>
      <trkpt lat="45.56868" lon="4.70833">
        <ele>204.9</ele>
        <time>2021-06-17T12:05:15Z</time>
      </trkpt>
      <trkpt lat="45.56841" lon="4.70768">
        <ele>205.38</ele>
        <time>2021-06-17T12:05:23Z</time>
      </trkpt>
      <trkpt lat="45.56806" lon="4.70661">
        <ele>204.42</ele>
        <time>2021-06-17T12:05:35Z</time>
      </trkpt>
      <trkpt lat="45.56805" lon="4.70651">
        <ele>204.42</ele>
        <time>2021-06-17T12:05:36Z</time>
      </trkpt>
      <trkpt lat="45.56805" lon="4.70641">
        <ele>204.42</ele>
        <time>2021-06-17T12:05:37Z</time>
      </trkpt>
      <trkpt lat="45.56807" lon="4.7063">
        <ele>204.42</ele>
        <time>2021-06-17T12:05:38Z</time>
      </trkpt>
      <trkpt lat="45.56808" lon="4.7062">
        <ele>203.94</ele>
        <time>2021-06-17T12:05:39Z</time>
      </trkpt>
      <trkpt lat="45.56809" lon="4.70555">
        <ele>203.94</ele>
        <time>2021-06-17T12:05:45Z</time>
      </trkpt>
      <trkpt lat="45.56806" lon="4.70545">
        <ele>203.94</ele>
        <time>2021-06-17T12:05:46Z</time>
      </trkpt>
      <trkpt lat="45.56802" lon="4.70535">
        <ele>203.94</ele>
        <time>2021-06-17T12:05:47Z</time>
      </trkpt>
      <trkpt lat="45.56798" lon="4.70525">
        <ele>203.94</ele>
        <time>2021-06-17T12:05:48Z</time>
      </trkpt>
      <trkpt lat="45.56794" lon="4.70517">
        <ele>203.94</ele>
        <time>2021-06-17T12:05:49Z</time>
      </trkpt>
      <trkpt lat="45.56788" lon="4.70508">
        <ele>203.94</ele>
        <time>2021-06-17T12:05:50Z</time>
      </trkpt>
      <trkpt lat="45.56783" lon="4.70501">
        <ele>203.94</ele>
        <time>2021-06-17T12:05:51Z</time>
      </trkpt>
      <trkpt lat="45.56679" lon="4.70373">
        <ele>202.49</ele>
        <time>2021-06-17T12:06:08Z</time>
      </trkpt>
      <trkpt lat="45.56651" lon="4.7034">
        <ele>202.98</ele>
        <time>2021-06-17T12:06:13Z</time>
      </trkpt>
      <trkpt lat="45.56593" lon="4.70299">
        <ele>204.42</ele>
        <time>2021-06-17T12:06:23Z</time>
      </trkpt>
      <trkpt lat="45.56566" lon="4.70284">
        <ele>205.38</ele>
        <time>2021-06-17T12:06:28Z</time>
      </trkpt>
      <trkpt lat="45.5656" lon="4.70282">
        <ele>205.38</ele>
        <time>2021-06-17T12:06:29Z</time>
      </trkpt>
      <trkpt lat="45.56555" lon="4.70281">
        <ele>204.9</ele>
        <time>2021-06-17T12:06:30Z</time>
      </trkpt>
      <trkpt lat="45.56509" lon="4.70277">
        <ele>205.86</ele>
        <time>2021-06-17T12:06:38Z</time>
      </trkpt>
      <trkpt lat="45.56492" lon="4.7027">
        <ele>205.86</ele>
        <time>2021-06-17T12:06:41Z</time>
      </trkpt>
      <trkpt lat="45.56487" lon="4.70266">
        <ele>206.82</ele>
        <time>2021-06-17T12:06:42Z</time>
      </trkpt>
      <trkpt lat="45.56478" lon="4.70257">
        <ele>206.34</ele>
        <time>2021-06-17T12:06:44Z</time>
      </trkpt>
      <trkpt lat="45.56473" lon="4.70251">
        <ele>206.34</ele>
        <time>2021-06-17T12:06:45Z</time>
      </trkpt>
      <trkpt lat="45.56469" lon="4.70246">
        <ele>205.86</ele>
        <time>2021-06-17T12:06:46Z</time>
      </trkpt>
      <trkpt lat="45.56415" lon="4.70137">
        <ele>208.74</ele>
        <time>2021-06-17T12:07:03Z</time>
      </trkpt>
      <trkpt lat="45.56388" lon="4.70083">
        <ele>209.22</ele>
        <time>2021-06-17T12:07:12Z</time>
      </trkpt>
      <trkpt lat="45.56386" lon="4.70076">
        <ele>209.7</ele>
        <time>2021-06-17T12:07:13Z</time>
      </trkpt>
      <trkpt lat="45.56384" lon="4.70068">
        <ele>209.7</ele>
        <time>2021-06-17T12:07:14Z</time>
      </trkpt>
      <trkpt lat="45.56382" lon="4.70061">
        <ele>209.7</ele>
        <time>2021-06-17T12:07:15Z</time>
      </trkpt>
      <trkpt lat="45.56381" lon="4.70053">
        <ele>209.7</ele>
        <time>2021-06-17T12:07:16Z</time>
      </trkpt>
      <trkpt lat="45.5638" lon="4.70046">
        <ele>210.19</ele>
        <time>2021-06-17T12:07:17Z</time>
      </trkpt>
      <trkpt lat="45.5638" lon="4.70039">
        <ele>210.19</ele>
        <time>2021-06-17T12:07:18Z</time>
      </trkpt>
      <trkpt lat="45.56382" lon="4.7003">
        <ele>210.19</ele>
        <time>2021-06-17T12:07:19Z</time>
      </trkpt>
      <trkpt lat="45.56384" lon="4.70023">
        <ele>210.19</ele>
        <time>2021-06-17T12:07:20Z</time>
      </trkpt>
      <trkpt lat="45.56387" lon="4.70016">
        <ele>210.19</ele>
        <time>2021-06-17T12:07:21Z</time>
      </trkpt>
      <trkpt lat="45.5639" lon="4.7001">
        <ele>210.67</ele>
        <time>2021-06-17T12:07:22Z</time>
      </trkpt>
      <trkpt lat="45.56394" lon="4.70004">
        <ele>210.67</ele>
        <time>2021-06-17T12:07:23Z</time>
      </trkpt>
      <trkpt lat="45.56417" lon="4.69962">
        <ele>211.63</ele>
        <time>2021-06-17T12:07:30Z</time>
      </trkpt>
      <trkpt lat="45.56419" lon="4.69955">
        <ele>211.63</ele>
        <time>2021-06-17T12:07:31Z</time>
      </trkpt>
      <trkpt lat="45.56434" lon="4.69846">
        <ele>213.07</ele>
        <time>2021-06-17T12:07:47Z</time>
      </trkpt>
      <trkpt lat="45.56419" lon="4.69738">
        <ele>214.03</ele>
        <time>2021-06-17T12:08:03Z</time>
      </trkpt>
      <trkpt lat="45.56409" lon="4.69661">
        <ele>214.03</ele>
        <time>2021-06-17T12:08:14Z</time>
      </trkpt>
      <trkpt lat="45.56406" lon="4.69654">
        <ele>214.03</ele>
        <time>2021-06-17T12:08:15Z</time>
      </trkpt>
      <trkpt lat="45.56389" lon="4.69614">
        <ele>214.51</ele>
        <time>2021-06-17T12:08:21Z</time>
      </trkpt>
      <trkpt lat="45.56383" lon="4.69602">
        <ele>214.99</ele>
        <time>2021-06-17T12:08:23Z</time>
      </trkpt>
      <trkpt lat="45.56318" lon="4.69529">
        <ele>214.51</ele>
        <time>2021-06-17T12:08:38Z</time>
      </trkpt>
      <trkpt lat="45.56239" lon="4.69479">
        <ele>215.95</ele>
        <time>2021-06-17T12:08:54Z</time>
      </trkpt>
      <trkpt lat="45.56207" lon="4.69471">
        <ele>216.43</ele>
        <time>2021-06-17T12:09:00Z</time>
      </trkpt>
      <trkpt lat="45.56134" lon="4.69418">
        <ele>216.91</ele>
        <time>2021-06-17T12:09:15Z</time>
      </trkpt>
      <trkpt lat="45.56129" lon="4.69413">
        <ele>216.43</ele>
        <time>2021-06-17T12:09:16Z</time>
      </trkpt>
      <trkpt lat="45.56063" lon="4.69331">
        <ele>217.88</ele>
        <time>2021-06-17T12:09:32Z</time>
      </trkpt>
      <trkpt lat="45.5601" lon="4.69245">
        <ele>218.36</ele>
        <time>2021-06-17T12:09:47Z</time>
      </trkpt>
      <trkpt lat="45.55984" lon="4.69202">
        <ele>218.84</ele>
        <time>2021-06-17T12:09:55Z</time>
      </trkpt>
      <trkpt lat="45.55944" lon="4.69117">
        <ele>219.32</ele>
        <time>2021-06-17T12:10:09Z</time>
      </trkpt>
      <trkpt lat="45.55934" lon="4.69084">
        <ele>219.32</ele>
        <time>2021-06-17T12:10:14Z</time>
      </trkpt>
      <trkpt lat="45.55933" lon="4.69077">
        <ele>219.8</ele>
        <time>2021-06-17T12:10:15Z</time>
      </trkpt>
      <trkpt lat="45.55927" lon="4.69015">
        <ele>219.8</ele>
        <time>2021-06-17T12:10:23Z</time>
      </trkpt>
      <trkpt lat="45.55902" lon="4.68912">
        <ele>218.84</ele>
        <time>2021-06-17T12:10:36Z</time>
      </trkpt>
      <trkpt lat="45.55859" lon="4.68756">
        <ele>217.4</ele>
        <time>2021-06-17T12:10:54Z</time>
      </trkpt>
      <trkpt lat="45.55843" lon="4.68655">
        <ele>217.4</ele>
        <time>2021-06-17T12:11:05Z</time>
      </trkpt>
      <trkpt lat="45.5579" lon="4.68562">
        <ele>216.91</ele>
        <time>2021-06-17T12:11:18Z</time>
      </trkpt>
      <trkpt lat="45.55727" lon="4.68427">
        <ele>217.4</ele>
        <time>2021-06-17T12:11:35Z</time>
      </trkpt>
      <trkpt lat="45.55695" lon="4.68369">
        <ele>217.88</ele>
        <time>2021-06-17T12:11:43Z</time>
      </trkpt>
      <trkpt lat="45.55645" lon="4.68278">
        <ele>217.88</ele>
        <time>2021-06-17T12:11:56Z</time>
      </trkpt>
      <trkpt lat="45.55629" lon="4.68251">
        <ele>217.4</ele>
        <time>2021-06-17T12:12:00Z</time>
      </trkpt>
      <trkpt lat="45.55626" lon="4.68244">
        <ele>217.4</ele>
        <time>2021-06-17T12:12:01Z</time>
      </trkpt>
      <trkpt lat="45.55622" lon="4.68237">
        <ele>217.4</ele>
        <time>2021-06-17T12:12:02Z</time>
      </trkpt>
      <trkpt lat="45.5557" lon="4.68157">
        <ele>217.4</ele>
        <time>2021-06-17T12:12:14Z</time>
      </trkpt>
      <trkpt lat="45.55559" lon="4.68148">
        <ele>217.4</ele>
        <time>2021-06-17T12:12:16Z</time>
      </trkpt>
      <trkpt lat="45.55553" lon="4.68145">
        <ele>217.4</ele>
        <time>2021-06-17T12:12:17Z</time>
      </trkpt>
      <trkpt lat="45.55521" lon="4.68136">
        <ele>217.4</ele>
        <time>2021-06-17T12:12:22Z</time>
      </trkpt>
      <trkpt lat="45.55422" lon="4.6814">
        <ele>218.84</ele>
        <time>2021-06-17T12:12:38Z</time>
      </trkpt>
      <trkpt lat="45.55327" lon="4.68127">
        <ele>219.32</ele>
        <time>2021-06-17T12:12:54Z</time>
      </trkpt>
      <trkpt lat="45.55262" lon="4.68097">
        <ele>220.28</ele>
        <time>2021-06-17T12:13:06Z</time>
      </trkpt>
      <trkpt lat="45.55257" lon="4.68094">
        <ele>220.28</ele>
        <time>2021-06-17T12:13:07Z</time>
      </trkpt>
      <trkpt lat="45.55182" lon="4.68059">
        <ele>221.72</ele>
        <time>2021-06-17T12:13:22Z</time>
      </trkpt>
      <trkpt lat="45.55148" lon="4.68037">
        <ele>221.72</ele>
        <time>2021-06-17T12:13:29Z</time>
      </trkpt>
      <trkpt lat="45.55136" lon="4.68023">
        <ele>222.2</ele>
        <time>2021-06-17T12:13:32Z</time>
      </trkpt>
      <trkpt lat="45.55133" lon="4.68017">
        <ele>221.72</ele>
        <time>2021-06-17T12:13:33Z</time>
      </trkpt>
      <trkpt lat="45.5513" lon="4.6801">
        <ele>222.2</ele>
        <time>2021-06-17T12:13:34Z</time>
      </trkpt>
      <trkpt lat="45.55127" lon="4.68003">
        <ele>222.2</ele>
        <time>2021-06-17T12:13:35Z</time>
      </trkpt>
      <trkpt lat="45.55125" lon="4.67996">
        <ele>222.2</ele>
        <time>2021-06-17T12:13:36Z</time>
      </trkpt>
      <trkpt lat="45.55124" lon="4.67988">
        <ele>222.2</ele>
        <time>2021-06-17T12:13:37Z</time>
      </trkpt>
      <trkpt lat="45.55124" lon="4.6798">
        <ele>222.2</ele>
        <time>2021-06-17T12:13:38Z</time>
      </trkpt>
      <trkpt lat="45.55124" lon="4.67972">
        <ele>222.68</ele>
        <time>2021-06-17T12:13:39Z</time>
      </trkpt>
      <trkpt lat="45.55125" lon="4.67964">
        <ele>222.68</ele>
        <time>2021-06-17T12:13:40Z</time>
      </trkpt>
      <trkpt lat="45.55127" lon="4.67956">
        <ele>222.68</ele>
        <time>2021-06-17T12:13:41Z</time>
      </trkpt>
      <trkpt lat="45.55129" lon="4.67948">
        <ele>222.68</ele>
        <time>2021-06-17T12:13:42Z</time>
      </trkpt>
      <trkpt lat="45.55132" lon="4.67941">
        <ele>223.16</ele>
        <time>2021-06-17T12:13:43Z</time>
      </trkpt>
      <trkpt lat="45.55135" lon="4.67934">
        <ele>223.16</ele>
        <time>2021-06-17T12:13:44Z</time>
      </trkpt>
      <trkpt lat="45.55138" lon="4.67928">
        <ele>223.16</ele>
        <time>2021-06-17T12:13:45Z</time>
      </trkpt>
      <trkpt lat="45.55153" lon="4.67906">
        <ele>223.16</ele>
        <time>2021-06-17T12:13:49Z</time>
      </trkpt>
      <trkpt lat="45.55219" lon="4.67829">
        <ele>225.09</ele>
        <time>2021-06-17T12:14:06Z</time>
      </trkpt>
      <trkpt lat="45.5526" lon="4.67726">
        <ele>226.05</ele>
        <time>2021-06-17T12:14:24Z</time>
      </trkpt>
      <trkpt lat="45.55273" lon="4.67648">
        <ele>227.01</ele>
        <time>2021-06-17T12:14:36Z</time>
      </trkpt>
      <trkpt lat="45.55273" lon="4.67641">
        <ele>227.97</ele>
        <time>2021-06-17T12:14:37Z</time>
      </trkpt>
      <trkpt lat="45.55272" lon="4.67634">
        <ele>227.49</ele>
        <time>2021-06-17T12:14:38Z</time>
      </trkpt>
      <trkpt lat="45.55271" lon="4.67627">
        <ele>227.49</ele>
        <time>2021-06-17T12:14:39Z</time>
      </trkpt>
      <trkpt lat="45.5527" lon="4.67621">
        <ele>227.01</ele>
        <time>2021-06-17T12:14:40Z</time>
      </trkpt>
      <trkpt lat="45.55268" lon="4.67615">
        <ele>227.49</ele>
        <time>2021-06-17T12:14:41Z</time>
      </trkpt>
      <trkpt lat="45.55233" lon="4.67535">
        <ele>227.97</ele>
        <time>2021-06-17T12:14:55Z</time>
      </trkpt>
      <trkpt lat="45.55179" lon="4.67444">
        <ele>228.93</ele>
        <time>2021-06-17T12:15:13Z</time>
      </trkpt>
      <trkpt lat="45.55122" lon="4.67371">
        <ele>230.37</ele>
        <time>2021-06-17T12:15:30Z</time>
      </trkpt>
      <trkpt lat="45.55092" lon="4.67347">
        <ele>230.37</ele>
        <time>2021-06-17T12:15:37Z</time>
      </trkpt>
      <trkpt lat="45.55088" lon="4.67344">
        <ele>230.37</ele>
        <time>2021-06-17T12:15:38Z</time>
      </trkpt>
      <trkpt lat="45.5505" lon="4.67324">
        <ele>230.37</ele>
        <time>2021-06-17T12:15:46Z</time>
      </trkpt>
      <trkpt lat="45.55045" lon="4.67323">
        <ele>230.85</ele>
        <time>2021-06-17T12:15:47Z</time>
      </trkpt>
      <trkpt lat="45.5504" lon="4.67321">
        <ele>230.85</ele>
        <time>2021-06-17T12:15:48Z</time>
      </trkpt>
      <trkpt lat="45.55019" lon="4.67321">
        <ele>230.85</ele>
        <time>2021-06-17T12:15:52Z</time>
      </trkpt>
      <trkpt lat="45.55014" lon="4.67323">
        <ele>230.37</ele>
        <time>2021-06-17T12:15:53Z</time>
      </trkpt>
      <trkpt lat="45.55008" lon="4.67325">
        <ele>230.85</ele>
        <time>2021-06-17T12:15:54Z</time>
      </trkpt>
      <trkpt lat="45.54964" lon="4.67339">
        <ele>229.89</ele>
        <time>2021-06-17T12:16:02Z</time>
      </trkpt>
      <trkpt lat="45.54958" lon="4.67339">
        <ele>230.37</ele>
        <time>2021-06-17T12:16:03Z</time>
      </trkpt>
      <trkpt lat="45.54942" lon="4.67337">
        <ele>230.85</ele>
        <time>2021-06-17T12:16:06Z</time>
      </trkpt>
      <trkpt lat="45.54923" lon="4.67329">
        <ele>230.85</ele>
        <time>2021-06-17T12:16:10Z</time>
      </trkpt>
      <trkpt lat="45.54918" lon="4.67325">
        <ele>230.85</ele>
        <time>2021-06-17T12:16:11Z</time>
      </trkpt>
      <trkpt lat="45.54914" lon="4.67321">
        <ele>230.85</ele>
        <time>2021-06-17T12:16:12Z</time>
      </trkpt>
      <trkpt lat="45.5491" lon="4.67316">
        <ele>230.85</ele>
        <time>2021-06-17T12:16:13Z</time>
      </trkpt>
      <trkpt lat="45.54906" lon="4.67311">
        <ele>230.85</ele>
        <time>2021-06-17T12:16:14Z</time>
      </trkpt>
      <trkpt lat="45.54902" lon="4.67306">
        <ele>230.85</ele>
        <time>2021-06-17T12:16:15Z</time>
      </trkpt>
      <trkpt lat="45.54899" lon="4.67301">
        <ele>231.33</ele>
        <time>2021-06-17T12:16:16Z</time>
      </trkpt>
      <trkpt lat="45.54896" lon="4.67296">
        <ele>230.85</ele>
        <time>2021-06-17T12:16:17Z</time>
      </trkpt>
      <trkpt lat="45.54863" lon="4.67202">
        <ele>232.3</ele>
        <time>2021-06-17T12:16:32Z</time>
      </trkpt>
      <trkpt lat="45.54836" lon="4.67147">
        <ele>232.78</ele>
        <time>2021-06-17T12:16:41Z</time>
      </trkpt>
      <trkpt lat="45.54766" lon="4.67094">
        <ele>232.3</ele>
        <time>2021-06-17T12:16:56Z</time>
      </trkpt>
      <trkpt lat="45.54762" lon="4.6709">
        <ele>232.3</ele>
        <time>2021-06-17T12:16:57Z</time>
      </trkpt>
      <trkpt lat="45.54704" lon="4.67024">
        <ele>232.78</ele>
        <time>2021-06-17T12:17:11Z</time>
      </trkpt>
      <trkpt lat="45.547" lon="4.67018">
        <ele>232.78</ele>
        <time>2021-06-17T12:17:12Z</time>
      </trkpt>
      <trkpt lat="45.54697" lon="4.67011">
        <ele>232.78</ele>
        <time>2021-06-17T12:17:13Z</time>
      </trkpt>
      <trkpt lat="45.54695" lon="4.67004">
        <ele>232.78</ele>
        <time>2021-06-17T12:17:14Z</time>
      </trkpt>
      <trkpt lat="45.54693" lon="4.66997">
        <ele>232.78</ele>
        <time>2021-06-17T12:17:15Z</time>
      </trkpt>
      <trkpt lat="45.54691" lon="4.66989">
        <ele>232.78</ele>
        <time>2021-06-17T12:17:16Z</time>
      </trkpt>
      <trkpt lat="45.54689" lon="4.66981">
        <ele>232.78</ele>
        <time>2021-06-17T12:17:17Z</time>
      </trkpt>
      <trkpt lat="45.54688" lon="4.66973">
        <ele>233.26</ele>
        <time>2021-06-17T12:17:18Z</time>
      </trkpt>
      <trkpt lat="45.54688" lon="4.66965">
        <ele>232.78</ele>
        <time>2021-06-17T12:17:19Z</time>
      </trkpt>
      <trkpt lat="45.54688" lon="4.66957">
        <ele>233.26</ele>
        <time>2021-06-17T12:17:20Z</time>
      </trkpt>
      <trkpt lat="45.54688" lon="4.66949">
        <ele>232.78</ele>
        <time>2021-06-17T12:17:21Z</time>
      </trkpt>
      <trkpt lat="45.54689" lon="4.66941">
        <ele>233.26</ele>
        <time>2021-06-17T12:17:22Z</time>
      </trkpt>
      <trkpt lat="45.54691" lon="4.66933">
        <ele>233.26</ele>
        <time>2021-06-17T12:17:23Z</time>
      </trkpt>
      <trkpt lat="45.54698" lon="4.66905">
        <ele>233.74</ele>
        <time>2021-06-17T12:17:27Z</time>
      </trkpt>
      <trkpt lat="45.54704" lon="4.66868">
        <ele>234.22</ele>
        <time>2021-06-17T12:17:32Z</time>
      </trkpt>
      <trkpt lat="45.54705" lon="4.6686">
        <ele>234.22</ele>
        <time>2021-06-17T12:17:33Z</time>
      </trkpt>
      <trkpt lat="45.54701" lon="4.66828">
        <ele>233.74</ele>
        <time>2021-06-17T12:17:37Z</time>
      </trkpt>
      <trkpt lat="45.54699" lon="4.66821">
        <ele>234.22</ele>
        <time>2021-06-17T12:17:38Z</time>
      </trkpt>
      <trkpt lat="45.54697" lon="4.66814">
        <ele>234.22</ele>
        <time>2021-06-17T12:17:39Z</time>
      </trkpt>
      <trkpt lat="45.54695" lon="4.66807">
        <ele>234.22</ele>
        <time>2021-06-17T12:17:40Z</time>
      </trkpt>
      <trkpt lat="45.54692" lon="4.668">
        <ele>234.22</ele>
        <time>2021-06-17T12:17:41Z</time>
      </trkpt>
      <trkpt lat="45.54637" lon="4.66686">
        <ele>233.74</ele>
        <time>2021-06-17T12:17:58Z</time>
      </trkpt>
      <trkpt lat="45.54573" lon="4.66616">
        <ele>234.7</ele>
        <time>2021-06-17T12:18:13Z</time>
      </trkpt>
      <trkpt lat="45.54553" lon="4.66604">
        <ele>235.18</ele>
        <time>2021-06-17T12:18:17Z</time>
      </trkpt>
      <trkpt lat="45.54537" lon="4.66601">
        <ele>235.18</ele>
        <time>2021-06-17T12:18:20Z</time>
      </trkpt>
      <trkpt lat="45.54455" lon="4.66593">
        <ele>234.7</ele>
        <time>2021-06-17T12:18:35Z</time>
      </trkpt>
      <trkpt lat="45.54444" lon="4.66589">
        <ele>234.7</ele>
        <time>2021-06-17T12:18:37Z</time>
      </trkpt>
      <trkpt lat="45.54439" lon="4.66586">
        <ele>234.7</ele>
        <time>2021-06-17T12:18:38Z</time>
      </trkpt>
      <trkpt lat="45.54434" lon="4.66583">
        <ele>234.7</ele>
        <time>2021-06-17T12:18:39Z</time>
      </trkpt>
      <trkpt lat="45.54429" lon="4.66579">
        <ele>234.7</ele>
        <time>2021-06-17T12:18:40Z</time>
      </trkpt>
      <trkpt lat="45.54425" lon="4.66574">
        <ele>234.22</ele>
        <time>2021-06-17T12:18:41Z</time>
      </trkpt>
      <trkpt lat="45.54421" lon="4.66568">
        <ele>234.22</ele>
        <time>2021-06-17T12:18:42Z</time>
      </trkpt>
      <trkpt lat="45.54417" lon="4.66562">
        <ele>234.7</ele>
        <time>2021-06-17T12:18:43Z</time>
      </trkpt>
      <trkpt lat="45.54415" lon="4.66554">
        <ele>234.7</ele>
        <time>2021-06-17T12:18:44Z</time>
      </trkpt>
      <trkpt lat="45.54414" lon="4.66546">
        <ele>234.7</ele>
        <time>2021-06-17T12:18:45Z</time>
      </trkpt>
      <trkpt lat="45.54413" lon="4.66537">
        <ele>234.7</ele>
        <time>2021-06-17T12:18:46Z</time>
      </trkpt>
      <trkpt lat="45.54412" lon="4.66529">
        <ele>234.7</ele>
        <time>2021-06-17T12:18:47Z</time>
      </trkpt>
      <trkpt lat="45.54412" lon="4.66521">
        <ele>235.18</ele>
        <time>2021-06-17T12:18:48Z</time>
      </trkpt>
      <trkpt lat="45.54407" lon="4.66407">
        <ele>235.18</ele>
        <time>2021-06-17T12:19:02Z</time>
      </trkpt>
      <trkpt lat="45.54403" lon="4.66336">
        <ele>234.7</ele>
        <time>2021-06-17T12:19:11Z</time>
      </trkpt>
      <trkpt lat="45.54403" lon="4.66328">
        <ele>234.7</ele>
        <time>2021-06-17T12:19:12Z</time>
      </trkpt>
      <trkpt lat="45.54406" lon="4.6619">
        <ele>234.7</ele>
        <time>2021-06-17T12:19:29Z</time>
      </trkpt>
      <trkpt lat="45.54407" lon="4.66182">
        <ele>235.18</ele>
        <time>2021-06-17T12:19:30Z</time>
      </trkpt>
      <trkpt lat="45.54409" lon="4.66174">
        <ele>235.18</ele>
        <time>2021-06-17T12:19:31Z</time>
      </trkpt>
      <trkpt lat="45.54423" lon="4.66133">
        <ele>235.66</ele>
        <time>2021-06-17T12:19:37Z</time>
      </trkpt>
      <trkpt lat="45.54436" lon="4.6602">
        <ele>236.14</ele>
        <time>2021-06-17T12:19:52Z</time>
      </trkpt>
      <trkpt lat="45.54429" lon="4.65913">
        <ele>236.14</ele>
        <time>2021-06-17T12:20:06Z</time>
      </trkpt>
      <trkpt lat="45.54408" lon="4.65781">
        <ele>236.62</ele>
        <time>2021-06-17T12:20:24Z</time>
      </trkpt>
      <trkpt lat="45.54377" lon="4.65653">
        <ele>238.06</ele>
        <time>2021-06-17T12:20:43Z</time>
      </trkpt>
      <trkpt lat="45.54322" lon="4.65543">
        <ele>239.51</ele>
        <time>2021-06-17T12:21:02Z</time>
      </trkpt>
      <trkpt lat="45.54282" lon="4.65448">
        <ele>239.51</ele>
        <time>2021-06-17T12:21:17Z</time>
      </trkpt>
      <trkpt lat="45.54281" lon="4.65441">
        <ele>239.51</ele>
        <time>2021-06-17T12:21:18Z</time>
      </trkpt>
      <trkpt lat="45.54281" lon="4.65434">
        <ele>239.99</ele>
        <time>2021-06-17T12:21:19Z</time>
      </trkpt>
      <trkpt lat="45.54281" lon="4.65426">
        <ele>240.47</ele>
        <time>2021-06-17T12:21:20Z</time>
      </trkpt>
      <trkpt lat="45.54282" lon="4.65419">
        <ele>239.99</ele>
        <time>2021-06-17T12:21:21Z</time>
      </trkpt>
      <trkpt lat="45.54283" lon="4.65411">
        <ele>239.99</ele>
        <time>2021-06-17T12:21:22Z</time>
      </trkpt>
      <trkpt lat="45.54287" lon="4.65389">
        <ele>240.47</ele>
        <time>2021-06-17T12:21:25Z</time>
      </trkpt>
      <trkpt lat="45.54333" lon="4.6526">
        <ele>240.47</ele>
        <time>2021-06-17T12:21:43Z</time>
      </trkpt>
      <trkpt lat="45.54355" lon="4.6514">
        <ele>241.43</ele>
        <time>2021-06-17T12:21:58Z</time>
      </trkpt>
      <trkpt lat="45.54347" lon="4.6501">
        <ele>240.95</ele>
        <time>2021-06-17T12:22:13Z</time>
      </trkpt>
      <trkpt lat="45.5433" lon="4.64881">
        <ele>240.47</ele>
        <time>2021-06-17T12:22:29Z</time>
      </trkpt>
      <trkpt lat="45.54283" lon="4.6471">
        <ele>240.95</ele>
        <time>2021-06-17T12:22:50Z</time>
      </trkpt>
      <trkpt lat="45.54262" lon="4.64615">
        <ele>239.02</ele>
        <time>2021-06-17T12:23:00Z</time>
      </trkpt>
      <trkpt lat="45.54261" lon="4.64605">
        <ele>239.02</ele>
        <time>2021-06-17T12:23:01Z</time>
      </trkpt>
      <trkpt lat="45.54261" lon="4.64594">
        <ele>238.54</ele>
        <time>2021-06-17T12:23:02Z</time>
      </trkpt>
      <trkpt lat="45.54263" lon="4.64543">
        <ele>238.54</ele>
        <time>2021-06-17T12:23:07Z</time>
      </trkpt>
      <trkpt lat="45.54265" lon="4.64534">
        <ele>238.06</ele>
        <time>2021-06-17T12:23:08Z</time>
      </trkpt>
      <trkpt lat="45.54272" lon="4.64493">
        <ele>239.99</ele>
        <time>2021-06-17T12:23:13Z</time>
      </trkpt>
      <trkpt lat="45.54281" lon="4.64408">
        <ele>240.47</ele>
        <time>2021-06-17T12:23:24Z</time>
      </trkpt>
      <trkpt lat="45.54282" lon="4.64401">
        <ele>240.47</ele>
        <time>2021-06-17T12:23:25Z</time>
      </trkpt>
      <trkpt lat="45.54286" lon="4.64388">
        <ele>240.95</ele>
        <time>2021-06-17T12:23:27Z</time>
      </trkpt>
      <trkpt lat="45.54287" lon="4.64381">
        <ele>240.95</ele>
        <time>2021-06-17T12:23:28Z</time>
      </trkpt>
      <trkpt lat="45.54286" lon="4.64374">
        <ele>240.95</ele>
        <time>2021-06-17T12:23:29Z</time>
      </trkpt>
      <trkpt lat="45.54284" lon="4.64368">
        <ele>240.47</ele>
        <time>2021-06-17T12:23:30Z</time>
      </trkpt>
      <trkpt lat="45.54281" lon="4.64361">
        <ele>240.95</ele>
        <time>2021-06-17T12:23:31Z</time>
      </trkpt>
      <trkpt lat="45.54276" lon="4.64347">
        <ele>240.95</ele>
        <time>2021-06-17T12:23:33Z</time>
      </trkpt>
      <trkpt lat="45.54275" lon="4.64339">
        <ele>241.43</ele>
        <time>2021-06-17T12:23:34Z</time>
      </trkpt>
      <trkpt lat="45.54273" lon="4.64323">
        <ele>241.43</ele>
        <time>2021-06-17T12:23:36Z</time>
      </trkpt>
      <trkpt lat="45.54272" lon="4.64315">
        <ele>241.43</ele>
        <time>2021-06-17T12:23:37Z</time>
      </trkpt>
      <trkpt lat="45.5427" lon="4.64308">
        <ele>241.43</ele>
        <time>2021-06-17T12:23:38Z</time>
      </trkpt>
      <trkpt lat="45.54264" lon="4.64293">
        <ele>241.43</ele>
        <time>2021-06-17T12:23:40Z</time>
      </trkpt>
      <trkpt lat="45.54198" lon="4.64181">
        <ele>241.43</ele>
        <time>2021-06-17T12:23:57Z</time>
      </trkpt>
      <trkpt lat="45.54141" lon="4.64107">
        <ele>240.47</ele>
        <time>2021-06-17T12:24:09Z</time>
      </trkpt>
      <trkpt lat="45.54139" lon="4.64098">
        <ele>240.47</ele>
        <time>2021-06-17T12:24:10Z</time>
      </trkpt>
      <trkpt lat="45.54137" lon="4.6409">
        <ele>240.95</ele>
        <time>2021-06-17T12:24:11Z</time>
      </trkpt>
      <trkpt lat="45.54133" lon="4.64084">
        <ele>240.95</ele>
        <time>2021-06-17T12:24:12Z</time>
      </trkpt>
      <trkpt lat="45.54128" lon="4.64078">
        <ele>240.95</ele>
        <time>2021-06-17T12:24:13Z</time>
      </trkpt>
      <trkpt lat="45.54123" lon="4.64073">
        <ele>240.95</ele>
        <time>2021-06-17T12:24:14Z</time>
      </trkpt>
      <trkpt lat="45.54112" lon="4.64061">
        <ele>240.47</ele>
        <time>2021-06-17T12:24:16Z</time>
      </trkpt>
      <trkpt lat="45.54107" lon="4.64055">
        <ele>240.47</ele>
        <time>2021-06-17T12:24:17Z</time>
      </trkpt>
      <trkpt lat="45.5403" lon="4.6396">
        <ele>240.47</ele>
        <time>2021-06-17T12:24:33Z</time>
      </trkpt>
      <trkpt lat="45.5402" lon="4.6395">
        <ele>239.51</ele>
        <time>2021-06-17T12:24:35Z</time>
      </trkpt>
      <trkpt lat="45.54015" lon="4.63944">
        <ele>239.99</ele>
        <time>2021-06-17T12:24:36Z</time>
      </trkpt>
      <trkpt lat="45.53952" lon="4.63856">
        <ele>240.47</ele>
        <time>2021-06-17T12:24:51Z</time>
      </trkpt>
      <trkpt lat="45.53949" lon="4.63849">
        <ele>240.95</ele>
        <time>2021-06-17T12:24:52Z</time>
      </trkpt>
      <trkpt lat="45.53938" lon="4.63829">
        <ele>239.99</ele>
        <time>2021-06-17T12:24:55Z</time>
      </trkpt>
      <trkpt lat="45.53877" lon="4.63745">
        <ele>240.47</ele>
        <time>2021-06-17T12:25:09Z</time>
      </trkpt>
      <trkpt lat="45.538" lon="4.63646">
        <ele>241.43</ele>
        <time>2021-06-17T12:25:27Z</time>
      </trkpt>
      <trkpt lat="45.53731" lon="4.63549">
        <ele>242.39</ele>
        <time>2021-06-17T12:25:44Z</time>
      </trkpt>
      <trkpt lat="45.53709" lon="4.63521">
        <ele>242.39</ele>
        <time>2021-06-17T12:25:49Z</time>
      </trkpt>
      <trkpt lat="45.53704" lon="4.63516">
        <ele>241.91</ele>
        <time>2021-06-17T12:25:50Z</time>
      </trkpt>
      <trkpt lat="45.537" lon="4.63511">
        <ele>241.91</ele>
        <time>2021-06-17T12:25:51Z</time>
      </trkpt>
      <trkpt lat="45.53627" lon="4.63414">
        <ele>242.39</ele>
        <time>2021-06-17T12:26:08Z</time>
      </trkpt>
      <trkpt lat="45.53558" lon="4.63319">
        <ele>242.87</ele>
        <time>2021-06-17T12:26:25Z</time>
      </trkpt>
      <trkpt lat="45.53503" lon="4.63253">
        <ele>242.87</ele>
        <time>2021-06-17T12:26:38Z</time>
      </trkpt>
      <trkpt lat="45.53499" lon="4.63248">
        <ele>242.87</ele>
        <time>2021-06-17T12:26:39Z</time>
      </trkpt>
      <trkpt lat="45.53496" lon="4.63243">
        <ele>243.35</ele>
        <time>2021-06-17T12:26:40Z</time>
      </trkpt>
      <trkpt lat="45.53437" lon="4.63154">
        <ele>243.35</ele>
        <time>2021-06-17T12:26:55Z</time>
      </trkpt>
      <trkpt lat="45.53435" lon="4.63146">
        <ele>243.35</ele>
        <time>2021-06-17T12:26:56Z</time>
      </trkpt>
      <trkpt lat="45.53401" lon="4.63029">
        <ele>241.91</ele>
        <time>2021-06-17T12:27:10Z</time>
      </trkpt>
      <trkpt lat="45.53359" lon="4.62892">
        <ele>242.87</ele>
        <time>2021-06-17T12:27:28Z</time>
      </trkpt>
      <trkpt lat="45.53317" lon="4.62742">
        <ele>243.35</ele>
        <time>2021-06-17T12:27:48Z</time>
      </trkpt>
      <trkpt lat="45.53276" lon="4.62613">
        <ele>245.27</ele>
        <time>2021-06-17T12:28:06Z</time>
      </trkpt>
      <trkpt lat="45.53245" lon="4.62509">
        <ele>246.23</ele>
        <time>2021-06-17T12:28:20Z</time>
      </trkpt>
      <trkpt lat="45.53204" lon="4.62383">
        <ele>247.2</ele>
        <time>2021-06-17T12:28:38Z</time>
      </trkpt>
      <trkpt lat="45.53175" lon="4.62295">
        <ele>247.68</ele>
        <time>2021-06-17T12:28:51Z</time>
      </trkpt>
      <trkpt lat="45.53122" lon="4.62148">
        <ele>247.2</ele>
        <time>2021-06-17T12:29:11Z</time>
      </trkpt>
      <trkpt lat="45.53106" lon="4.62107">
        <ele>246.23</ele>
        <time>2021-06-17T12:29:19Z</time>
      </trkpt>
      <trkpt lat="45.53067" lon="4.62003">
        <ele>246.23</ele>
        <time>2021-06-17T12:29:34Z</time>
      </trkpt>
      <trkpt lat="45.53033" lon="4.61914">
        <ele>246.23</ele>
        <time>2021-06-17T12:29:49Z</time>
      </trkpt>
      <trkpt lat="45.53005" lon="4.61846">
        <ele>246.72</ele>
        <time>2021-06-17T12:30:02Z</time>
      </trkpt>
      <trkpt lat="45.52975" lon="4.61767">
        <ele>247.68</ele>
        <time>2021-06-17T12:30:14Z</time>
      </trkpt>
      <trkpt lat="45.52954" lon="4.61711">
        <ele>248.16</ele>
        <time>2021-06-17T12:30:23Z</time>
      </trkpt>
      <trkpt lat="45.52952" lon="4.61705">
        <ele>248.64</ele>
        <time>2021-06-17T12:30:24Z</time>
      </trkpt>
      <trkpt lat="45.52949" lon="4.617">
        <ele>248.16</ele>
        <time>2021-06-17T12:30:25Z</time>
      </trkpt>
      <trkpt lat="45.52921" lon="4.61626">
        <ele>249.12</ele>
        <time>2021-06-17T12:30:37Z</time>
      </trkpt>
      <trkpt lat="45.52915" lon="4.61616">
        <ele>249.12</ele>
        <time>2021-06-17T12:30:40Z</time>
      </trkpt>
      <trkpt lat="45.52915" lon="4.61613">
        <ele>249.6</ele>
        <time>2021-06-17T12:30:41Z</time>
      </trkpt>
      <trkpt lat="45.52914" lon="4.6161">
        <ele>249.12</ele>
        <time>2021-06-17T12:30:43Z</time>
      </trkpt>
      <trkpt lat="45.52914" lon="4.61607">
        <ele>249.12</ele>
        <time>2021-06-17T12:30:44Z</time>
      </trkpt>
      <trkpt lat="45.52913" lon="4.61604">
        <ele>249.12</ele>
        <time>2021-06-17T12:30:45Z</time>
      </trkpt>
      <trkpt lat="45.52912" lon="4.616">
        <ele>249.12</ele>
        <time>2021-06-17T12:30:46Z</time>
      </trkpt>
      <trkpt lat="45.52911" lon="4.61596">
        <ele>248.64</ele>
        <time>2021-06-17T12:30:47Z</time>
      </trkpt>
      <trkpt lat="45.52882" lon="4.61517">
        <ele>248.64</ele>
        <time>2021-06-17T12:30:59Z</time>
      </trkpt>
      <trkpt lat="45.5288" lon="4.61509">
        <ele>249.12</ele>
        <time>2021-06-17T12:31:00Z</time>
      </trkpt>
      <trkpt lat="45.52879" lon="4.61501">
        <ele>248.64</ele>
        <time>2021-06-17T12:31:01Z</time>
      </trkpt>
      <trkpt lat="45.52871" lon="4.61407">
        <ele>248.16</ele>
        <time>2021-06-17T12:31:14Z</time>
      </trkpt>
      <trkpt lat="45.52868" lon="4.61398">
        <ele>248.64</ele>
        <time>2021-06-17T12:31:27Z</time>
      </trkpt>
      <trkpt lat="45.52867" lon="4.61392">
        <ele>249.12</ele>
        <time>2021-06-17T12:31:29Z</time>
      </trkpt>
      <trkpt lat="45.52866" lon="4.61389">
        <ele>249.12</ele>
        <time>2021-06-17T12:31:30Z</time>
      </trkpt>
      <trkpt lat="45.52863" lon="4.61387">
        <ele>249.12</ele>
        <time>2021-06-17T12:31:31Z</time>
      </trkpt>
      <trkpt lat="45.52856" lon="4.61383">
        <ele>249.12</ele>
        <time>2021-06-17T12:31:33Z</time>
      </trkpt>
      <trkpt lat="45.52852" lon="4.61379">
        <ele>249.12</ele>
        <time>2021-06-17T12:31:34Z</time>
      </trkpt>
      <trkpt lat="45.52806" lon="4.61324">
        <ele>248.64</ele>
        <time>2021-06-17T12:31:48Z</time>
      </trkpt>
      <trkpt lat="45.52788" lon="4.61302">
        <ele>249.6</ele>
        <time>2021-06-17T12:31:55Z</time>
      </trkpt>
      <trkpt lat="45.5274" lon="4.61243">
        <ele>250.08</ele>
        <time>2021-06-17T12:32:08Z</time>
      </trkpt>
      <trkpt lat="45.52738" lon="4.61237">
        <ele>249.6</ele>
        <time>2021-06-17T12:32:09Z</time>
      </trkpt>
      <trkpt lat="45.52733" lon="4.61224">
        <ele>251.04</ele>
        <time>2021-06-17T12:32:11Z</time>
      </trkpt>
      <trkpt lat="45.52732" lon="4.61218">
        <ele>251.04</ele>
        <time>2021-06-17T12:32:12Z</time>
      </trkpt>
      <trkpt lat="45.52731" lon="4.61181">
        <ele>250.08</ele>
        <time>2021-06-17T12:32:20Z</time>
      </trkpt>
      <trkpt lat="45.52732" lon="4.61179">
        <ele>250.08</ele>
        <time>2021-06-17T12:32:21Z</time>
      </trkpt>
      <trkpt lat="45.52723" lon="4.61112">
        <ele>251.04</ele>
        <time>2021-06-17T12:32:33Z</time>
      </trkpt>
      <trkpt lat="45.52706" lon="4.61017">
        <ele>251.52</ele>
        <time>2021-06-17T12:32:47Z</time>
      </trkpt>
      <trkpt lat="45.52686" lon="4.60912">
        <ele>252.96</ele>
        <time>2021-06-17T12:33:04Z</time>
      </trkpt>
      <trkpt lat="45.5267" lon="4.60842">
        <ele>253.93</ele>
        <time>2021-06-17T12:33:15Z</time>
      </trkpt>
      <trkpt lat="45.52667" lon="4.60837">
        <ele>253.93</ele>
        <time>2021-06-17T12:33:16Z</time>
      </trkpt>
      <trkpt lat="45.52663" lon="4.60834">
        <ele>252.96</ele>
        <time>2021-06-17T12:33:17Z</time>
      </trkpt>
      <trkpt lat="45.52658" lon="4.60834">
        <ele>252.96</ele>
        <time>2021-06-17T12:33:18Z</time>
      </trkpt>
      <trkpt lat="45.52654" lon="4.60836">
        <ele>253.44</ele>
        <time>2021-06-17T12:33:19Z</time>
      </trkpt>
      <trkpt lat="45.52649" lon="4.6084">
        <ele>253.93</ele>
        <time>2021-06-17T12:33:20Z</time>
      </trkpt>
      <trkpt lat="45.52644" lon="4.60843">
        <ele>252.96</ele>
        <time>2021-06-17T12:33:21Z</time>
      </trkpt>
      <trkpt lat="45.52594" lon="4.60874">
        <ele>252</ele>
        <time>2021-06-17T12:33:31Z</time>
      </trkpt>
      <trkpt lat="45.5259" lon="4.60875">
        <ele>252</ele>
        <time>2021-06-17T12:33:32Z</time>
      </trkpt>
      <trkpt lat="45.52585" lon="4.60874">
        <ele>251.52</ele>
        <time>2021-06-17T12:33:33Z</time>
      </trkpt>
      <trkpt lat="45.52581" lon="4.60871">
        <ele>251.52</ele>
        <time>2021-06-17T12:33:34Z</time>
      </trkpt>
      <trkpt lat="45.52578" lon="4.60866">
        <ele>251.04</ele>
        <time>2021-06-17T12:33:35Z</time>
      </trkpt>
      <trkpt lat="45.52575" lon="4.60859">
        <ele>251.52</ele>
        <time>2021-06-17T12:33:36Z</time>
      </trkpt>
      <trkpt lat="45.52573" lon="4.60851">
        <ele>251.52</ele>
        <time>2021-06-17T12:33:37Z</time>
      </trkpt>
      <trkpt lat="45.52571" lon="4.60843">
        <ele>252</ele>
        <time>2021-06-17T12:33:38Z</time>
      </trkpt>
      <trkpt lat="45.52535" lon="4.6072">
        <ele>252</ele>
        <time>2021-06-17T12:33:56Z</time>
      </trkpt>
      <trkpt lat="45.52523" lon="4.60588">
        <ele>253.44</ele>
        <time>2021-06-17T12:34:14Z</time>
      </trkpt>
      <trkpt lat="45.52518" lon="4.60469">
        <ele>254.89</ele>
        <time>2021-06-17T12:34:31Z</time>
      </trkpt>
      <trkpt lat="45.52502" lon="4.60357">
        <ele>256.81</ele>
        <time>2021-06-17T12:34:48Z</time>
      </trkpt>
      <trkpt lat="45.52464" lon="4.6026">
        <ele>257.29</ele>
        <time>2021-06-17T12:35:04Z</time>
      </trkpt>
      <trkpt lat="45.52414" lon="4.60137">
        <ele>257.29</ele>
        <time>2021-06-17T12:35:24Z</time>
      </trkpt>
      <trkpt lat="45.52373" lon="4.60036">
        <ele>258.25</ele>
        <time>2021-06-17T12:35:40Z</time>
      </trkpt>
      <trkpt lat="45.5233" lon="4.59894">
        <ele>257.29</ele>
        <time>2021-06-17T12:35:59Z</time>
      </trkpt>
      <trkpt lat="45.52326" lon="4.59781">
        <ele>259.21</ele>
        <time>2021-06-17T12:36:15Z</time>
      </trkpt>
      <trkpt lat="45.52323" lon="4.59767">
        <ele>258.73</ele>
        <time>2021-06-17T12:36:17Z</time>
      </trkpt>
      <trkpt lat="45.52322" lon="4.5976">
        <ele>258.73</ele>
        <time>2021-06-17T12:36:18Z</time>
      </trkpt>
      <trkpt lat="45.52284" lon="4.5965">
        <ele>259.69</ele>
        <time>2021-06-17T12:36:35Z</time>
      </trkpt>
      <trkpt lat="45.52282" lon="4.59644">
        <ele>259.69</ele>
        <time>2021-06-17T12:36:36Z</time>
      </trkpt>
      <trkpt lat="45.52233" lon="4.59547">
        <ele>260.17</ele>
        <time>2021-06-17T12:36:53Z</time>
      </trkpt>
      <trkpt lat="45.52163" lon="4.5945">
        <ele>260.65</ele>
        <time>2021-06-17T12:37:12Z</time>
      </trkpt>
      <trkpt lat="45.52108" lon="4.594">
        <ele>262.1</ele>
        <time>2021-06-17T12:37:28Z</time>
      </trkpt>
      <trkpt lat="45.52064" lon="4.59363">
        <ele>264.98</ele>
        <time>2021-06-17T12:37:42Z</time>
      </trkpt>
      <trkpt lat="45.52034" lon="4.59345">
        <ele>268.35</ele>
        <time>2021-06-17T12:37:54Z</time>
      </trkpt>
      <trkpt lat="45.52021" lon="4.59322">
        <ele>269.31</ele>
        <time>2021-06-17T12:38:04Z</time>
      </trkpt>
      <trkpt lat="45.5204" lon="4.59273">
        <ele>268.83</ele>
        <time>2021-06-17T12:38:14Z</time>
      </trkpt>
      <trkpt lat="45.52042" lon="4.59266">
        <ele>268.35</ele>
        <time>2021-06-17T12:38:15Z</time>
      </trkpt>
      <trkpt lat="45.52042" lon="4.59259">
        <ele>268.35</ele>
        <time>2021-06-17T12:38:16Z</time>
      </trkpt>
      <trkpt lat="45.5204" lon="4.59252">
        <ele>267.86</ele>
        <time>2021-06-17T12:38:17Z</time>
      </trkpt>
      <trkpt lat="45.52036" lon="4.59246">
        <ele>267.86</ele>
        <time>2021-06-17T12:38:18Z</time>
      </trkpt>
      <trkpt lat="45.52032" lon="4.5924">
        <ele>267.86</ele>
        <time>2021-06-17T12:38:19Z</time>
      </trkpt>
      <trkpt lat="45.52027" lon="4.59234">
        <ele>267.38</ele>
        <time>2021-06-17T12:38:20Z</time>
      </trkpt>
      <trkpt lat="45.52022" lon="4.59229">
        <ele>266.9</ele>
        <time>2021-06-17T12:38:21Z</time>
      </trkpt>
      <trkpt lat="45.52016" lon="4.59224">
        <ele>267.38</ele>
        <time>2021-06-17T12:38:22Z</time>
      </trkpt>
      <trkpt lat="45.5201" lon="4.59218">
        <ele>266.42</ele>
        <time>2021-06-17T12:38:23Z</time>
      </trkpt>
      <trkpt lat="45.51999" lon="4.59204">
        <ele>265.46</ele>
        <time>2021-06-17T12:38:25Z</time>
      </trkpt>
      <trkpt lat="45.51993" lon="4.59196">
        <ele>265.46</ele>
        <time>2021-06-17T12:38:26Z</time>
      </trkpt>
      <trkpt lat="45.51933" lon="4.59121">
        <ele>264.5</ele>
        <time>2021-06-17T12:38:37Z</time>
      </trkpt>
      <trkpt lat="45.5187" lon="4.5906">
        <ele>265.94</ele>
        <time>2021-06-17T12:38:52Z</time>
      </trkpt>
      <trkpt lat="45.51817" lon="4.59006">
        <ele>266.9</ele>
        <time>2021-06-17T12:39:06Z</time>
      </trkpt>
      <trkpt lat="45.51814" lon="4.59001">
        <ele>266.42</ele>
        <time>2021-06-17T12:39:07Z</time>
      </trkpt>
      <trkpt lat="45.51798" lon="4.58968">
        <ele>266.9</ele>
        <time>2021-06-17T12:39:13Z</time>
      </trkpt>
      <trkpt lat="45.51756" lon="4.58843">
        <ele>268.35</ele>
        <time>2021-06-17T12:39:34Z</time>
      </trkpt>
      <trkpt lat="45.51738" lon="4.5877">
        <ele>269.31</ele>
        <time>2021-06-17T12:39:49Z</time>
      </trkpt>
      <trkpt lat="45.51725" lon="4.58696">
        <ele>270.27</ele>
        <time>2021-06-17T12:40:02Z</time>
      </trkpt>
      <trkpt lat="45.517" lon="4.58585">
        <ele>270.75</ele>
        <time>2021-06-17T12:40:18Z</time>
      </trkpt>
      <trkpt lat="45.51675" lon="4.58481">
        <ele>271.23</ele>
        <time>2021-06-17T12:40:33Z</time>
      </trkpt>
      <trkpt lat="45.51654" lon="4.58382">
        <ele>271.71</ele>
        <time>2021-06-17T12:40:47Z</time>
      </trkpt>
      <trkpt lat="45.51635" lon="4.58276">
        <ele>272.19</ele>
        <time>2021-06-17T12:41:02Z</time>
      </trkpt>
      <trkpt lat="45.51633" lon="4.58269">
        <ele>272.19</ele>
        <time>2021-06-17T12:41:03Z</time>
      </trkpt>
      <trkpt lat="45.5161" lon="4.58164">
        <ele>273.63</ele>
        <time>2021-06-17T12:41:19Z</time>
      </trkpt>
      <trkpt lat="45.51588" lon="4.58037">
        <ele>276.04</ele>
        <time>2021-06-17T12:41:41Z</time>
      </trkpt>
      <trkpt lat="45.51588" lon="4.58025">
        <ele>277.48</ele>
        <time>2021-06-17T12:41:44Z</time>
      </trkpt>
      <trkpt lat="45.51588" lon="4.57981">
        <ele>280.36</ele>
        <time>2021-06-17T12:41:55Z</time>
      </trkpt>
      <trkpt lat="45.51586" lon="4.57979">
        <ele>280.36</ele>
        <time>2021-06-17T12:41:56Z</time>
      </trkpt>
      <trkpt lat="45.51584" lon="4.57977">
        <ele>280.84</ele>
        <time>2021-06-17T12:41:57Z</time>
      </trkpt>
      <trkpt lat="45.51581" lon="4.57976">
        <ele>280.84</ele>
        <time>2021-06-17T12:41:58Z</time>
      </trkpt>
      <trkpt lat="45.51578" lon="4.57976">
        <ele>281.32</ele>
        <time>2021-06-17T12:41:59Z</time>
      </trkpt>
      <trkpt lat="45.51575" lon="4.57976">
        <ele>281.32</ele>
        <time>2021-06-17T12:42:00Z</time>
      </trkpt>
      <trkpt lat="45.51572" lon="4.57977">
        <ele>281.32</ele>
        <time>2021-06-17T12:42:01Z</time>
      </trkpt>
      <trkpt lat="45.51569" lon="4.57979">
        <ele>281.32</ele>
        <time>2021-06-17T12:42:02Z</time>
      </trkpt>
      <trkpt lat="45.51566" lon="4.5798">
        <ele>281.32</ele>
        <time>2021-06-17T12:42:03Z</time>
      </trkpt>
      <trkpt lat="45.51519" lon="4.57993">
        <ele>281.32</ele>
        <time>2021-06-17T12:42:16Z</time>
      </trkpt>
      <trkpt lat="45.51514" lon="4.57991">
        <ele>280.84</ele>
        <time>2021-06-17T12:42:17Z</time>
      </trkpt>
      <trkpt lat="45.51508" lon="4.57987">
        <ele>280.36</ele>
        <time>2021-06-17T12:42:18Z</time>
      </trkpt>
      <trkpt lat="45.51502" lon="4.57981">
        <ele>279.88</ele>
        <time>2021-06-17T12:42:19Z</time>
      </trkpt>
      <trkpt lat="45.51496" lon="4.57973">
        <ele>279.88</ele>
        <time>2021-06-17T12:42:20Z</time>
      </trkpt>
      <trkpt lat="45.51491" lon="4.57964">
        <ele>279.88</ele>
        <time>2021-06-17T12:42:21Z</time>
      </trkpt>
      <trkpt lat="45.51487" lon="4.57956">
        <ele>279.88</ele>
        <time>2021-06-17T12:42:22Z</time>
      </trkpt>
      <trkpt lat="45.51483" lon="4.57947">
        <ele>279.4</ele>
        <time>2021-06-17T12:42:23Z</time>
      </trkpt>
      <trkpt lat="45.51453" lon="4.57864">
        <ele>279.88</ele>
        <time>2021-06-17T12:42:35Z</time>
      </trkpt>
      <trkpt lat="45.51432" lon="4.57782">
        <ele>281.8</ele>
        <time>2021-06-17T12:42:50Z</time>
      </trkpt>
      <trkpt lat="45.51399" lon="4.57704">
        <ele>284.69</ele>
        <time>2021-06-17T12:43:08Z</time>
      </trkpt>
      <trkpt lat="45.51368" lon="4.57642">
        <ele>286.13</ele>
        <time>2021-06-17T12:43:23Z</time>
      </trkpt>
      <trkpt lat="45.51336" lon="4.57556">
        <ele>287.57</ele>
        <time>2021-06-17T12:43:41Z</time>
      </trkpt>
      <trkpt lat="45.5133" lon="4.57542">
        <ele>287.09</ele>
        <time>2021-06-17T12:43:44Z</time>
      </trkpt>
      <trkpt lat="45.51327" lon="4.57538">
        <ele>288.05</ele>
        <time>2021-06-17T12:43:45Z</time>
      </trkpt>
      <trkpt lat="45.51324" lon="4.57534">
        <ele>288.05</ele>
        <time>2021-06-17T12:43:46Z</time>
      </trkpt>
      <trkpt lat="45.51261" lon="4.57473">
        <ele>288.05</ele>
        <time>2021-06-17T12:44:04Z</time>
      </trkpt>
      <trkpt lat="45.51193" lon="4.57382">
        <ele>289.49</ele>
        <time>2021-06-17T12:44:25Z</time>
      </trkpt>
      <trkpt lat="45.51139" lon="4.57331">
        <ele>291.42</ele>
        <time>2021-06-17T12:44:40Z</time>
      </trkpt>
      <trkpt lat="45.5107" lon="4.57271">
        <ele>292.86</ele>
        <time>2021-06-17T12:44:59Z</time>
      </trkpt>
      <trkpt lat="45.51066" lon="4.57267">
        <ele>292.86</ele>
        <time>2021-06-17T12:45:00Z</time>
      </trkpt>
      <trkpt lat="45.51034" lon="4.57235">
        <ele>293.34</ele>
        <time>2021-06-17T12:45:09Z</time>
      </trkpt>
      <trkpt lat="45.51031" lon="4.57231">
        <ele>293.34</ele>
        <time>2021-06-17T12:45:10Z</time>
      </trkpt>
      <trkpt lat="45.51002" lon="4.57183">
        <ele>292.38</ele>
        <time>2021-06-17T12:45:19Z</time>
      </trkpt>
      <trkpt lat="45.50998" lon="4.57179">
        <ele>292.86</ele>
        <time>2021-06-17T12:45:20Z</time>
      </trkpt>
      <trkpt lat="45.50926" lon="4.57126">
        <ele>292.86</ele>
        <time>2021-06-17T12:45:36Z</time>
      </trkpt>
      <trkpt lat="45.50855" lon="4.57076">
        <ele>293.82</ele>
        <time>2021-06-17T12:45:53Z</time>
      </trkpt>
      <trkpt lat="45.50778" lon="4.5703">
        <ele>294.3</ele>
        <time>2021-06-17T12:46:11Z</time>
      </trkpt>
      <trkpt lat="45.50752" lon="4.57017">
        <ele>294.3</ele>
        <time>2021-06-17T12:46:17Z</time>
      </trkpt>
      <trkpt lat="45.50747" lon="4.57016">
        <ele>294.3</ele>
        <time>2021-06-17T12:46:18Z</time>
      </trkpt>
      <trkpt lat="45.50742" lon="4.57015">
        <ele>294.3</ele>
        <time>2021-06-17T12:46:19Z</time>
      </trkpt>
      <trkpt lat="45.50683" lon="4.57023">
        <ele>296.7</ele>
        <time>2021-06-17T12:46:33Z</time>
      </trkpt>
      <trkpt lat="45.50647" lon="4.57015">
        <ele>299.11</ele>
        <time>2021-06-17T12:46:44Z</time>
      </trkpt>
      <trkpt lat="45.50605" lon="4.56984">
        <ele>301.99</ele>
        <time>2021-06-17T12:46:58Z</time>
      </trkpt>
      <trkpt lat="45.50548" lon="4.56932">
        <ele>302.47</ele>
        <time>2021-06-17T12:47:15Z</time>
      </trkpt>
      <trkpt lat="45.50483" lon="4.56866">
        <ele>301.51</ele>
        <time>2021-06-17T12:47:32Z</time>
      </trkpt>
      <trkpt lat="45.50412" lon="4.56795">
        <ele>298.15</ele>
        <time>2021-06-17T12:47:49Z</time>
      </trkpt>
      <trkpt lat="45.5041" lon="4.56789">
        <ele>298.15</ele>
        <time>2021-06-17T12:47:51Z</time>
      </trkpt>
      <trkpt lat="45.50409" lon="4.56784">
        <ele>297.67</ele>
        <time>2021-06-17T12:47:57Z</time>
      </trkpt>
      <trkpt lat="45.5041" lon="4.56781">
        <ele>298.15</ele>
        <time>2021-06-17T12:47:58Z</time>
      </trkpt>
      <trkpt lat="45.50412" lon="4.56777">
        <ele>297.67</ele>
        <time>2021-06-17T12:47:59Z</time>
      </trkpt>
      <trkpt lat="45.50448" lon="4.56708">
        <ele>298.63</ele>
        <time>2021-06-17T12:48:13Z</time>
      </trkpt>
      <trkpt lat="45.50476" lon="4.56664">
        <ele>297.67</ele>
        <time>2021-06-17T12:48:26Z</time>
      </trkpt>
      <trkpt lat="45.50496" lon="4.56651">
        <ele>298.15</ele>
        <time>2021-06-17T12:48:32Z</time>
      </trkpt>
      <trkpt lat="45.50501" lon="4.56649">
        <ele>298.15</ele>
        <time>2021-06-17T12:48:33Z</time>
      </trkpt>
      <trkpt lat="45.50506" lon="4.56647">
        <ele>298.15</ele>
        <time>2021-06-17T12:48:34Z</time>
      </trkpt>
      <trkpt lat="45.50512" lon="4.56646">
        <ele>297.67</ele>
        <time>2021-06-17T12:48:35Z</time>
      </trkpt>
      <trkpt lat="45.50518" lon="4.56646">
        <ele>297.67</ele>
        <time>2021-06-17T12:48:36Z</time>
      </trkpt>
      <trkpt lat="45.50524" lon="4.56647">
        <ele>297.67</ele>
        <time>2021-06-17T12:48:37Z</time>
      </trkpt>
      <trkpt lat="45.5053" lon="4.56647">
        <ele>297.18</ele>
        <time>2021-06-17T12:48:38Z</time>
      </trkpt>
      <trkpt lat="45.5063" lon="4.56679">
        <ele>295.74</ele>
        <time>2021-06-17T12:48:54Z</time>
      </trkpt>
      <trkpt lat="45.50659" lon="4.56686">
        <ele>294.78</ele>
        <time>2021-06-17T12:48:59Z</time>
      </trkpt>
      <trkpt lat="45.50662" lon="4.56683">
        <ele>294.78</ele>
        <time>2021-06-17T12:49:00Z</time>
      </trkpt>
      <trkpt lat="45.50665" lon="4.56678">
        <ele>294.78</ele>
        <time>2021-06-17T12:49:01Z</time>
      </trkpt>
      <trkpt lat="45.50665" lon="4.56672">
        <ele>294.78</ele>
        <time>2021-06-17T12:49:02Z</time>
      </trkpt>
      <trkpt lat="45.50664" lon="4.56664">
        <ele>294.78</ele>
        <time>2021-06-17T12:49:03Z</time>
      </trkpt>
      <trkpt lat="45.50662" lon="4.56657">
        <ele>293.82</ele>
        <time>2021-06-17T12:49:04Z</time>
      </trkpt>
      <trkpt lat="45.50659" lon="4.5665">
        <ele>294.3</ele>
        <time>2021-06-17T12:49:05Z</time>
      </trkpt>
      <trkpt lat="45.50654" lon="4.56644">
        <ele>294.3</ele>
        <time>2021-06-17T12:49:06Z</time>
      </trkpt>
      <trkpt lat="45.50648" lon="4.5664">
        <ele>293.82</ele>
        <time>2021-06-17T12:49:07Z</time>
      </trkpt>
      <trkpt lat="45.50643" lon="4.56636">
        <ele>294.3</ele>
        <time>2021-06-17T12:49:08Z</time>
      </trkpt>
      <trkpt lat="45.50545" lon="4.56575">
        <ele>293.82</ele>
        <time>2021-06-17T12:49:26Z</time>
      </trkpt>
      <trkpt lat="45.5047" lon="4.56529">
        <ele>294.78</ele>
        <time>2021-06-17T12:49:41Z</time>
      </trkpt>
      <trkpt lat="45.50386" lon="4.56463">
        <ele>294.3</ele>
        <time>2021-06-17T12:49:58Z</time>
      </trkpt>
      <trkpt lat="45.50368" lon="4.56434">
        <ele>294.78</ele>
        <time>2021-06-17T12:50:03Z</time>
      </trkpt>
      <trkpt lat="45.50365" lon="4.56427">
        <ele>294.78</ele>
        <time>2021-06-17T12:50:04Z</time>
      </trkpt>
      <trkpt lat="45.50364" lon="4.5642">
        <ele>294.78</ele>
        <time>2021-06-17T12:50:05Z</time>
      </trkpt>
      <trkpt lat="45.50364" lon="4.56413">
        <ele>295.26</ele>
        <time>2021-06-17T12:50:06Z</time>
      </trkpt>
      <trkpt lat="45.50364" lon="4.56405">
        <ele>295.26</ele>
        <time>2021-06-17T12:50:07Z</time>
      </trkpt>
      <trkpt lat="45.50366" lon="4.56398">
        <ele>295.26</ele>
        <time>2021-06-17T12:50:08Z</time>
      </trkpt>
      <trkpt lat="45.50368" lon="4.56392">
        <ele>295.26</ele>
        <time>2021-06-17T12:50:09Z</time>
      </trkpt>
      <trkpt lat="45.5037" lon="4.56387">
        <ele>295.26</ele>
        <time>2021-06-17T12:50:10Z</time>
      </trkpt>
      <trkpt lat="45.50373" lon="4.56382">
        <ele>295.74</ele>
        <time>2021-06-17T12:50:11Z</time>
      </trkpt>
      <trkpt lat="45.50389" lon="4.56351">
        <ele>296.22</ele>
        <time>2021-06-17T12:50:17Z</time>
      </trkpt>
      <trkpt lat="45.5039" lon="4.56346">
        <ele>296.7</ele>
        <time>2021-06-17T12:50:18Z</time>
      </trkpt>
      <trkpt lat="45.50391" lon="4.56341">
        <ele>297.18</ele>
        <time>2021-06-17T12:50:19Z</time>
      </trkpt>
      <trkpt lat="45.50391" lon="4.56335">
        <ele>297.67</ele>
        <time>2021-06-17T12:50:20Z</time>
      </trkpt>
      <trkpt lat="45.5039" lon="4.5633">
        <ele>297.67</ele>
        <time>2021-06-17T12:50:21Z</time>
      </trkpt>
      <trkpt lat="45.50389" lon="4.56325">
        <ele>298.15</ele>
        <time>2021-06-17T12:50:22Z</time>
      </trkpt>
      <trkpt lat="45.50386" lon="4.5632">
        <ele>297.67</ele>
        <time>2021-06-17T12:50:23Z</time>
      </trkpt>
      <trkpt lat="45.50384" lon="4.56316">
        <ele>298.15</ele>
        <time>2021-06-17T12:50:24Z</time>
      </trkpt>
      <trkpt lat="45.50381" lon="4.56312">
        <ele>298.63</ele>
        <time>2021-06-17T12:50:25Z</time>
      </trkpt>
      <trkpt lat="45.50378" lon="4.56308">
        <ele>298.63</ele>
        <time>2021-06-17T12:50:26Z</time>
      </trkpt>
      <trkpt lat="45.50371" lon="4.56302">
        <ele>299.59</ele>
        <time>2021-06-17T12:50:28Z</time>
      </trkpt>
      <trkpt lat="45.50325" lon="4.5627">
        <ele>301.03</ele>
        <time>2021-06-17T12:50:40Z</time>
      </trkpt>
      <trkpt lat="45.50261" lon="4.56231">
        <ele>302.47</ele>
        <time>2021-06-17T12:50:56Z</time>
      </trkpt>
      <trkpt lat="45.50217" lon="4.56204">
        <ele>301.51</ele>
        <time>2021-06-17T12:51:06Z</time>
      </trkpt>
      <trkpt lat="45.50213" lon="4.562">
        <ele>301.51</ele>
        <time>2021-06-17T12:51:07Z</time>
      </trkpt>
      <trkpt lat="45.50128" lon="4.561">
        <ele>299.59</ele>
        <time>2021-06-17T12:51:25Z</time>
      </trkpt>
      <trkpt lat="45.50049" lon="4.56022">
        <ele>300.07</ele>
        <time>2021-06-17T12:51:42Z</time>
      </trkpt>
      <trkpt lat="45.49953" lon="4.55949">
        <ele>301.03</ele>
        <time>2021-06-17T12:52:03Z</time>
      </trkpt>
      <trkpt lat="45.49875" lon="4.55898">
        <ele>303.43</ele>
        <time>2021-06-17T12:52:21Z</time>
      </trkpt>
      <trkpt lat="45.49823" lon="4.55869">
        <ele>303.91</ele>
        <time>2021-06-17T12:52:33Z</time>
      </trkpt>
      <trkpt lat="45.49818" lon="4.55865">
        <ele>303.43</ele>
        <time>2021-06-17T12:52:34Z</time>
      </trkpt>
      <trkpt lat="45.49814" lon="4.55862">
        <ele>303.91</ele>
        <time>2021-06-17T12:52:35Z</time>
      </trkpt>
      <trkpt lat="45.49811" lon="4.55857">
        <ele>303.91</ele>
        <time>2021-06-17T12:52:36Z</time>
      </trkpt>
      <trkpt lat="45.49808" lon="4.55852">
        <ele>303.91</ele>
        <time>2021-06-17T12:52:37Z</time>
      </trkpt>
      <trkpt lat="45.49806" lon="4.55846">
        <ele>303.91</ele>
        <time>2021-06-17T12:52:38Z</time>
      </trkpt>
      <trkpt lat="45.49804" lon="4.55839">
        <ele>303.91</ele>
        <time>2021-06-17T12:52:39Z</time>
      </trkpt>
      <trkpt lat="45.49777" lon="4.55743">
        <ele>306.32</ele>
        <time>2021-06-17T12:52:55Z</time>
      </trkpt>
      <trkpt lat="45.49776" lon="4.55737">
        <ele>305.84</ele>
        <time>2021-06-17T12:52:56Z</time>
      </trkpt>
      <trkpt lat="45.49768" lon="4.55715">
        <ele>306.32</ele>
        <time>2021-06-17T12:53:00Z</time>
      </trkpt>
      <trkpt lat="45.49766" lon="4.5571">
        <ele>306.32</ele>
        <time>2021-06-17T12:53:01Z</time>
      </trkpt>
      <trkpt lat="45.49764" lon="4.55705">
        <ele>306.32</ele>
        <time>2021-06-17T12:53:02Z</time>
      </trkpt>
      <trkpt lat="45.49743" lon="4.55669">
        <ele>306.8</ele>
        <time>2021-06-17T12:53:10Z</time>
      </trkpt>
      <trkpt lat="45.49739" lon="4.55665">
        <ele>306.8</ele>
        <time>2021-06-17T12:53:11Z</time>
      </trkpt>
      <trkpt lat="45.49708" lon="4.55635">
        <ele>306.32</ele>
        <time>2021-06-17T12:53:19Z</time>
      </trkpt>
      <trkpt lat="45.49704" lon="4.55633">
        <ele>306.32</ele>
        <time>2021-06-17T12:53:20Z</time>
      </trkpt>
      <trkpt lat="45.49699" lon="4.55632">
        <ele>307.28</ele>
        <time>2021-06-17T12:53:21Z</time>
      </trkpt>
      <trkpt lat="45.49694" lon="4.55633">
        <ele>306.8</ele>
        <time>2021-06-17T12:53:22Z</time>
      </trkpt>
      <trkpt lat="45.4969" lon="4.55636">
        <ele>306.8</ele>
        <time>2021-06-17T12:53:23Z</time>
      </trkpt>
      <trkpt lat="45.49686" lon="4.5564">
        <ele>306.8</ele>
        <time>2021-06-17T12:53:24Z</time>
      </trkpt>
      <trkpt lat="45.49683" lon="4.55645">
        <ele>306.8</ele>
        <time>2021-06-17T12:53:25Z</time>
      </trkpt>
      <trkpt lat="45.4968" lon="4.5565">
        <ele>307.28</ele>
        <time>2021-06-17T12:53:26Z</time>
      </trkpt>
      <trkpt lat="45.49674" lon="4.55659">
        <ele>307.28</ele>
        <time>2021-06-17T12:53:28Z</time>
      </trkpt>
      <trkpt lat="45.49653" lon="4.55697">
        <ele>310.64</ele>
        <time>2021-06-17T12:53:38Z</time>
      </trkpt>
      <trkpt lat="45.4962" lon="4.55752">
        <ele>308.72</ele>
        <time>2021-06-17T12:53:51Z</time>
      </trkpt>
      <trkpt lat="45.49617" lon="4.5576">
        <ele>308.24</ele>
        <time>2021-06-17T12:53:53Z</time>
      </trkpt>
      <trkpt lat="45.49618" lon="4.55767">
        <ele>308.24</ele>
        <time>2021-06-17T12:53:54Z</time>
      </trkpt>
      <trkpt lat="45.4962" lon="4.55773">
        <ele>307.76</ele>
        <time>2021-06-17T12:53:55Z</time>
      </trkpt>
      <trkpt lat="45.49625" lon="4.55778">
        <ele>307.28</ele>
        <time>2021-06-17T12:53:56Z</time>
      </trkpt>
      <trkpt lat="45.49631" lon="4.55783">
        <ele>306.8</ele>
        <time>2021-06-17T12:53:57Z</time>
      </trkpt>
      <trkpt lat="45.49638" lon="4.55786">
        <ele>306.32</ele>
        <time>2021-06-17T12:53:58Z</time>
      </trkpt>
      <trkpt lat="45.49646" lon="4.5579">
        <ele>305.84</ele>
        <time>2021-06-17T12:53:59Z</time>
      </trkpt>
      <trkpt lat="45.49652" lon="4.55796">
        <ele>305.84</ele>
        <time>2021-06-17T12:54:00Z</time>
      </trkpt>
      <trkpt lat="45.49658" lon="4.55804">
        <ele>305.36</ele>
        <time>2021-06-17T12:54:01Z</time>
      </trkpt>
      <trkpt lat="45.49677" lon="4.55839">
        <ele>304.88</ele>
        <time>2021-06-17T12:54:05Z</time>
      </trkpt>
      <trkpt lat="45.49694" lon="4.55899">
        <ele>303.91</ele>
        <time>2021-06-17T12:54:11Z</time>
      </trkpt>
      <trkpt lat="45.49697" lon="4.55906">
        <ele>303.43</ele>
        <time>2021-06-17T12:54:12Z</time>
      </trkpt>
      <trkpt lat="45.49701" lon="4.55912">
        <ele>302.95</ele>
        <time>2021-06-17T12:54:13Z</time>
      </trkpt>
      <trkpt lat="45.49707" lon="4.55915">
        <ele>302.95</ele>
        <time>2021-06-17T12:54:14Z</time>
      </trkpt>
      <trkpt lat="45.49713" lon="4.55917">
        <ele>302.95</ele>
        <time>2021-06-17T12:54:15Z</time>
      </trkpt>
      <trkpt lat="45.49719" lon="4.55917">
        <ele>302.95</ele>
        <time>2021-06-17T12:54:16Z</time>
      </trkpt>
      <trkpt lat="45.49725" lon="4.55916">
        <ele>302.47</ele>
        <time>2021-06-17T12:54:17Z</time>
      </trkpt>
      <trkpt lat="45.4973" lon="4.55915">
        <ele>302.47</ele>
        <time>2021-06-17T12:54:18Z</time>
      </trkpt>
      <trkpt lat="45.49736" lon="4.55911">
        <ele>302.95</ele>
        <time>2021-06-17T12:54:19Z</time>
      </trkpt>
      <trkpt lat="45.49741" lon="4.55908">
        <ele>302.47</ele>
        <time>2021-06-17T12:54:20Z</time>
      </trkpt>
      <trkpt lat="45.49762" lon="4.55898">
        <ele>302.47</ele>
        <time>2021-06-17T12:54:24Z</time>
      </trkpt>
      <trkpt lat="45.49767" lon="4.55898">
        <ele>302.47</ele>
        <time>2021-06-17T12:54:25Z</time>
      </trkpt>
      <trkpt lat="45.49773" lon="4.55901">
        <ele>302.95</ele>
        <time>2021-06-17T12:54:26Z</time>
      </trkpt>
      <trkpt lat="45.49778" lon="4.55905">
        <ele>302.47</ele>
        <time>2021-06-17T12:54:27Z</time>
      </trkpt>
      <trkpt lat="45.49782" lon="4.55911">
        <ele>302.95</ele>
        <time>2021-06-17T12:54:28Z</time>
      </trkpt>
      <trkpt lat="45.49787" lon="4.55917">
        <ele>302.95</ele>
        <time>2021-06-17T12:54:29Z</time>
      </trkpt>
      <trkpt lat="45.49875" lon="4.56028">
        <ele>301.03</ele>
        <time>2021-06-17T12:54:46Z</time>
      </trkpt>
      <trkpt lat="45.49966" lon="4.56142">
        <ele>299.59</ele>
        <time>2021-06-17T12:55:03Z</time>
      </trkpt>
      <trkpt lat="45.50053" lon="4.56248">
        <ele>298.63</ele>
        <time>2021-06-17T12:55:20Z</time>
      </trkpt>
      <trkpt lat="45.50138" lon="4.56354">
        <ele>298.15</ele>
        <time>2021-06-17T12:55:37Z</time>
      </trkpt>
      <trkpt lat="45.50228" lon="4.5646">
        <ele>296.22</ele>
        <time>2021-06-17T12:55:54Z</time>
      </trkpt>
      <trkpt lat="45.50255" lon="4.56493">
        <ele>295.74</ele>
        <time>2021-06-17T12:55:59Z</time>
      </trkpt>
      <trkpt lat="45.50259" lon="4.56501">
        <ele>295.26</ele>
        <time>2021-06-17T12:56:00Z</time>
      </trkpt>
      <trkpt lat="45.50262" lon="4.56509">
        <ele>295.26</ele>
        <time>2021-06-17T12:56:01Z</time>
      </trkpt>
      <trkpt lat="45.50264" lon="4.56518">
        <ele>295.74</ele>
        <time>2021-06-17T12:56:02Z</time>
      </trkpt>
      <trkpt lat="45.50265" lon="4.56527">
        <ele>296.22</ele>
        <time>2021-06-17T12:56:03Z</time>
      </trkpt>
      <trkpt lat="45.50266" lon="4.56535">
        <ele>296.22</ele>
        <time>2021-06-17T12:56:04Z</time>
      </trkpt>
      <trkpt lat="45.50267" lon="4.56552">
        <ele>296.22</ele>
        <time>2021-06-17T12:56:06Z</time>
      </trkpt>
      <trkpt lat="45.50268" lon="4.5666">
        <ele>297.67</ele>
        <time>2021-06-17T12:56:19Z</time>
      </trkpt>
      <trkpt lat="45.5027" lon="4.56668">
        <ele>297.67</ele>
        <time>2021-06-17T12:56:20Z</time>
      </trkpt>
      <trkpt lat="45.50272" lon="4.56675">
        <ele>297.67</ele>
        <time>2021-06-17T12:56:21Z</time>
      </trkpt>
      <trkpt lat="45.50275" lon="4.5668">
        <ele>298.15</ele>
        <time>2021-06-17T12:56:22Z</time>
      </trkpt>
      <trkpt lat="45.50278" lon="4.56686">
        <ele>299.11</ele>
        <time>2021-06-17T12:56:23Z</time>
      </trkpt>
      <trkpt lat="45.50319" lon="4.56739">
        <ele>300.07</ele>
        <time>2021-06-17T12:56:33Z</time>
      </trkpt>
      <trkpt lat="45.50393" lon="4.56792">
        <ele>298.63</ele>
        <time>2021-06-17T12:56:50Z</time>
      </trkpt>
      <trkpt lat="45.50396" lon="4.56795">
        <ele>298.15</ele>
        <time>2021-06-17T12:56:51Z</time>
      </trkpt>
      <trkpt lat="45.50399" lon="4.56799">
        <ele>298.15</ele>
        <time>2021-06-17T12:56:52Z</time>
      </trkpt>
      <trkpt lat="45.504" lon="4.56804">
        <ele>298.15</ele>
        <time>2021-06-17T12:56:53Z</time>
      </trkpt>
      <trkpt lat="45.50399" lon="4.5681">
        <ele>298.15</ele>
        <time>2021-06-17T12:56:54Z</time>
      </trkpt>
      <trkpt lat="45.50399" lon="4.56817">
        <ele>297.67</ele>
        <time>2021-06-17T12:56:55Z</time>
      </trkpt>
      <trkpt lat="45.50398" lon="4.56823">
        <ele>298.15</ele>
        <time>2021-06-17T12:56:56Z</time>
      </trkpt>
      <trkpt lat="45.50377" lon="4.56858">
        <ele>298.63</ele>
        <time>2021-06-17T12:57:02Z</time>
      </trkpt>
      <trkpt lat="45.50374" lon="4.56862">
        <ele>299.11</ele>
        <time>2021-06-17T12:57:03Z</time>
      </trkpt>
      <trkpt lat="45.5037" lon="4.56865">
        <ele>299.59</ele>
        <time>2021-06-17T12:57:04Z</time>
      </trkpt>
      <trkpt lat="45.50361" lon="4.56872">
        <ele>300.07</ele>
        <time>2021-06-17T12:57:06Z</time>
      </trkpt>
      <trkpt lat="45.50358" lon="4.56876">
        <ele>300.55</ele>
        <time>2021-06-17T12:57:07Z</time>
      </trkpt>
      <trkpt lat="45.50355" lon="4.56881">
        <ele>300.07</ele>
        <time>2021-06-17T12:57:08Z</time>
      </trkpt>
      <trkpt lat="45.50353" lon="4.56886">
        <ele>301.03</ele>
        <time>2021-06-17T12:57:09Z</time>
      </trkpt>
      <trkpt lat="45.50352" lon="4.56892">
        <ele>301.03</ele>
        <time>2021-06-17T12:57:10Z</time>
      </trkpt>
      <trkpt lat="45.50352" lon="4.56897">
        <ele>301.51</ele>
        <time>2021-06-17T12:57:11Z</time>
      </trkpt>
      <trkpt lat="45.50355" lon="4.56902">
        <ele>301.99</ele>
        <time>2021-06-17T12:57:12Z</time>
      </trkpt>
      <trkpt lat="45.50358" lon="4.56906">
        <ele>301.51</ele>
        <time>2021-06-17T12:57:13Z</time>
      </trkpt>
      <trkpt lat="45.50361" lon="4.56908">
        <ele>301.51</ele>
        <time>2021-06-17T12:57:14Z</time>
      </trkpt>
      <trkpt lat="45.50366" lon="4.56909">
        <ele>301.51</ele>
        <time>2021-06-17T12:57:15Z</time>
      </trkpt>
      <trkpt lat="45.50371" lon="4.56907">
        <ele>301.99</ele>
        <time>2021-06-17T12:57:16Z</time>
      </trkpt>
      <trkpt lat="45.50375" lon="4.56902">
        <ele>301.51</ele>
        <time>2021-06-17T12:57:17Z</time>
      </trkpt>
      <trkpt lat="45.50377" lon="4.56895">
        <ele>301.51</ele>
        <time>2021-06-17T12:57:18Z</time>
      </trkpt>
      <trkpt lat="45.50379" lon="4.56887">
        <ele>301.51</ele>
        <time>2021-06-17T12:57:19Z</time>
      </trkpt>
      <trkpt lat="45.5038" lon="4.56879">
        <ele>301.03</ele>
        <time>2021-06-17T12:57:20Z</time>
      </trkpt>
      <trkpt lat="45.50382" lon="4.56862">
        <ele>300.07</ele>
        <time>2021-06-17T12:57:22Z</time>
      </trkpt>
      <trkpt lat="45.50384" lon="4.56853">
        <ele>299.59</ele>
        <time>2021-06-17T12:57:23Z</time>
      </trkpt>
      <trkpt lat="45.504" lon="4.56808">
        <ele>299.11</ele>
        <time>2021-06-17T12:57:28Z</time>
      </trkpt>
      <trkpt lat="45.50404" lon="4.56802">
        <ele>298.63</ele>
        <time>2021-06-17T12:57:29Z</time>
      </trkpt>
      <trkpt lat="45.50409" lon="4.568">
        <ele>298.63</ele>
        <time>2021-06-17T12:57:30Z</time>
      </trkpt>
      <trkpt lat="45.50415" lon="4.56801">
        <ele>298.15</ele>
        <time>2021-06-17T12:57:31Z</time>
      </trkpt>
      <trkpt lat="45.50421" lon="4.56805">
        <ele>298.15</ele>
        <time>2021-06-17T12:57:32Z</time>
      </trkpt>
      <trkpt lat="45.50426" lon="4.56809">
        <ele>298.15</ele>
        <time>2021-06-17T12:57:33Z</time>
      </trkpt>
      <trkpt lat="45.5043" lon="4.56813">
        <ele>298.63</ele>
        <time>2021-06-17T12:57:34Z</time>
      </trkpt>
      <trkpt lat="45.50435" lon="4.56819">
        <ele>299.11</ele>
        <time>2021-06-17T12:57:35Z</time>
      </trkpt>
      <trkpt lat="45.5051" lon="4.56897">
        <ele>301.03</ele>
        <time>2021-06-17T12:57:52Z</time>
      </trkpt>
      <trkpt lat="45.50586" lon="4.56967">
        <ele>301.99</ele>
        <time>2021-06-17T12:58:09Z</time>
      </trkpt>
      <trkpt lat="45.50651" lon="4.57019">
        <ele>300.07</ele>
        <time>2021-06-17T12:58:21Z</time>
      </trkpt>
      <trkpt lat="45.50659" lon="4.57022">
        <ele>299.59</ele>
        <time>2021-06-17T12:58:22Z</time>
      </trkpt>
      <trkpt lat="45.50667" lon="4.57024">
        <ele>299.11</ele>
        <time>2021-06-17T12:58:23Z</time>
      </trkpt>
      <trkpt lat="45.50675" lon="4.57025">
        <ele>298.63</ele>
        <time>2021-06-17T12:58:24Z</time>
      </trkpt>
      <trkpt lat="45.50684" lon="4.57025">
        <ele>298.15</ele>
        <time>2021-06-17T12:58:25Z</time>
      </trkpt>
      <trkpt lat="45.50692" lon="4.57024">
        <ele>298.15</ele>
        <time>2021-06-17T12:58:26Z</time>
      </trkpt>
      <trkpt lat="45.50701" lon="4.57022">
        <ele>297.18</ele>
        <time>2021-06-17T12:58:27Z</time>
      </trkpt>
      <trkpt lat="45.5071" lon="4.5702">
        <ele>297.18</ele>
        <time>2021-06-17T12:58:28Z</time>
      </trkpt>
      <trkpt lat="45.50738" lon="4.57017">
        <ele>294.78</ele>
        <time>2021-06-17T12:58:31Z</time>
      </trkpt>
      <trkpt lat="45.50748" lon="4.57019">
        <ele>294.78</ele>
        <time>2021-06-17T12:58:32Z</time>
      </trkpt>
      <trkpt lat="45.50757" lon="4.57022">
        <ele>294.78</ele>
        <time>2021-06-17T12:58:33Z</time>
      </trkpt>
      <trkpt lat="45.50766" lon="4.57026">
        <ele>294.3</ele>
        <time>2021-06-17T12:58:34Z</time>
      </trkpt>
      <trkpt lat="45.50775" lon="4.57031">
        <ele>294.3</ele>
        <time>2021-06-17T12:58:35Z</time>
      </trkpt>
      <trkpt lat="45.50876" lon="4.57093">
        <ele>293.34</ele>
        <time>2021-06-17T12:58:49Z</time>
      </trkpt>
      <trkpt lat="45.5097" lon="4.57161">
        <ele>292.38</ele>
        <time>2021-06-17T12:59:04Z</time>
      </trkpt>
      <trkpt lat="45.51016" lon="4.57206">
        <ele>291.42</ele>
        <time>2021-06-17T12:59:12Z</time>
      </trkpt>
      <trkpt lat="45.5102" lon="4.57213">
        <ele>292.38</ele>
        <time>2021-06-17T12:59:13Z</time>
      </trkpt>
      <trkpt lat="45.51024" lon="4.5722">
        <ele>292.38</ele>
        <time>2021-06-17T12:59:14Z</time>
      </trkpt>
      <trkpt lat="45.51027" lon="4.57227">
        <ele>292.38</ele>
        <time>2021-06-17T12:59:15Z</time>
      </trkpt>
      <trkpt lat="45.51029" lon="4.57234">
        <ele>292.38</ele>
        <time>2021-06-17T12:59:16Z</time>
      </trkpt>
      <trkpt lat="45.51031" lon="4.57241">
        <ele>292.38</ele>
        <time>2021-06-17T12:59:17Z</time>
      </trkpt>
      <trkpt lat="45.51033" lon="4.57247">
        <ele>291.9</ele>
        <time>2021-06-17T12:59:18Z</time>
      </trkpt>
      <trkpt lat="45.51037" lon="4.57252">
        <ele>292.38</ele>
        <time>2021-06-17T12:59:19Z</time>
      </trkpt>
      <trkpt lat="45.5104" lon="4.57255">
        <ele>291.9</ele>
        <time>2021-06-17T12:59:20Z</time>
      </trkpt>
      <trkpt lat="45.51045" lon="4.57257">
        <ele>292.38</ele>
        <time>2021-06-17T12:59:21Z</time>
      </trkpt>
      <trkpt lat="45.5105" lon="4.57258">
        <ele>292.38</ele>
        <time>2021-06-17T12:59:22Z</time>
      </trkpt>
      <trkpt lat="45.51055" lon="4.57261">
        <ele>292.38</ele>
        <time>2021-06-17T12:59:23Z</time>
      </trkpt>
      <trkpt lat="45.5106" lon="4.57265">
        <ele>292.38</ele>
        <time>2021-06-17T12:59:24Z</time>
      </trkpt>
      <trkpt lat="45.51065" lon="4.57269">
        <ele>292.38</ele>
        <time>2021-06-17T12:59:25Z</time>
      </trkpt>
      <trkpt lat="45.51151" lon="4.57346">
        <ele>291.42</ele>
        <time>2021-06-17T12:59:41Z</time>
      </trkpt>
      <trkpt lat="45.51252" lon="4.57462">
        <ele>288.53</ele>
        <time>2021-06-17T12:59:59Z</time>
      </trkpt>
      <trkpt lat="45.51326" lon="4.57542">
        <ele>288.05</ele>
        <time>2021-06-17T13:00:12Z</time>
      </trkpt>
      <trkpt lat="45.51331" lon="4.57549">
        <ele>287.57</ele>
        <time>2021-06-17T13:00:13Z</time>
      </trkpt>
      <trkpt lat="45.51336" lon="4.57557">
        <ele>287.09</ele>
        <time>2021-06-17T13:00:14Z</time>
      </trkpt>
      <trkpt lat="45.51339" lon="4.57565">
        <ele>287.57</ele>
        <time>2021-06-17T13:00:15Z</time>
      </trkpt>
      <trkpt lat="45.51389" lon="4.5769">
        <ele>285.65</ele>
        <time>2021-06-17T13:00:29Z</time>
      </trkpt>
      <trkpt lat="45.51393" lon="4.57699">
        <ele>285.65</ele>
        <time>2021-06-17T13:00:30Z</time>
      </trkpt>
      <trkpt lat="45.51398" lon="4.57707">
        <ele>285.17</ele>
        <time>2021-06-17T13:00:31Z</time>
      </trkpt>
      <trkpt lat="45.51442" lon="4.57821">
        <ele>282.28</ele>
        <time>2021-06-17T13:00:42Z</time>
      </trkpt>
      <trkpt lat="45.5149" lon="4.5796">
        <ele>279.4</ele>
        <time>2021-06-17T13:00:55Z</time>
      </trkpt>
      <trkpt lat="45.51494" lon="4.57969">
        <ele>279.4</ele>
        <time>2021-06-17T13:00:56Z</time>
      </trkpt>
      <trkpt lat="45.51499" lon="4.57978">
        <ele>279.4</ele>
        <time>2021-06-17T13:00:57Z</time>
      </trkpt>
      <trkpt lat="45.51504" lon="4.57985">
        <ele>279.4</ele>
        <time>2021-06-17T13:00:58Z</time>
      </trkpt>
      <trkpt lat="45.5151" lon="4.57991">
        <ele>279.4</ele>
        <time>2021-06-17T13:00:59Z</time>
      </trkpt>
      <trkpt lat="45.51517" lon="4.57995">
        <ele>279.88</ele>
        <time>2021-06-17T13:01:00Z</time>
      </trkpt>
      <trkpt lat="45.51523" lon="4.57998">
        <ele>279.4</ele>
        <time>2021-06-17T13:01:01Z</time>
      </trkpt>
      <trkpt lat="45.5153" lon="4.58">
        <ele>280.36</ele>
        <time>2021-06-17T13:01:02Z</time>
      </trkpt>
      <trkpt lat="45.51536" lon="4.57999">
        <ele>280.84</ele>
        <time>2021-06-17T13:01:03Z</time>
      </trkpt>
      <trkpt lat="45.51542" lon="4.57997">
        <ele>281.32</ele>
        <time>2021-06-17T13:01:04Z</time>
      </trkpt>
      <trkpt lat="45.51547" lon="4.57995">
        <ele>281.8</ele>
        <time>2021-06-17T13:01:05Z</time>
      </trkpt>
      <trkpt lat="45.51572" lon="4.57982">
        <ele>282.28</ele>
        <time>2021-06-17T13:01:10Z</time>
      </trkpt>
      <trkpt lat="45.51578" lon="4.57983">
        <ele>281.8</ele>
        <time>2021-06-17T13:01:11Z</time>
      </trkpt>
      <trkpt lat="45.51584" lon="4.57986">
        <ele>281.8</ele>
        <time>2021-06-17T13:01:12Z</time>
      </trkpt>
      <trkpt lat="45.51589" lon="4.57992">
        <ele>281.32</ele>
        <time>2021-06-17T13:01:13Z</time>
      </trkpt>
      <trkpt lat="45.51592" lon="4.58002">
        <ele>280.84</ele>
        <time>2021-06-17T13:01:14Z</time>
      </trkpt>
      <trkpt lat="45.51594" lon="4.58014">
        <ele>280.36</ele>
        <time>2021-06-17T13:01:15Z</time>
      </trkpt>
      <trkpt lat="45.51594" lon="4.58027">
        <ele>279.88</ele>
        <time>2021-06-17T13:01:16Z</time>
      </trkpt>
      <trkpt lat="45.51593" lon="4.58039">
        <ele>278.92</ele>
        <time>2021-06-17T13:01:17Z</time>
      </trkpt>
      <trkpt lat="45.51593" lon="4.58053">
        <ele>278.44</ele>
        <time>2021-06-17T13:01:18Z</time>
      </trkpt>
      <trkpt lat="45.51595" lon="4.58067">
        <ele>277.48</ele>
        <time>2021-06-17T13:01:19Z</time>
      </trkpt>
      <trkpt lat="45.51621" lon="4.58222">
        <ele>274.59</ele>
        <time>2021-06-17T13:01:31Z</time>
      </trkpt>
      <trkpt lat="45.51631" lon="4.58268">
        <ele>272.67</ele>
        <time>2021-06-17T13:01:35Z</time>
      </trkpt>
      <trkpt lat="45.51659" lon="4.58407">
        <ele>270.75</ele>
        <time>2021-06-17T13:01:49Z</time>
      </trkpt>
      <trkpt lat="45.51685" lon="4.58531">
        <ele>271.71</ele>
        <time>2021-06-17T13:02:03Z</time>
      </trkpt>
      <trkpt lat="45.51723" lon="4.58688">
        <ele>270.27</ele>
        <time>2021-06-17T13:02:21Z</time>
      </trkpt>
      <trkpt lat="45.51753" lon="4.58832">
        <ele>269.31</ele>
        <time>2021-06-17T13:02:37Z</time>
      </trkpt>
      <trkpt lat="45.51802" lon="4.58982">
        <ele>267.38</ele>
        <time>2021-06-17T13:02:54Z</time>
      </trkpt>
      <trkpt lat="45.51824" lon="4.59021">
        <ele>265.94</ele>
        <time>2021-06-17T13:02:59Z</time>
      </trkpt>
      <trkpt lat="45.5183" lon="4.59027">
        <ele>265.94</ele>
        <time>2021-06-17T13:03:00Z</time>
      </trkpt>
      <trkpt lat="45.51928" lon="4.59118">
        <ele>264.98</ele>
        <time>2021-06-17T13:03:17Z</time>
      </trkpt>
      <trkpt lat="45.51978" lon="4.59178">
        <ele>263.54</ele>
        <time>2021-06-17T13:03:27Z</time>
      </trkpt>
      <trkpt lat="45.51982" lon="4.59185">
        <ele>263.06</ele>
        <time>2021-06-17T13:03:28Z</time>
      </trkpt>
      <trkpt lat="45.51989" lon="4.59199">
        <ele>263.06</ele>
        <time>2021-06-17T13:03:30Z</time>
      </trkpt>
      <trkpt lat="45.51993" lon="4.59205">
        <ele>263.54</ele>
        <time>2021-06-17T13:03:31Z</time>
      </trkpt>
      <trkpt lat="45.51997" lon="4.59209">
        <ele>264.02</ele>
        <time>2021-06-17T13:03:32Z</time>
      </trkpt>
      <trkpt lat="45.52002" lon="4.59213">
        <ele>264.5</ele>
        <time>2021-06-17T13:03:33Z</time>
      </trkpt>
      <trkpt lat="45.52006" lon="4.59218">
        <ele>264.5</ele>
        <time>2021-06-17T13:03:34Z</time>
      </trkpt>
      <trkpt lat="45.5201" lon="4.59222">
        <ele>264.98</ele>
        <time>2021-06-17T13:03:35Z</time>
      </trkpt>
      <trkpt lat="45.52014" lon="4.59227">
        <ele>264.5</ele>
        <time>2021-06-17T13:03:36Z</time>
      </trkpt>
      <trkpt lat="45.52036" lon="4.59255">
        <ele>265.94</ele>
        <time>2021-06-17T13:03:42Z</time>
      </trkpt>
      <trkpt lat="45.52038" lon="4.59262">
        <ele>265.94</ele>
        <time>2021-06-17T13:03:43Z</time>
      </trkpt>
      <trkpt lat="45.52038" lon="4.59269">
        <ele>266.42</ele>
        <time>2021-06-17T13:03:44Z</time>
      </trkpt>
      <trkpt lat="45.52037" lon="4.59275">
        <ele>266.9</ele>
        <time>2021-06-17T13:03:45Z</time>
      </trkpt>
      <trkpt lat="45.52036" lon="4.59282">
        <ele>266.9</ele>
        <time>2021-06-17T13:03:46Z</time>
      </trkpt>
      <trkpt lat="45.52033" lon="4.59288">
        <ele>267.38</ele>
        <time>2021-06-17T13:03:47Z</time>
      </trkpt>
      <trkpt lat="45.5203" lon="4.59293">
        <ele>267.38</ele>
        <time>2021-06-17T13:03:48Z</time>
      </trkpt>
      <trkpt lat="45.52027" lon="4.59298">
        <ele>267.86</ele>
        <time>2021-06-17T13:03:49Z</time>
      </trkpt>
      <trkpt lat="45.52012" lon="4.59322">
        <ele>268.83</ele>
        <time>2021-06-17T13:03:54Z</time>
      </trkpt>
      <trkpt lat="45.52007" lon="4.59324">
        <ele>268.83</ele>
        <time>2021-06-17T13:03:55Z</time>
      </trkpt>
      <trkpt lat="45.52003" lon="4.59326">
        <ele>268.83</ele>
        <time>2021-06-17T13:03:56Z</time>
      </trkpt>
      <trkpt lat="45.51998" lon="4.59329">
        <ele>268.83</ele>
        <time>2021-06-17T13:03:57Z</time>
      </trkpt>
      <trkpt lat="45.51994" lon="4.59333">
        <ele>268.35</ele>
        <time>2021-06-17T13:03:58Z</time>
      </trkpt>
      <trkpt lat="45.51991" lon="4.59339">
        <ele>268.83</ele>
        <time>2021-06-17T13:03:59Z</time>
      </trkpt>
      <trkpt lat="45.51989" lon="4.59346">
        <ele>268.35</ele>
        <time>2021-06-17T13:04:00Z</time>
      </trkpt>
      <trkpt lat="45.51989" lon="4.59353">
        <ele>268.35</ele>
        <time>2021-06-17T13:04:01Z</time>
      </trkpt>
      <trkpt lat="45.51991" lon="4.5936">
        <ele>268.35</ele>
        <time>2021-06-17T13:04:02Z</time>
      </trkpt>
      <trkpt lat="45.51994" lon="4.59365">
        <ele>268.35</ele>
        <time>2021-06-17T13:04:03Z</time>
      </trkpt>
      <trkpt lat="45.51998" lon="4.5937">
        <ele>268.35</ele>
        <time>2021-06-17T13:04:04Z</time>
      </trkpt>
      <trkpt lat="45.52003" lon="4.59372">
        <ele>268.35</ele>
        <time>2021-06-17T13:04:05Z</time>
      </trkpt>
      <trkpt lat="45.52009" lon="4.59372">
        <ele>268.83</ele>
        <time>2021-06-17T13:04:06Z</time>
      </trkpt>
      <trkpt lat="45.52015" lon="4.59369">
        <ele>268.83</ele>
        <time>2021-06-17T13:04:07Z</time>
      </trkpt>
      <trkpt lat="45.5202" lon="4.59364">
        <ele>267.86</ele>
        <time>2021-06-17T13:04:08Z</time>
      </trkpt>
      <trkpt lat="45.52026" lon="4.59359">
        <ele>267.86</ele>
        <time>2021-06-17T13:04:09Z</time>
      </trkpt>
      <trkpt lat="45.52032" lon="4.59356">
        <ele>267.86</ele>
        <time>2021-06-17T13:04:10Z</time>
      </trkpt>
      <trkpt lat="45.52038" lon="4.59355">
        <ele>267.38</ele>
        <time>2021-06-17T13:04:11Z</time>
      </trkpt>
      <trkpt lat="45.52045" lon="4.59357">
        <ele>266.9</ele>
        <time>2021-06-17T13:04:12Z</time>
      </trkpt>
      <trkpt lat="45.52052" lon="4.59361">
        <ele>266.42</ele>
        <time>2021-06-17T13:04:13Z</time>
      </trkpt>
      <trkpt lat="45.52059" lon="4.59366">
        <ele>265.46</ele>
        <time>2021-06-17T13:04:14Z</time>
      </trkpt>
      <trkpt lat="45.52094" lon="4.5939">
        <ele>263.54</ele>
        <time>2021-06-17T13:04:18Z</time>
      </trkpt>
      <trkpt lat="45.52162" lon="4.59456">
        <ele>260.65</ele>
        <time>2021-06-17T13:04:26Z</time>
      </trkpt>
      <trkpt lat="45.52247" lon="4.59574">
        <ele>259.69</ele>
        <time>2021-06-17T13:04:39Z</time>
      </trkpt>
      <trkpt lat="45.52309" lon="4.59709">
        <ele>258.73</ele>
        <time>2021-06-17T13:04:54Z</time>
      </trkpt>
      <trkpt lat="45.52327" lon="4.59837">
        <ele>258.25</ele>
        <time>2021-06-17T13:05:07Z</time>
      </trkpt>
      <trkpt lat="45.52331" lon="4.5991">
        <ele>257.77</ele>
        <time>2021-06-17T13:05:14Z</time>
      </trkpt>
      <trkpt lat="45.52368" lon="4.6003">
        <ele>256.81</ele>
        <time>2021-06-17T13:05:27Z</time>
      </trkpt>
      <trkpt lat="45.52424" lon="4.60167">
        <ele>256.33</ele>
        <time>2021-06-17T13:05:43Z</time>
      </trkpt>
      <trkpt lat="45.52482" lon="4.60307">
        <ele>255.85</ele>
        <time>2021-06-17T13:05:59Z</time>
      </trkpt>
      <trkpt lat="45.52514" lon="4.60413">
        <ele>254.41</ele>
        <time>2021-06-17T13:06:11Z</time>
      </trkpt>
      <trkpt lat="45.52524" lon="4.6057">
        <ele>252.96</ele>
        <time>2021-06-17T13:06:26Z</time>
      </trkpt>
      <trkpt lat="45.52535" lon="4.60722">
        <ele>252</ele>
        <time>2021-06-17T13:06:41Z</time>
      </trkpt>
      <trkpt lat="45.52581" lon="4.60887">
        <ele>250.56</ele>
        <time>2021-06-17T13:06:59Z</time>
      </trkpt>
      <trkpt lat="45.52585" lon="4.60905">
        <ele>250.08</ele>
        <time>2021-06-17T13:07:01Z</time>
      </trkpt>
      <trkpt lat="45.52588" lon="4.60922">
        <ele>250.08</ele>
        <time>2021-06-17T13:07:03Z</time>
      </trkpt>
      <trkpt lat="45.52588" lon="4.60931">
        <ele>250.08</ele>
        <time>2021-06-17T13:07:04Z</time>
      </trkpt>
      <trkpt lat="45.52578" lon="4.60995">
        <ele>250.08</ele>
        <time>2021-06-17T13:07:12Z</time>
      </trkpt>
      <trkpt lat="45.52574" lon="4.61">
        <ele>250.08</ele>
        <time>2021-06-17T13:07:13Z</time>
      </trkpt>
      <trkpt lat="45.52569" lon="4.61004">
        <ele>250.08</ele>
        <time>2021-06-17T13:07:14Z</time>
      </trkpt>
      <trkpt lat="45.52563" lon="4.61005">
        <ele>250.56</ele>
        <time>2021-06-17T13:07:15Z</time>
      </trkpt>
      <trkpt lat="45.52558" lon="4.61004">
        <ele>251.04</ele>
        <time>2021-06-17T13:07:16Z</time>
      </trkpt>
      <trkpt lat="45.52553" lon="4.61002">
        <ele>251.04</ele>
        <time>2021-06-17T13:07:17Z</time>
      </trkpt>
      <trkpt lat="45.52548" lon="4.60999">
        <ele>251.04</ele>
        <time>2021-06-17T13:07:18Z</time>
      </trkpt>
      <trkpt lat="45.52543" lon="4.60995">
        <ele>251.04</ele>
        <time>2021-06-17T13:07:19Z</time>
      </trkpt>
      <trkpt lat="45.52538" lon="4.60992">
        <ele>252</ele>
        <time>2021-06-17T13:07:20Z</time>
      </trkpt>
      <trkpt lat="45.52533" lon="4.6099">
        <ele>252.48</ele>
        <time>2021-06-17T13:07:21Z</time>
      </trkpt>
      <trkpt lat="45.52528" lon="4.6099">
        <ele>252.96</ele>
        <time>2021-06-17T13:07:22Z</time>
      </trkpt>
      <trkpt lat="45.52525" lon="4.60994">
        <ele>253.44</ele>
        <time>2021-06-17T13:07:23Z</time>
      </trkpt>
      <trkpt lat="45.52523" lon="4.61">
        <ele>252.96</ele>
        <time>2021-06-17T13:07:24Z</time>
      </trkpt>
      <trkpt lat="45.52523" lon="4.61007">
        <ele>252.48</ele>
        <time>2021-06-17T13:07:25Z</time>
      </trkpt>
      <trkpt lat="45.52525" lon="4.61015">
        <ele>252.48</ele>
        <time>2021-06-17T13:07:26Z</time>
      </trkpt>
      <trkpt lat="45.52529" lon="4.61023">
        <ele>252</ele>
        <time>2021-06-17T13:07:27Z</time>
      </trkpt>
      <trkpt lat="45.52533" lon="4.6103">
        <ele>252</ele>
        <time>2021-06-17T13:07:28Z</time>
      </trkpt>
      <trkpt lat="45.52594" lon="4.61134">
        <ele>250.56</ele>
        <time>2021-06-17T13:07:42Z</time>
      </trkpt>
      <trkpt lat="45.52642" lon="4.61199">
        <ele>249.12</ele>
        <time>2021-06-17T13:07:55Z</time>
      </trkpt>
      <trkpt lat="45.52649" lon="4.61207">
        <ele>248.64</ele>
        <time>2021-06-17T13:08:10Z</time>
      </trkpt>
      <trkpt lat="45.5265" lon="4.61208">
        <ele>249.12</ele>
        <time>2021-06-17T13:08:11Z</time>
      </trkpt>
      <trkpt lat="45.52651" lon="4.6121">
        <ele>249.12</ele>
        <time>2021-06-17T13:08:12Z</time>
      </trkpt>
      <trkpt lat="45.52653" lon="4.61211">
        <ele>249.12</ele>
        <time>2021-06-17T13:08:13Z</time>
      </trkpt>
      <trkpt lat="45.52655" lon="4.61214">
        <ele>249.12</ele>
        <time>2021-06-17T13:08:14Z</time>
      </trkpt>
      <trkpt lat="45.52657" lon="4.61217">
        <ele>249.12</ele>
        <time>2021-06-17T13:08:15Z</time>
      </trkpt>
      <trkpt lat="45.52691" lon="4.61264">
        <ele>249.12</ele>
        <time>2021-06-17T13:08:27Z</time>
      </trkpt>
      <trkpt lat="45.52706" lon="4.61288">
        <ele>248.64</ele>
        <time>2021-06-17T13:08:39Z</time>
      </trkpt>
      <trkpt lat="45.52748" lon="4.61361">
        <ele>248.16</ele>
        <time>2021-06-17T13:08:50Z</time>
      </trkpt>
      <trkpt lat="45.52816" lon="4.61484">
        <ele>246.72</ele>
        <time>2021-06-17T13:09:07Z</time>
      </trkpt>
      <trkpt lat="45.52818" lon="4.61489">
        <ele>246.23</ele>
        <time>2021-06-17T13:09:08Z</time>
      </trkpt>
      <trkpt lat="45.52822" lon="4.61502">
        <ele>246.23</ele>
        <time>2021-06-17T13:09:10Z</time>
      </trkpt>
      <trkpt lat="45.52825" lon="4.61508">
        <ele>246.72</ele>
        <time>2021-06-17T13:09:11Z</time>
      </trkpt>
      <trkpt lat="45.52828" lon="4.61514">
        <ele>246.72</ele>
        <time>2021-06-17T13:09:12Z</time>
      </trkpt>
      <trkpt lat="45.52832" lon="4.6152">
        <ele>246.72</ele>
        <time>2021-06-17T13:09:13Z</time>
      </trkpt>
      <trkpt lat="45.52836" lon="4.61526">
        <ele>246.72</ele>
        <time>2021-06-17T13:09:14Z</time>
      </trkpt>
      <trkpt lat="45.5284" lon="4.61532">
        <ele>246.72</ele>
        <time>2021-06-17T13:09:15Z</time>
      </trkpt>
      <trkpt lat="45.52843" lon="4.61539">
        <ele>246.23</ele>
        <time>2021-06-17T13:09:16Z</time>
      </trkpt>
      <trkpt lat="45.5286" lon="4.61583">
        <ele>246.72</ele>
        <time>2021-06-17T13:09:22Z</time>
      </trkpt>
      <trkpt lat="45.52886" lon="4.61708">
        <ele>245.75</ele>
        <time>2021-06-17T13:09:37Z</time>
      </trkpt>
      <trkpt lat="45.52888" lon="4.61717">
        <ele>245.27</ele>
        <time>2021-06-17T13:09:38Z</time>
      </trkpt>
      <trkpt lat="45.52906" lon="4.6186">
        <ele>243.35</ele>
        <time>2021-06-17T13:09:53Z</time>
      </trkpt>
      <trkpt lat="45.52915" lon="4.62016">
        <ele>244.31</ele>
        <time>2021-06-17T13:10:10Z</time>
      </trkpt>
      <trkpt lat="45.52932" lon="4.621">
        <ele>243.35</ele>
        <time>2021-06-17T13:10:20Z</time>
      </trkpt>
      <trkpt lat="45.52935" lon="4.62108">
        <ele>243.83</ele>
        <time>2021-06-17T13:10:21Z</time>
      </trkpt>
      <trkpt lat="45.52938" lon="4.62116">
        <ele>243.83</ele>
        <time>2021-06-17T13:10:22Z</time>
      </trkpt>
      <trkpt lat="45.52942" lon="4.62123">
        <ele>243.83</ele>
        <time>2021-06-17T13:10:23Z</time>
      </trkpt>
      <trkpt lat="45.52946" lon="4.6213">
        <ele>244.31</ele>
        <time>2021-06-17T13:10:24Z</time>
      </trkpt>
      <trkpt lat="45.5302" lon="4.62229">
        <ele>242.87</ele>
        <time>2021-06-17T13:10:40Z</time>
      </trkpt>
      <trkpt lat="45.53062" lon="4.62283">
        <ele>241.91</ele>
        <time>2021-06-17T13:10:51Z</time>
      </trkpt>
      <trkpt lat="45.53063" lon="4.62287">
        <ele>241.91</ele>
        <time>2021-06-17T13:10:52Z</time>
      </trkpt>
      <trkpt lat="45.53064" lon="4.62292">
        <ele>242.39</ele>
        <time>2021-06-17T13:10:53Z</time>
      </trkpt>
      <trkpt lat="45.53066" lon="4.62297">
        <ele>242.39</ele>
        <time>2021-06-17T13:10:54Z</time>
      </trkpt>
      <trkpt lat="45.5307" lon="4.62301">
        <ele>242.39</ele>
        <time>2021-06-17T13:10:55Z</time>
      </trkpt>
      <trkpt lat="45.53074" lon="4.62305">
        <ele>242.39</ele>
        <time>2021-06-17T13:10:56Z</time>
      </trkpt>
      <trkpt lat="45.53078" lon="4.62308">
        <ele>241.91</ele>
        <time>2021-06-17T13:10:57Z</time>
      </trkpt>
      <trkpt lat="45.53083" lon="4.62311">
        <ele>241.91</ele>
        <time>2021-06-17T13:10:58Z</time>
      </trkpt>
      <trkpt lat="45.53088" lon="4.62316">
        <ele>242.87</ele>
        <time>2021-06-17T13:10:59Z</time>
      </trkpt>
      <trkpt lat="45.53093" lon="4.62322">
        <ele>242.39</ele>
        <time>2021-06-17T13:11:00Z</time>
      </trkpt>
      <trkpt lat="45.53098" lon="4.62328">
        <ele>242.39</ele>
        <time>2021-06-17T13:11:01Z</time>
      </trkpt>
      <trkpt lat="45.53102" lon="4.62336">
        <ele>242.39</ele>
        <time>2021-06-17T13:11:02Z</time>
      </trkpt>
      <trkpt lat="45.53106" lon="4.62344">
        <ele>242.39</ele>
        <time>2021-06-17T13:11:03Z</time>
      </trkpt>
      <trkpt lat="45.53109" lon="4.62353">
        <ele>241.91</ele>
        <time>2021-06-17T13:11:04Z</time>
      </trkpt>
      <trkpt lat="45.53147" lon="4.62482">
        <ele>241.43</ele>
        <time>2021-06-17T13:11:19Z</time>
      </trkpt>
      <trkpt lat="45.53182" lon="4.62609">
        <ele>241.91</ele>
        <time>2021-06-17T13:11:35Z</time>
      </trkpt>
      <trkpt lat="45.53217" lon="4.62729">
        <ele>241.43</ele>
        <time>2021-06-17T13:11:50Z</time>
      </trkpt>
      <trkpt lat="45.53253" lon="4.62849">
        <ele>240.95</ele>
        <time>2021-06-17T13:12:05Z</time>
      </trkpt>
      <trkpt lat="45.53285" lon="4.62951">
        <ele>239.99</ele>
        <time>2021-06-17T13:12:17Z</time>
      </trkpt>
      <trkpt lat="45.53288" lon="4.62959">
        <ele>239.99</ele>
        <time>2021-06-17T13:12:18Z</time>
      </trkpt>
      <trkpt lat="45.53291" lon="4.62966">
        <ele>239.99</ele>
        <time>2021-06-17T13:12:19Z</time>
      </trkpt>
      <trkpt lat="45.53347" lon="4.63061">
        <ele>238.54</ele>
        <time>2021-06-17T13:12:33Z</time>
      </trkpt>
      <trkpt lat="45.53416" lon="4.63158">
        <ele>238.06</ele>
        <time>2021-06-17T13:12:49Z</time>
      </trkpt>
      <trkpt lat="45.53464" lon="4.63224">
        <ele>240.95</ele>
        <time>2021-06-17T13:13:02Z</time>
      </trkpt>
      <trkpt lat="45.53501" lon="4.63259">
        <ele>242.87</ele>
        <time>2021-06-17T13:13:11Z</time>
      </trkpt>
      <trkpt lat="45.53572" lon="4.63337">
        <ele>242.87</ele>
        <time>2021-06-17T13:13:27Z</time>
      </trkpt>
      <trkpt lat="45.53657" lon="4.63455">
        <ele>242.39</ele>
        <time>2021-06-17T13:13:47Z</time>
      </trkpt>
      <trkpt lat="45.53744" lon="4.63566">
        <ele>242.39</ele>
        <time>2021-06-17T13:14:06Z</time>
      </trkpt>
      <trkpt lat="45.53763" lon="4.63592">
        <ele>242.39</ele>
        <time>2021-06-17T13:14:10Z</time>
      </trkpt>
      <trkpt lat="45.53843" lon="4.63704">
        <ele>241.43</ele>
        <time>2021-06-17T13:14:28Z</time>
      </trkpt>
      <trkpt lat="45.53904" lon="4.63782">
        <ele>240.95</ele>
        <time>2021-06-17T13:14:41Z</time>
      </trkpt>
      <trkpt lat="45.53977" lon="4.63891">
        <ele>239.99</ele>
        <time>2021-06-17T13:14:58Z</time>
      </trkpt>
      <trkpt lat="45.54029" lon="4.6396">
        <ele>239.99</ele>
        <time>2021-06-17T13:15:09Z</time>
      </trkpt>
      <trkpt lat="45.54034" lon="4.63965">
        <ele>240.47</ele>
        <time>2021-06-17T13:15:10Z</time>
      </trkpt>
      <trkpt lat="45.5404" lon="4.6397">
        <ele>239.99</ele>
        <time>2021-06-17T13:15:11Z</time>
      </trkpt>
      <trkpt lat="45.54051" lon="4.6398">
        <ele>239.99</ele>
        <time>2021-06-17T13:15:13Z</time>
      </trkpt>
      <trkpt lat="45.54056" lon="4.63986">
        <ele>239.99</ele>
        <time>2021-06-17T13:15:14Z</time>
      </trkpt>
      <trkpt lat="45.5413" lon="4.64089">
        <ele>240.95</ele>
        <time>2021-06-17T13:15:31Z</time>
      </trkpt>
      <trkpt lat="45.54133" lon="4.64096">
        <ele>240.95</ele>
        <time>2021-06-17T13:15:32Z</time>
      </trkpt>
      <trkpt lat="45.54136" lon="4.64103">
        <ele>240.95</ele>
        <time>2021-06-17T13:15:33Z</time>
      </trkpt>
      <trkpt lat="45.5414" lon="4.6411">
        <ele>240.95</ele>
        <time>2021-06-17T13:15:34Z</time>
      </trkpt>
      <trkpt lat="45.54145" lon="4.64115">
        <ele>241.43</ele>
        <time>2021-06-17T13:15:35Z</time>
      </trkpt>
      <trkpt lat="45.54154" lon="4.64126">
        <ele>240.95</ele>
        <time>2021-06-17T13:15:37Z</time>
      </trkpt>
      <trkpt lat="45.54236" lon="4.64239">
        <ele>241.91</ele>
        <time>2021-06-17T13:15:56Z</time>
      </trkpt>
      <trkpt lat="45.54271" lon="4.64323">
        <ele>240.95</ele>
        <time>2021-06-17T13:16:07Z</time>
      </trkpt>
      <trkpt lat="45.54273" lon="4.64332">
        <ele>241.43</ele>
        <time>2021-06-17T13:16:08Z</time>
      </trkpt>
      <trkpt lat="45.54273" lon="4.6434">
        <ele>241.43</ele>
        <time>2021-06-17T13:16:09Z</time>
      </trkpt>
      <trkpt lat="45.54272" lon="4.6435">
        <ele>240.95</ele>
        <time>2021-06-17T13:16:10Z</time>
      </trkpt>
      <trkpt lat="45.54271" lon="4.64359">
        <ele>240.95</ele>
        <time>2021-06-17T13:16:11Z</time>
      </trkpt>
      <trkpt lat="45.54268" lon="4.64367">
        <ele>241.43</ele>
        <time>2021-06-17T13:16:12Z</time>
      </trkpt>
      <trkpt lat="45.54266" lon="4.64376">
        <ele>240.95</ele>
        <time>2021-06-17T13:16:13Z</time>
      </trkpt>
      <trkpt lat="45.5427" lon="4.64413">
        <ele>240.95</ele>
        <time>2021-06-17T13:16:17Z</time>
      </trkpt>
      <trkpt lat="45.54272" lon="4.64422">
        <ele>240.47</ele>
        <time>2021-06-17T13:16:18Z</time>
      </trkpt>
      <trkpt lat="45.54274" lon="4.64431">
        <ele>240.47</ele>
        <time>2021-06-17T13:16:19Z</time>
      </trkpt>
      <trkpt lat="45.54274" lon="4.64441">
        <ele>240.95</ele>
        <time>2021-06-17T13:16:20Z</time>
      </trkpt>
      <trkpt lat="45.54274" lon="4.64452">
        <ele>240.95</ele>
        <time>2021-06-17T13:16:21Z</time>
      </trkpt>
      <trkpt lat="45.54273" lon="4.64462">
        <ele>240.47</ele>
        <time>2021-06-17T13:16:22Z</time>
      </trkpt>
      <trkpt lat="45.54272" lon="4.64472">
        <ele>239.99</ele>
        <time>2021-06-17T13:16:23Z</time>
      </trkpt>
      <trkpt lat="45.5426" lon="4.64533">
        <ele>239.02</ele>
        <time>2021-06-17T13:16:29Z</time>
      </trkpt>
      <trkpt lat="45.54256" lon="4.64542">
        <ele>239.02</ele>
        <time>2021-06-17T13:16:30Z</time>
      </trkpt>
      <trkpt lat="45.54252" lon="4.6455">
        <ele>239.02</ele>
        <time>2021-06-17T13:16:31Z</time>
      </trkpt>
      <trkpt lat="45.54247" lon="4.64558">
        <ele>238.54</ele>
        <time>2021-06-17T13:16:32Z</time>
      </trkpt>
      <trkpt lat="45.54242" lon="4.64565">
        <ele>239.02</ele>
        <time>2021-06-17T13:16:33Z</time>
      </trkpt>
      <trkpt lat="45.54239" lon="4.64572">
        <ele>239.02</ele>
        <time>2021-06-17T13:16:34Z</time>
      </trkpt>
      <trkpt lat="45.54238" lon="4.6458">
        <ele>238.54</ele>
        <time>2021-06-17T13:16:35Z</time>
      </trkpt>
      <trkpt lat="45.54238" lon="4.64589">
        <ele>239.02</ele>
        <time>2021-06-17T13:16:36Z</time>
      </trkpt>
      <trkpt lat="45.54241" lon="4.64596">
        <ele>239.02</ele>
        <time>2021-06-17T13:16:37Z</time>
      </trkpt>
      <trkpt lat="45.54245" lon="4.64603">
        <ele>239.02</ele>
        <time>2021-06-17T13:16:38Z</time>
      </trkpt>
      <trkpt lat="45.5425" lon="4.6461">
        <ele>238.54</ele>
        <time>2021-06-17T13:16:39Z</time>
      </trkpt>
      <trkpt lat="45.54254" lon="4.64617">
        <ele>239.02</ele>
        <time>2021-06-17T13:16:40Z</time>
      </trkpt>
      <trkpt lat="45.54257" lon="4.64625">
        <ele>238.54</ele>
        <time>2021-06-17T13:16:41Z</time>
      </trkpt>
      <trkpt lat="45.5426" lon="4.64633">
        <ele>239.02</ele>
        <time>2021-06-17T13:16:42Z</time>
      </trkpt>
      <trkpt lat="45.54288" lon="4.64741">
        <ele>240.47</ele>
        <time>2021-06-17T13:16:56Z</time>
      </trkpt>
      <trkpt lat="45.54324" lon="4.64865">
        <ele>240.95</ele>
        <time>2021-06-17T13:17:12Z</time>
      </trkpt>
      <trkpt lat="45.54343" lon="4.6498">
        <ele>240.47</ele>
        <time>2021-06-17T13:17:25Z</time>
      </trkpt>
      <trkpt lat="45.54349" lon="4.65051">
        <ele>240.47</ele>
        <time>2021-06-17T13:17:33Z</time>
      </trkpt>
      <trkpt lat="45.54347" lon="4.65194">
        <ele>240.95</ele>
        <time>2021-06-17T13:17:49Z</time>
      </trkpt>
      <trkpt lat="45.54309" lon="4.6531">
        <ele>240.95</ele>
        <time>2021-06-17T13:18:03Z</time>
      </trkpt>
      <trkpt lat="45.54278" lon="4.65425">
        <ele>241.43</ele>
        <time>2021-06-17T13:18:17Z</time>
      </trkpt>
      <trkpt lat="45.54277" lon="4.65443">
        <ele>240.95</ele>
        <time>2021-06-17T13:18:19Z</time>
      </trkpt>
      <trkpt lat="45.54279" lon="4.65453">
        <ele>240.95</ele>
        <time>2021-06-17T13:18:20Z</time>
      </trkpt>
      <trkpt lat="45.54281" lon="4.65462">
        <ele>241.43</ele>
        <time>2021-06-17T13:18:21Z</time>
      </trkpt>
      <trkpt lat="45.54284" lon="4.65471">
        <ele>241.43</ele>
        <time>2021-06-17T13:18:22Z</time>
      </trkpt>
      <trkpt lat="45.54287" lon="4.6548">
        <ele>241.91</ele>
        <time>2021-06-17T13:18:23Z</time>
      </trkpt>
      <trkpt lat="45.5429" lon="4.65488">
        <ele>241.43</ele>
        <time>2021-06-17T13:18:24Z</time>
      </trkpt>
      <trkpt lat="45.54367" lon="4.6565">
        <ele>239.51</ele>
        <time>2021-06-17T13:18:43Z</time>
      </trkpt>
      <trkpt lat="45.54407" lon="4.65792">
        <ele>237.58</ele>
        <time>2021-06-17T13:18:57Z</time>
      </trkpt>
      <trkpt lat="45.54434" lon="4.6597">
        <ele>236.14</ele>
        <time>2021-06-17T13:19:14Z</time>
      </trkpt>
      <trkpt lat="45.54436" lon="4.66082">
        <ele>235.66</ele>
        <time>2021-06-17T13:19:25Z</time>
      </trkpt>
      <trkpt lat="45.54433" lon="4.66102">
        <ele>236.14</ele>
        <time>2021-06-17T13:19:27Z</time>
      </trkpt>
      <trkpt lat="45.54431" lon="4.66111">
        <ele>236.14</ele>
        <time>2021-06-17T13:19:28Z</time>
      </trkpt>
      <trkpt lat="45.54406" lon="4.6617">
        <ele>236.14</ele>
        <time>2021-06-17T13:19:35Z</time>
      </trkpt>
      <trkpt lat="45.54403" lon="4.66179">
        <ele>235.66</ele>
        <time>2021-06-17T13:19:36Z</time>
      </trkpt>
      <trkpt lat="45.544" lon="4.66188">
        <ele>235.66</ele>
        <time>2021-06-17T13:19:37Z</time>
      </trkpt>
      <trkpt lat="45.54399" lon="4.66198">
        <ele>236.62</ele>
        <time>2021-06-17T13:19:38Z</time>
      </trkpt>
      <trkpt lat="45.54398" lon="4.66207">
        <ele>236.14</ele>
        <time>2021-06-17T13:19:39Z</time>
      </trkpt>
      <trkpt lat="45.54397" lon="4.66217">
        <ele>236.62</ele>
        <time>2021-06-17T13:19:40Z</time>
      </trkpt>
      <trkpt lat="45.54402" lon="4.66354">
        <ele>235.18</ele>
        <time>2021-06-17T13:19:54Z</time>
      </trkpt>
      <trkpt lat="45.54411" lon="4.66499">
        <ele>235.66</ele>
        <time>2021-06-17T13:20:10Z</time>
      </trkpt>
      <trkpt lat="45.54414" lon="4.66553">
        <ele>235.66</ele>
        <time>2021-06-17T13:20:16Z</time>
      </trkpt>
      <trkpt lat="45.54416" lon="4.66561">
        <ele>235.18</ele>
        <time>2021-06-17T13:20:17Z</time>
      </trkpt>
      <trkpt lat="45.54419" lon="4.66568">
        <ele>235.66</ele>
        <time>2021-06-17T13:20:18Z</time>
      </trkpt>
      <trkpt lat="45.54422" lon="4.66575">
        <ele>235.66</ele>
        <time>2021-06-17T13:20:19Z</time>
      </trkpt>
      <trkpt lat="45.54427" lon="4.66581">
        <ele>236.14</ele>
        <time>2021-06-17T13:20:20Z</time>
      </trkpt>
      <trkpt lat="45.54432" lon="4.66586">
        <ele>235.66</ele>
        <time>2021-06-17T13:20:21Z</time>
      </trkpt>
      <trkpt lat="45.54437" lon="4.66591">
        <ele>235.66</ele>
        <time>2021-06-17T13:20:22Z</time>
      </trkpt>
      <trkpt lat="45.54442" lon="4.66595">
        <ele>235.66</ele>
        <time>2021-06-17T13:20:23Z</time>
      </trkpt>
      <trkpt lat="45.54448" lon="4.66598">
        <ele>235.66</ele>
        <time>2021-06-17T13:20:24Z</time>
      </trkpt>
      <trkpt lat="45.54455" lon="4.66599">
        <ele>235.66</ele>
        <time>2021-06-17T13:20:25Z</time>
      </trkpt>
      <trkpt lat="45.54547" lon="4.66608">
        <ele>234.7</ele>
        <time>2021-06-17T13:20:39Z</time>
      </trkpt>
      <trkpt lat="45.54565" lon="4.66614">
        <ele>234.7</ele>
        <time>2021-06-17T13:20:42Z</time>
      </trkpt>
      <trkpt lat="45.54571" lon="4.66618">
        <ele>234.7</ele>
        <time>2021-06-17T13:20:43Z</time>
      </trkpt>
      <trkpt lat="45.54576" lon="4.66622">
        <ele>234.7</ele>
        <time>2021-06-17T13:20:44Z</time>
      </trkpt>
      <trkpt lat="45.54649" lon="4.66712">
        <ele>234.22</ele>
        <time>2021-06-17T13:20:59Z</time>
      </trkpt>
      <trkpt lat="45.54697" lon="4.66819">
        <ele>234.22</ele>
        <time>2021-06-17T13:21:13Z</time>
      </trkpt>
      <trkpt lat="45.54698" lon="4.66827">
        <ele>233.74</ele>
        <time>2021-06-17T13:21:14Z</time>
      </trkpt>
      <trkpt lat="45.547" lon="4.66836">
        <ele>234.22</ele>
        <time>2021-06-17T13:21:15Z</time>
      </trkpt>
      <trkpt lat="45.54701" lon="4.66845">
        <ele>233.74</ele>
        <time>2021-06-17T13:21:16Z</time>
      </trkpt>
      <trkpt lat="45.54701" lon="4.66854">
        <ele>233.74</ele>
        <time>2021-06-17T13:21:17Z</time>
      </trkpt>
      <trkpt lat="45.54701" lon="4.66872">
        <ele>233.74</ele>
        <time>2021-06-17T13:21:19Z</time>
      </trkpt>
      <trkpt lat="45.547" lon="4.6688">
        <ele>233.74</ele>
        <time>2021-06-17T13:21:20Z</time>
      </trkpt>
      <trkpt lat="45.54699" lon="4.66889">
        <ele>233.74</ele>
        <time>2021-06-17T13:21:21Z</time>
      </trkpt>
      <trkpt lat="45.54697" lon="4.66897">
        <ele>233.74</ele>
        <time>2021-06-17T13:21:22Z</time>
      </trkpt>
      <trkpt lat="45.54695" lon="4.66906">
        <ele>234.22</ele>
        <time>2021-06-17T13:21:23Z</time>
      </trkpt>
      <trkpt lat="45.54685" lon="4.66958">
        <ele>233.26</ele>
        <time>2021-06-17T13:21:29Z</time>
      </trkpt>
      <trkpt lat="45.54685" lon="4.66967">
        <ele>234.22</ele>
        <time>2021-06-17T13:21:30Z</time>
      </trkpt>
      <trkpt lat="45.54687" lon="4.66976">
        <ele>233.74</ele>
        <time>2021-06-17T13:21:31Z</time>
      </trkpt>
      <trkpt lat="45.54689" lon="4.66985">
        <ele>234.22</ele>
        <time>2021-06-17T13:21:32Z</time>
      </trkpt>
      <trkpt lat="45.54691" lon="4.66994">
        <ele>233.74</ele>
        <time>2021-06-17T13:21:33Z</time>
      </trkpt>
      <trkpt lat="45.54693" lon="4.67003">
        <ele>233.74</ele>
        <time>2021-06-17T13:21:34Z</time>
      </trkpt>
      <trkpt lat="45.54696" lon="4.67011">
        <ele>233.74</ele>
        <time>2021-06-17T13:21:35Z</time>
      </trkpt>
      <trkpt lat="45.547" lon="4.67019">
        <ele>233.26</ele>
        <time>2021-06-17T13:21:36Z</time>
      </trkpt>
      <trkpt lat="45.54704" lon="4.67026">
        <ele>233.26</ele>
        <time>2021-06-17T13:21:37Z</time>
      </trkpt>
      <trkpt lat="45.54783" lon="4.6711">
        <ele>232.78</ele>
        <time>2021-06-17T13:21:52Z</time>
      </trkpt>
      <trkpt lat="45.54845" lon="4.67164">
        <ele>232.3</ele>
        <time>2021-06-17T13:22:03Z</time>
      </trkpt>
      <trkpt lat="45.54849" lon="4.67171">
        <ele>231.81</ele>
        <time>2021-06-17T13:22:04Z</time>
      </trkpt>
      <trkpt lat="45.54852" lon="4.67179">
        <ele>231.81</ele>
        <time>2021-06-17T13:22:05Z</time>
      </trkpt>
      <trkpt lat="45.54856" lon="4.67187">
        <ele>232.3</ele>
        <time>2021-06-17T13:22:06Z</time>
      </trkpt>
      <trkpt lat="45.54859" lon="4.67195">
        <ele>231.81</ele>
        <time>2021-06-17T13:22:07Z</time>
      </trkpt>
      <trkpt lat="45.54898" lon="4.67304">
        <ele>231.81</ele>
        <time>2021-06-17T13:22:20Z</time>
      </trkpt>
      <trkpt lat="45.54903" lon="4.67311">
        <ele>231.33</ele>
        <time>2021-06-17T13:22:21Z</time>
      </trkpt>
      <trkpt lat="45.54924" lon="4.67336">
        <ele>231.81</ele>
        <time>2021-06-17T13:22:25Z</time>
      </trkpt>
      <trkpt lat="45.5493" lon="4.6734">
        <ele>231.33</ele>
        <time>2021-06-17T13:22:26Z</time>
      </trkpt>
      <trkpt lat="45.54937" lon="4.67343">
        <ele>231.81</ele>
        <time>2021-06-17T13:22:27Z</time>
      </trkpt>
      <trkpt lat="45.54944" lon="4.67345">
        <ele>231.33</ele>
        <time>2021-06-17T13:22:28Z</time>
      </trkpt>
      <trkpt lat="45.54951" lon="4.67346">
        <ele>231.33</ele>
        <time>2021-06-17T13:22:29Z</time>
      </trkpt>
      <trkpt lat="45.54958" lon="4.67346">
        <ele>231.33</ele>
        <time>2021-06-17T13:22:30Z</time>
      </trkpt>
      <trkpt lat="45.54965" lon="4.67346">
        <ele>231.33</ele>
        <time>2021-06-17T13:22:31Z</time>
      </trkpt>
      <trkpt lat="45.54972" lon="4.67346">
        <ele>230.85</ele>
        <time>2021-06-17T13:22:32Z</time>
      </trkpt>
      <trkpt lat="45.54979" lon="4.67344">
        <ele>230.85</ele>
        <time>2021-06-17T13:22:33Z</time>
      </trkpt>
      <trkpt lat="45.55027" lon="4.67327">
        <ele>230.37</ele>
        <time>2021-06-17T13:22:40Z</time>
      </trkpt>
      <trkpt lat="45.55034" lon="4.67327">
        <ele>230.37</ele>
        <time>2021-06-17T13:22:41Z</time>
      </trkpt>
      <trkpt lat="45.5504" lon="4.67328">
        <ele>230.37</ele>
        <time>2021-06-17T13:22:42Z</time>
      </trkpt>
      <trkpt lat="45.55047" lon="4.67329">
        <ele>230.37</ele>
        <time>2021-06-17T13:22:43Z</time>
      </trkpt>
      <trkpt lat="45.55054" lon="4.67332">
        <ele>230.37</ele>
        <time>2021-06-17T13:22:44Z</time>
      </trkpt>
      <trkpt lat="45.5506" lon="4.67334">
        <ele>230.85</ele>
        <time>2021-06-17T13:22:45Z</time>
      </trkpt>
      <trkpt lat="45.55136" lon="4.67391">
        <ele>229.89</ele>
        <time>2021-06-17T13:22:57Z</time>
      </trkpt>
      <trkpt lat="45.5522" lon="4.67512">
        <ele>228.45</ele>
        <time>2021-06-17T13:23:13Z</time>
      </trkpt>
      <trkpt lat="45.5526" lon="4.67589">
        <ele>227.49</ele>
        <time>2021-06-17T13:23:22Z</time>
      </trkpt>
      <trkpt lat="45.55264" lon="4.67598">
        <ele>227.49</ele>
        <time>2021-06-17T13:23:23Z</time>
      </trkpt>
      <trkpt lat="45.55266" lon="4.67608">
        <ele>226.53</ele>
        <time>2021-06-17T13:23:24Z</time>
      </trkpt>
      <trkpt lat="45.55272" lon="4.67639">
        <ele>227.01</ele>
        <time>2021-06-17T13:23:27Z</time>
      </trkpt>
      <trkpt lat="45.55272" lon="4.67649">
        <ele>227.01</ele>
        <time>2021-06-17T13:23:28Z</time>
      </trkpt>
      <trkpt lat="45.55272" lon="4.67659">
        <ele>226.53</ele>
        <time>2021-06-17T13:23:29Z</time>
      </trkpt>
      <trkpt lat="45.55271" lon="4.67669">
        <ele>226.53</ele>
        <time>2021-06-17T13:23:30Z</time>
      </trkpt>
      <trkpt lat="45.5527" lon="4.67679">
        <ele>226.53</ele>
        <time>2021-06-17T13:23:31Z</time>
      </trkpt>
      <trkpt lat="45.55269" lon="4.67688">
        <ele>226.53</ele>
        <time>2021-06-17T13:23:32Z</time>
      </trkpt>
      <trkpt lat="45.55267" lon="4.67697">
        <ele>226.53</ele>
        <time>2021-06-17T13:23:33Z</time>
      </trkpt>
      <trkpt lat="45.55212" lon="4.67831">
        <ele>224.61</ele>
        <time>2021-06-17T13:23:48Z</time>
      </trkpt>
      <trkpt lat="45.55137" lon="4.67926">
        <ele>223.64</ele>
        <time>2021-06-17T13:24:02Z</time>
      </trkpt>
      <trkpt lat="45.55133" lon="4.67933">
        <ele>223.16</ele>
        <time>2021-06-17T13:24:03Z</time>
      </trkpt>
      <trkpt lat="45.5513" lon="4.67941">
        <ele>223.16</ele>
        <time>2021-06-17T13:24:04Z</time>
      </trkpt>
      <trkpt lat="45.55126" lon="4.67949">
        <ele>223.16</ele>
        <time>2021-06-17T13:24:05Z</time>
      </trkpt>
      <trkpt lat="45.55123" lon="4.67957">
        <ele>222.68</ele>
        <time>2021-06-17T13:24:06Z</time>
      </trkpt>
      <trkpt lat="45.55121" lon="4.67966">
        <ele>222.68</ele>
        <time>2021-06-17T13:24:07Z</time>
      </trkpt>
      <trkpt lat="45.5512" lon="4.67976">
        <ele>222.68</ele>
        <time>2021-06-17T13:24:08Z</time>
      </trkpt>
      <trkpt lat="45.55119" lon="4.67986">
        <ele>222.68</ele>
        <time>2021-06-17T13:24:09Z</time>
      </trkpt>
      <trkpt lat="45.5512" lon="4.67995">
        <ele>222.68</ele>
        <time>2021-06-17T13:24:10Z</time>
      </trkpt>
      <trkpt lat="45.55123" lon="4.68004">
        <ele>222.68</ele>
        <time>2021-06-17T13:24:11Z</time>
      </trkpt>
      <trkpt lat="45.55126" lon="4.68013">
        <ele>222.2</ele>
        <time>2021-06-17T13:24:12Z</time>
      </trkpt>
      <trkpt lat="45.5513" lon="4.68021">
        <ele>222.2</ele>
        <time>2021-06-17T13:24:13Z</time>
      </trkpt>
      <trkpt lat="45.55135" lon="4.68029">
        <ele>222.68</ele>
        <time>2021-06-17T13:24:14Z</time>
      </trkpt>
      <trkpt lat="45.5514" lon="4.68035">
        <ele>222.2</ele>
        <time>2021-06-17T13:24:15Z</time>
      </trkpt>
      <trkpt lat="45.55146" lon="4.68041">
        <ele>222.2</ele>
        <time>2021-06-17T13:24:16Z</time>
      </trkpt>
      <trkpt lat="45.55236" lon="4.6809">
        <ele>220.76</ele>
        <time>2021-06-17T13:24:29Z</time>
      </trkpt>
      <trkpt lat="45.55351" lon="4.68142">
        <ele>219.32</ele>
        <time>2021-06-17T13:24:45Z</time>
      </trkpt>
      <trkpt lat="45.55439" lon="4.68145">
        <ele>218.84</ele>
        <time>2021-06-17T13:24:57Z</time>
      </trkpt>
      <trkpt lat="45.55543" lon="4.68148">
        <ele>216.43</ele>
        <time>2021-06-17T13:25:12Z</time>
      </trkpt>
      <trkpt lat="45.5555" lon="4.68151">
        <ele>217.4</ele>
        <time>2021-06-17T13:25:13Z</time>
      </trkpt>
      <trkpt lat="45.55556" lon="4.68154">
        <ele>216.43</ele>
        <time>2021-06-17T13:25:14Z</time>
      </trkpt>
      <trkpt lat="45.55563" lon="4.68158">
        <ele>216.91</ele>
        <time>2021-06-17T13:25:15Z</time>
      </trkpt>
      <trkpt lat="45.55569" lon="4.68163">
        <ele>216.91</ele>
        <time>2021-06-17T13:25:16Z</time>
      </trkpt>
      <trkpt lat="45.55575" lon="4.68168">
        <ele>216.43</ele>
        <time>2021-06-17T13:25:17Z</time>
      </trkpt>
      <trkpt lat="45.5558" lon="4.68174">
        <ele>216.91</ele>
        <time>2021-06-17T13:25:18Z</time>
      </trkpt>
      <trkpt lat="45.55585" lon="4.6818">
        <ele>217.4</ele>
        <time>2021-06-17T13:25:19Z</time>
      </trkpt>
      <trkpt lat="45.55589" lon="4.68187">
        <ele>217.4</ele>
        <time>2021-06-17T13:25:20Z</time>
      </trkpt>
      <trkpt lat="45.55632" lon="4.68263">
        <ele>215.95</ele>
        <time>2021-06-17T13:25:31Z</time>
      </trkpt>
      <trkpt lat="45.55685" lon="4.68358">
        <ele>216.91</ele>
        <time>2021-06-17T13:25:46Z</time>
      </trkpt>
      <trkpt lat="45.55731" lon="4.68445">
        <ele>216.43</ele>
        <time>2021-06-17T13:26:00Z</time>
      </trkpt>
      <trkpt lat="45.55787" lon="4.68559">
        <ele>216.91</ele>
        <time>2021-06-17T13:26:16Z</time>
      </trkpt>
      <trkpt lat="45.55846" lon="4.68675">
        <ele>216.43</ele>
        <time>2021-06-17T13:26:32Z</time>
      </trkpt>
      <trkpt lat="45.55863" lon="4.68796">
        <ele>217.88</ele>
        <time>2021-06-17T13:26:47Z</time>
      </trkpt>
      <trkpt lat="45.55895" lon="4.68897">
        <ele>217.88</ele>
        <time>2021-06-17T13:27:01Z</time>
      </trkpt>
      <trkpt lat="45.55897" lon="4.68904">
        <ele>218.36</ele>
        <time>2021-06-17T13:27:02Z</time>
      </trkpt>
      <trkpt lat="45.55928" lon="4.69024">
        <ele>217.88</ele>
        <time>2021-06-17T13:27:18Z</time>
      </trkpt>
      <trkpt lat="45.55947" lon="4.69131">
        <ele>218.84</ele>
        <time>2021-06-17T13:27:32Z</time>
      </trkpt>
      <trkpt lat="45.55996" lon="4.69225">
        <ele>218.36</ele>
        <time>2021-06-17T13:27:45Z</time>
      </trkpt>
      <trkpt lat="45.56" lon="4.69233">
        <ele>218.36</ele>
        <time>2021-06-17T13:27:46Z</time>
      </trkpt>
      <trkpt lat="45.56005" lon="4.6924">
        <ele>217.4</ele>
        <time>2021-06-17T13:27:47Z</time>
      </trkpt>
      <trkpt lat="45.56084" lon="4.69361">
        <ele>216.91</ele>
        <time>2021-06-17T13:28:05Z</time>
      </trkpt>
      <trkpt lat="45.56146" lon="4.69429">
        <ele>216.43</ele>
        <time>2021-06-17T13:28:17Z</time>
      </trkpt>
      <trkpt lat="45.56249" lon="4.69485">
        <ele>214.99</ele>
        <time>2021-06-17T13:28:34Z</time>
      </trkpt>
      <trkpt lat="45.56339" lon="4.69545">
        <ele>214.51</ele>
        <time>2021-06-17T13:28:49Z</time>
      </trkpt>
      <trkpt lat="45.56349" lon="4.69555">
        <ele>214.51</ele>
        <time>2021-06-17T13:28:51Z</time>
      </trkpt>
      <trkpt lat="45.56377" lon="4.69593">
        <ele>213.07</ele>
        <time>2021-06-17T13:28:57Z</time>
      </trkpt>
      <trkpt lat="45.56411" lon="4.69676">
        <ele>213.07</ele>
        <time>2021-06-17T13:29:08Z</time>
      </trkpt>
      <trkpt lat="45.56413" lon="4.69684">
        <ele>213.07</ele>
        <time>2021-06-17T13:29:09Z</time>
      </trkpt>
      <trkpt lat="45.56414" lon="4.69692">
        <ele>213.55</ele>
        <time>2021-06-17T13:29:10Z</time>
      </trkpt>
      <trkpt lat="45.56414" lon="4.69701">
        <ele>214.03</ele>
        <time>2021-06-17T13:29:11Z</time>
      </trkpt>
      <trkpt lat="45.56415" lon="4.6971">
        <ele>213.55</ele>
        <time>2021-06-17T13:29:12Z</time>
      </trkpt>
      <trkpt lat="45.56432" lon="4.69847">
        <ele>212.59</ele>
        <time>2021-06-17T13:29:28Z</time>
      </trkpt>
      <trkpt lat="45.56432" lon="4.69865">
        <ele>212.11</ele>
        <time>2021-06-17T13:29:30Z</time>
      </trkpt>
      <trkpt lat="45.56431" lon="4.69874">
        <ele>211.63</ele>
        <time>2021-06-17T13:29:31Z</time>
      </trkpt>
      <trkpt lat="45.56431" lon="4.69883">
        <ele>211.63</ele>
        <time>2021-06-17T13:29:32Z</time>
      </trkpt>
      <trkpt lat="45.56429" lon="4.69901">
        <ele>211.15</ele>
        <time>2021-06-17T13:29:34Z</time>
      </trkpt>
      <trkpt lat="45.56417" lon="4.69957">
        <ele>210.67</ele>
        <time>2021-06-17T13:29:40Z</time>
      </trkpt>
      <trkpt lat="45.56413" lon="4.69966">
        <ele>210.19</ele>
        <time>2021-06-17T13:29:41Z</time>
      </trkpt>
      <trkpt lat="45.56409" lon="4.69974">
        <ele>210.19</ele>
        <time>2021-06-17T13:29:42Z</time>
      </trkpt>
      <trkpt lat="45.56405" lon="4.69982">
        <ele>209.7</ele>
        <time>2021-06-17T13:29:43Z</time>
      </trkpt>
      <trkpt lat="45.564" lon="4.69989">
        <ele>210.19</ele>
        <time>2021-06-17T13:29:44Z</time>
      </trkpt>
      <trkpt lat="45.56395" lon="4.69996">
        <ele>209.7</ele>
        <time>2021-06-17T13:29:45Z</time>
      </trkpt>
      <trkpt lat="45.56382" lon="4.70017">
        <ele>209.7</ele>
        <time>2021-06-17T13:29:48Z</time>
      </trkpt>
      <trkpt lat="45.56378" lon="4.70027">
        <ele>209.7</ele>
        <time>2021-06-17T13:29:49Z</time>
      </trkpt>
      <trkpt lat="45.56377" lon="4.70036">
        <ele>209.7</ele>
        <time>2021-06-17T13:29:50Z</time>
      </trkpt>
      <trkpt lat="45.56376" lon="4.70045">
        <ele>209.7</ele>
        <time>2021-06-17T13:29:51Z</time>
      </trkpt>
      <trkpt lat="45.56378" lon="4.70054">
        <ele>209.7</ele>
        <time>2021-06-17T13:29:52Z</time>
      </trkpt>
      <trkpt lat="45.5638" lon="4.70064">
        <ele>209.22</ele>
        <time>2021-06-17T13:29:53Z</time>
      </trkpt>
      <trkpt lat="45.56382" lon="4.70072">
        <ele>208.74</ele>
        <time>2021-06-17T13:29:54Z</time>
      </trkpt>
      <trkpt lat="45.56388" lon="4.70089">
        <ele>209.22</ele>
        <time>2021-06-17T13:29:56Z</time>
      </trkpt>
      <trkpt lat="45.56392" lon="4.70097">
        <ele>208.74</ele>
        <time>2021-06-17T13:29:57Z</time>
      </trkpt>
      <trkpt lat="45.5643" lon="4.70174">
        <ele>206.82</ele>
        <time>2021-06-17T13:30:06Z</time>
      </trkpt>
      <trkpt lat="45.56491" lon="4.70271">
        <ele>206.34</ele>
        <time>2021-06-17T13:30:19Z</time>
      </trkpt>
      <trkpt lat="45.56497" lon="4.70275">
        <ele>206.34</ele>
        <time>2021-06-17T13:30:20Z</time>
      </trkpt>
      <trkpt lat="45.56504" lon="4.70278">
        <ele>205.86</ele>
        <time>2021-06-17T13:30:21Z</time>
      </trkpt>
      <trkpt lat="45.56511" lon="4.70279">
        <ele>205.38</ele>
        <time>2021-06-17T13:30:22Z</time>
      </trkpt>
      <trkpt lat="45.56518" lon="4.7028">
        <ele>205.38</ele>
        <time>2021-06-17T13:30:23Z</time>
      </trkpt>
      <trkpt lat="45.56568" lon="4.70288">
        <ele>204.42</ele>
        <time>2021-06-17T13:30:30Z</time>
      </trkpt>
      <trkpt lat="45.56575" lon="4.70292">
        <ele>204.42</ele>
        <time>2021-06-17T13:30:31Z</time>
      </trkpt>
      <trkpt lat="45.5667" lon="4.70364">
        <ele>201.53</ele>
        <time>2021-06-17T13:30:46Z</time>
      </trkpt>
      <trkpt lat="45.56758" lon="4.70475">
        <ele>201.53</ele>
        <time>2021-06-17T13:31:04Z</time>
      </trkpt>
      <trkpt lat="45.56785" lon="4.70506">
        <ele>201.53</ele>
        <time>2021-06-17T13:31:10Z</time>
      </trkpt>
      <trkpt lat="45.56797" lon="4.70525">
        <ele>201.53</ele>
        <time>2021-06-17T13:31:13Z</time>
      </trkpt>
      <trkpt lat="45.568" lon="4.70532">
        <ele>201.53</ele>
        <time>2021-06-17T13:31:14Z</time>
      </trkpt>
      <trkpt lat="45.56809" lon="4.70554">
        <ele>202.01</ele>
        <time>2021-06-17T13:31:17Z</time>
      </trkpt>
      <trkpt lat="45.5681" lon="4.70562">
        <ele>202.49</ele>
        <time>2021-06-17T13:31:18Z</time>
      </trkpt>
      <trkpt lat="45.56812" lon="4.70571">
        <ele>202.01</ele>
        <time>2021-06-17T13:31:19Z</time>
      </trkpt>
      <trkpt lat="45.56812" lon="4.70579">
        <ele>202.01</ele>
        <time>2021-06-17T13:31:20Z</time>
      </trkpt>
      <trkpt lat="45.56813" lon="4.70587">
        <ele>202.01</ele>
        <time>2021-06-17T13:31:21Z</time>
      </trkpt>
      <trkpt lat="45.56812" lon="4.70595">
        <ele>202.01</ele>
        <time>2021-06-17T13:31:22Z</time>
      </trkpt>
      <trkpt lat="45.56812" lon="4.70602">
        <ele>202.49</ele>
        <time>2021-06-17T13:31:23Z</time>
      </trkpt>
      <trkpt lat="45.56806" lon="4.70662">
        <ele>203.46</ele>
        <time>2021-06-17T13:31:31Z</time>
      </trkpt>
      <trkpt lat="45.56806" lon="4.7067">
        <ele>203.46</ele>
        <time>2021-06-17T13:31:32Z</time>
      </trkpt>
      <trkpt lat="45.56808" lon="4.70677">
        <ele>203.46</ele>
        <time>2021-06-17T13:31:33Z</time>
      </trkpt>
      <trkpt lat="45.56809" lon="4.70684">
        <ele>203.46</ele>
        <time>2021-06-17T13:31:34Z</time>
      </trkpt>
      <trkpt lat="45.56811" lon="4.70691">
        <ele>203.46</ele>
        <time>2021-06-17T13:31:35Z</time>
      </trkpt>
      <trkpt lat="45.56813" lon="4.70698">
        <ele>203.46</ele>
        <time>2021-06-17T13:31:36Z</time>
      </trkpt>
      <trkpt lat="45.56814" lon="4.70704">
        <ele>203.46</ele>
        <time>2021-06-17T13:31:37Z</time>
      </trkpt>
      <trkpt lat="45.5686" lon="4.70819">
        <ele>204.42</ele>
        <time>2021-06-17T13:31:54Z</time>
      </trkpt>
      <trkpt lat="45.56925" lon="4.70938">
        <ele>202.98</ele>
        <time>2021-06-17T13:32:12Z</time>
      </trkpt>
      <trkpt lat="45.57" lon="4.7102">
        <ele>202.01</ele>
        <time>2021-06-17T13:32:28Z</time>
      </trkpt>
      <trkpt lat="45.57038" lon="4.71048">
        <ele>201.53</ele>
        <time>2021-06-17T13:32:35Z</time>
      </trkpt>
      <trkpt lat="45.57043" lon="4.71053">
        <ele>201.05</ele>
        <time>2021-06-17T13:32:36Z</time>
      </trkpt>
      <trkpt lat="45.57122" lon="4.71142">
        <ele>200.09</ele>
        <time>2021-06-17T13:32:53Z</time>
      </trkpt>
      <trkpt lat="45.5721" lon="4.71241">
        <ele>198.17</ele>
        <time>2021-06-17T13:33:11Z</time>
      </trkpt>
      <trkpt lat="45.57293" lon="4.7133">
        <ele>197.69</ele>
        <time>2021-06-17T13:33:28Z</time>
      </trkpt>
      <trkpt lat="45.57332" lon="4.71348">
        <ele>196.73</ele>
        <time>2021-06-17T13:33:35Z</time>
      </trkpt>
      <trkpt lat="45.57344" lon="4.71349">
        <ele>198.17</ele>
        <time>2021-06-17T13:33:37Z</time>
      </trkpt>
      <trkpt lat="45.57387" lon="4.71353">
        <ele>196.25</ele>
        <time>2021-06-17T13:33:44Z</time>
      </trkpt>
      <trkpt lat="45.57393" lon="4.71355">
        <ele>195.77</ele>
        <time>2021-06-17T13:33:45Z</time>
      </trkpt>
      <trkpt lat="45.57398" lon="4.71358">
        <ele>195.77</ele>
        <time>2021-06-17T13:33:46Z</time>
      </trkpt>
      <trkpt lat="45.57404" lon="4.71362">
        <ele>196.25</ele>
        <time>2021-06-17T13:33:47Z</time>
      </trkpt>
      <trkpt lat="45.5741" lon="4.71366">
        <ele>195.77</ele>
        <time>2021-06-17T13:33:48Z</time>
      </trkpt>
      <trkpt lat="45.57415" lon="4.71371">
        <ele>195.28</ele>
        <time>2021-06-17T13:33:49Z</time>
      </trkpt>
      <trkpt lat="45.57419" lon="4.71376">
        <ele>195.28</ele>
        <time>2021-06-17T13:33:50Z</time>
      </trkpt>
      <trkpt lat="45.57424" lon="4.71381">
        <ele>195.28</ele>
        <time>2021-06-17T13:33:51Z</time>
      </trkpt>
      <trkpt lat="45.57436" lon="4.714">
        <ele>194.8</ele>
        <time>2021-06-17T13:33:54Z</time>
      </trkpt>
      <trkpt lat="45.5744" lon="4.71407">
        <ele>195.28</ele>
        <time>2021-06-17T13:33:55Z</time>
      </trkpt>
      <trkpt lat="45.57443" lon="4.71415">
        <ele>194.8</ele>
        <time>2021-06-17T13:33:56Z</time>
      </trkpt>
      <trkpt lat="45.57445" lon="4.71422">
        <ele>195.28</ele>
        <time>2021-06-17T13:33:57Z</time>
      </trkpt>
      <trkpt lat="45.57448" lon="4.7143">
        <ele>195.28</ele>
        <time>2021-06-17T13:33:58Z</time>
      </trkpt>
      <trkpt lat="45.57489" lon="4.71551">
        <ele>193.84</ele>
        <time>2021-06-17T13:34:14Z</time>
      </trkpt>
      <trkpt lat="45.57501" lon="4.7159">
        <ele>193.84</ele>
        <time>2021-06-17T13:34:19Z</time>
      </trkpt>
      <trkpt lat="45.57502" lon="4.71599">
        <ele>193.36</ele>
        <time>2021-06-17T13:34:20Z</time>
      </trkpt>
      <trkpt lat="45.57503" lon="4.71626">
        <ele>192.88</ele>
        <time>2021-06-17T13:34:23Z</time>
      </trkpt>
      <trkpt lat="45.57503" lon="4.71635">
        <ele>192.88</ele>
        <time>2021-06-17T13:34:24Z</time>
      </trkpt>
      <trkpt lat="45.57496" lon="4.71725">
        <ele>193.36</ele>
        <time>2021-06-17T13:34:34Z</time>
      </trkpt>
      <trkpt lat="45.57498" lon="4.71733">
        <ele>192.88</ele>
        <time>2021-06-17T13:34:35Z</time>
      </trkpt>
      <trkpt lat="45.575" lon="4.71742">
        <ele>192.88</ele>
        <time>2021-06-17T13:34:36Z</time>
      </trkpt>
      <trkpt lat="45.57503" lon="4.7175">
        <ele>193.36</ele>
        <time>2021-06-17T13:34:37Z</time>
      </trkpt>
      <trkpt lat="45.57507" lon="4.71758">
        <ele>192.88</ele>
        <time>2021-06-17T13:34:38Z</time>
      </trkpt>
      <trkpt lat="45.57511" lon="4.71766">
        <ele>193.36</ele>
        <time>2021-06-17T13:34:39Z</time>
      </trkpt>
      <trkpt lat="45.57515" lon="4.71773">
        <ele>192.88</ele>
        <time>2021-06-17T13:34:40Z</time>
      </trkpt>
      <trkpt lat="45.57524" lon="4.71787">
        <ele>192.88</ele>
        <time>2021-06-17T13:34:42Z</time>
      </trkpt>
      <trkpt lat="45.5753" lon="4.71792">
        <ele>192.88</ele>
        <time>2021-06-17T13:34:43Z</time>
      </trkpt>
      <trkpt lat="45.57535" lon="4.71797">
        <ele>192.88</ele>
        <time>2021-06-17T13:34:44Z</time>
      </trkpt>
      <trkpt lat="45.57547" lon="4.71805">
        <ele>192.88</ele>
        <time>2021-06-17T13:34:46Z</time>
      </trkpt>
      <trkpt lat="45.57593" lon="4.71833">
        <ele>192.88</ele>
        <time>2021-06-17T13:34:54Z</time>
      </trkpt>
      <trkpt lat="45.57598" lon="4.71839">
        <ele>192.4</ele>
        <time>2021-06-17T13:34:55Z</time>
      </trkpt>
      <trkpt lat="45.57655" lon="4.71949">
        <ele>191.92</ele>
        <time>2021-06-17T13:35:12Z</time>
      </trkpt>
      <trkpt lat="45.57703" lon="4.72075">
        <ele>191.44</ele>
        <time>2021-06-17T13:35:30Z</time>
      </trkpt>
      <trkpt lat="45.57725" lon="4.72191">
        <ele>191.44</ele>
        <time>2021-06-17T13:35:45Z</time>
      </trkpt>
      <trkpt lat="45.5776" lon="4.72267">
        <ele>191.92</ele>
        <time>2021-06-17T13:35:57Z</time>
      </trkpt>
      <trkpt lat="45.57764" lon="4.72272">
        <ele>192.4</ele>
        <time>2021-06-17T13:35:58Z</time>
      </trkpt>
      <trkpt lat="45.57839" lon="4.72325">
        <ele>191.44</ele>
        <time>2021-06-17T13:36:13Z</time>
      </trkpt>
      <trkpt lat="45.57916" lon="4.72396">
        <ele>190.48</ele>
        <time>2021-06-17T13:36:30Z</time>
      </trkpt>
      <trkpt lat="45.57958" lon="4.72497">
        <ele>190.96</ele>
        <time>2021-06-17T13:36:45Z</time>
      </trkpt>
      <trkpt lat="45.58008" lon="4.72635">
        <ele>190</ele>
        <time>2021-06-17T13:37:04Z</time>
      </trkpt>
      <trkpt lat="45.58053" lon="4.72747">
        <ele>189.52</ele>
        <time>2021-06-17T13:37:20Z</time>
      </trkpt>
      <trkpt lat="45.58054" lon="4.72755">
        <ele>189.52</ele>
        <time>2021-06-17T13:37:21Z</time>
      </trkpt>
      <trkpt lat="45.58042" lon="4.72863">
        <ele>189.04</ele>
        <time>2021-06-17T13:37:34Z</time>
      </trkpt>
      <trkpt lat="45.57999" lon="4.72996">
        <ele>188.56</ele>
        <time>2021-06-17T13:37:51Z</time>
      </trkpt>
      <trkpt lat="45.57981" lon="4.73074">
        <ele>187.59</ele>
        <time>2021-06-17T13:38:00Z</time>
      </trkpt>
      <trkpt lat="45.57955" lon="4.73229">
        <ele>186.15</ele>
        <time>2021-06-17T13:38:18Z</time>
      </trkpt>
      <trkpt lat="45.57938" lon="4.7333">
        <ele>185.67</ele>
        <time>2021-06-17T13:38:31Z</time>
      </trkpt>
      <trkpt lat="45.57938" lon="4.73337">
        <ele>185.19</ele>
        <time>2021-06-17T13:38:32Z</time>
      </trkpt>
      <trkpt lat="45.57939" lon="4.73344">
        <ele>185.67</ele>
        <time>2021-06-17T13:38:33Z</time>
      </trkpt>
      <trkpt lat="45.57943" lon="4.73367">
        <ele>185.67</ele>
        <time>2021-06-17T13:38:36Z</time>
      </trkpt>
      <trkpt lat="45.57994" lon="4.73475">
        <ele>185.19</ele>
        <time>2021-06-17T13:38:51Z</time>
      </trkpt>
      <trkpt lat="45.58063" lon="4.73614">
        <ele>184.23</ele>
        <time>2021-06-17T13:39:11Z</time>
      </trkpt>
      <trkpt lat="45.5809" lon="4.73668">
        <ele>183.27</ele>
        <time>2021-06-17T13:39:19Z</time>
      </trkpt>
      <trkpt lat="45.58093" lon="4.73675">
        <ele>183.75</ele>
        <time>2021-06-17T13:39:20Z</time>
      </trkpt>
      <trkpt lat="45.58154" lon="4.73798">
        <ele>181.83</ele>
        <time>2021-06-17T13:39:38Z</time>
      </trkpt>
      <trkpt lat="45.58202" lon="4.73897">
        <ele>182.79</ele>
        <time>2021-06-17T13:39:54Z</time>
      </trkpt>
      <trkpt lat="45.58256" lon="4.74009">
        <ele>182.79</ele>
        <time>2021-06-17T13:40:11Z</time>
      </trkpt>
      <trkpt lat="45.58267" lon="4.74043">
        <ele>183.27</ele>
        <time>2021-06-17T13:40:16Z</time>
      </trkpt>
      <trkpt lat="45.58288" lon="4.74162">
        <ele>183.27</ele>
        <time>2021-06-17T13:40:33Z</time>
      </trkpt>
      <trkpt lat="45.58312" lon="4.7427">
        <ele>183.75</ele>
        <time>2021-06-17T13:40:49Z</time>
      </trkpt>
      <trkpt lat="45.5833" lon="4.74388">
        <ele>184.23</ele>
        <time>2021-06-17T13:41:07Z</time>
      </trkpt>
      <trkpt lat="45.58358" lon="4.74521">
        <ele>183.75</ele>
        <time>2021-06-17T13:41:25Z</time>
      </trkpt>
      <trkpt lat="45.58415" lon="4.74651">
        <ele>181.83</ele>
        <time>2021-06-17T13:41:45Z</time>
      </trkpt>
      <trkpt lat="45.58458" lon="4.74744">
        <ele>182.31</ele>
        <time>2021-06-17T13:41:59Z</time>
      </trkpt>
      <trkpt lat="45.58499" lon="4.74845">
        <ele>181.35</ele>
        <time>2021-06-17T13:42:14Z</time>
      </trkpt>
      <trkpt lat="45.58516" lon="4.74962">
        <ele>181.83</ele>
        <time>2021-06-17T13:42:29Z</time>
      </trkpt>
      <trkpt lat="45.58555" lon="4.75072">
        <ele>179.9</ele>
        <time>2021-06-17T13:42:44Z</time>
      </trkpt>
      <trkpt lat="45.58602" lon="4.75196">
        <ele>177.98</ele>
        <time>2021-06-17T13:43:02Z</time>
      </trkpt>
      <trkpt lat="45.58626" lon="4.75308">
        <ele>177.5</ele>
        <time>2021-06-17T13:43:19Z</time>
      </trkpt>
      <trkpt lat="45.58625" lon="4.7531">
        <ele>177.98</ele>
        <time>2021-06-17T13:43:20Z</time>
      </trkpt>
      <trkpt lat="45.58624" lon="4.75313">
        <ele>177.5</ele>
        <time>2021-06-17T13:43:31Z</time>
      </trkpt>
      <trkpt lat="45.58608" lon="4.75332">
        <ele>178.46</ele>
        <time>2021-06-17T13:43:38Z</time>
      </trkpt>
      <trkpt lat="45.58602" lon="4.75362">
        <ele>177.98</ele>
        <time>2021-06-17T13:43:43Z</time>
      </trkpt>
      <trkpt lat="45.58603" lon="4.75368">
        <ele>177.98</ele>
        <time>2021-06-17T13:43:44Z</time>
      </trkpt>
      <trkpt lat="45.58603" lon="4.75387">
        <ele>177.5</ele>
        <time>2021-06-17T13:43:47Z</time>
      </trkpt>
      <trkpt lat="45.58602" lon="4.75394">
        <ele>177.98</ele>
        <time>2021-06-17T13:43:48Z</time>
      </trkpt>
      <trkpt lat="45.58601" lon="4.75408">
        <ele>176.54</ele>
        <time>2021-06-17T13:43:50Z</time>
      </trkpt>
      <trkpt lat="45.58601" lon="4.75416">
        <ele>177.02</ele>
        <time>2021-06-17T13:43:51Z</time>
      </trkpt>
      <trkpt lat="45.58602" lon="4.75423">
        <ele>177.02</ele>
        <time>2021-06-17T13:43:52Z</time>
      </trkpt>
      <trkpt lat="45.58605" lon="4.75429">
        <ele>177.5</ele>
        <time>2021-06-17T13:43:53Z</time>
      </trkpt>
      <trkpt lat="45.58609" lon="4.75435">
        <ele>177.02</ele>
        <time>2021-06-17T13:43:54Z</time>
      </trkpt>
      <trkpt lat="45.58613" lon="4.75441">
        <ele>177.02</ele>
        <time>2021-06-17T13:43:55Z</time>
      </trkpt>
      <trkpt lat="45.58618" lon="4.75446">
        <ele>176.06</ele>
        <time>2021-06-17T13:43:56Z</time>
      </trkpt>
      <trkpt lat="45.58623" lon="4.75452">
        <ele>176.06</ele>
        <time>2021-06-17T13:43:57Z</time>
      </trkpt>
      <trkpt lat="45.58633" lon="4.75465">
        <ele>175.58</ele>
        <time>2021-06-17T13:43:59Z</time>
      </trkpt>
      <trkpt lat="45.58637" lon="4.75473">
        <ele>175.58</ele>
        <time>2021-06-17T13:44:00Z</time>
      </trkpt>
      <trkpt lat="45.58642" lon="4.75481">
        <ele>174.62</ele>
        <time>2021-06-17T13:44:01Z</time>
      </trkpt>
      <trkpt lat="45.58645" lon="4.75491">
        <ele>175.1</ele>
        <time>2021-06-17T13:44:02Z</time>
      </trkpt>
      <trkpt lat="45.58649" lon="4.755">
        <ele>174.62</ele>
        <time>2021-06-17T13:44:03Z</time>
      </trkpt>
      <trkpt lat="45.58652" lon="4.7551">
        <ele>174.62</ele>
        <time>2021-06-17T13:44:04Z</time>
      </trkpt>
      <trkpt lat="45.58675" lon="4.75594">
        <ele>172.69</ele>
        <time>2021-06-17T13:44:12Z</time>
      </trkpt>
      <trkpt lat="45.58676" lon="4.75605">
        <ele>172.69</ele>
        <time>2021-06-17T13:44:13Z</time>
      </trkpt>
      <trkpt lat="45.58675" lon="4.75615">
        <ele>172.69</ele>
        <time>2021-06-17T13:44:14Z</time>
      </trkpt>
      <trkpt lat="45.58672" lon="4.75624">
        <ele>172.69</ele>
        <time>2021-06-17T13:44:15Z</time>
      </trkpt>
      <trkpt lat="45.58669" lon="4.75632">
        <ele>172.69</ele>
        <time>2021-06-17T13:44:16Z</time>
      </trkpt>
      <trkpt lat="45.58666" lon="4.7564">
        <ele>172.69</ele>
        <time>2021-06-17T13:44:17Z</time>
      </trkpt>
      <trkpt lat="45.58665" lon="4.75649">
        <ele>172.69</ele>
        <time>2021-06-17T13:44:18Z</time>
      </trkpt>
      <trkpt lat="45.58667" lon="4.75657">
        <ele>173.17</ele>
        <time>2021-06-17T13:44:19Z</time>
      </trkpt>
      <trkpt lat="45.58672" lon="4.75663">
        <ele>172.69</ele>
        <time>2021-06-17T13:44:20Z</time>
      </trkpt>
      <trkpt lat="45.58677" lon="4.75667">
        <ele>172.21</ele>
        <time>2021-06-17T13:44:21Z</time>
      </trkpt>
      <trkpt lat="45.58682" lon="4.7567">
        <ele>172.69</ele>
        <time>2021-06-17T13:44:22Z</time>
      </trkpt>
      <trkpt lat="45.58687" lon="4.75675">
        <ele>172.69</ele>
        <time>2021-06-17T13:44:23Z</time>
      </trkpt>
      <trkpt lat="45.58692" lon="4.7568">
        <ele>172.69</ele>
        <time>2021-06-17T13:44:24Z</time>
      </trkpt>
      <trkpt lat="45.58696" lon="4.75687">
        <ele>172.21</ele>
        <time>2021-06-17T13:44:25Z</time>
      </trkpt>
      <trkpt lat="45.587" lon="4.75695">
        <ele>172.21</ele>
        <time>2021-06-17T13:44:26Z</time>
      </trkpt>
      <trkpt lat="45.58703" lon="4.75704">
        <ele>172.21</ele>
        <time>2021-06-17T13:44:27Z</time>
      </trkpt>
      <trkpt lat="45.58706" lon="4.75713">
        <ele>172.21</ele>
        <time>2021-06-17T13:44:28Z</time>
      </trkpt>
      <trkpt lat="45.58739" lon="4.75859">
        <ele>172.21</ele>
        <time>2021-06-17T13:44:45Z</time>
      </trkpt>
      <trkpt lat="45.5877" lon="4.75989">
        <ele>173.66</ele>
        <time>2021-06-17T13:45:02Z</time>
      </trkpt>
      <trkpt lat="45.58781" lon="4.76037">
        <ele>173.17</ele>
        <time>2021-06-17T13:45:09Z</time>
      </trkpt>
      <trkpt lat="45.58782" lon="4.76043">
        <ele>173.17</ele>
        <time>2021-06-17T13:45:10Z</time>
      </trkpt>
      <trkpt lat="45.58782" lon="4.7605">
        <ele>173.66</ele>
        <time>2021-06-17T13:45:11Z</time>
      </trkpt>
      <trkpt lat="45.58784" lon="4.76057">
        <ele>173.17</ele>
        <time>2021-06-17T13:45:12Z</time>
      </trkpt>
      <trkpt lat="45.58788" lon="4.76062">
        <ele>173.17</ele>
        <time>2021-06-17T13:45:13Z</time>
      </trkpt>
      <trkpt lat="45.58792" lon="4.76063">
        <ele>173.17</ele>
        <time>2021-06-17T13:45:14Z</time>
      </trkpt>
      <trkpt lat="45.58796" lon="4.76062">
        <ele>173.17</ele>
        <time>2021-06-17T13:45:15Z</time>
      </trkpt>
      <trkpt lat="45.588" lon="4.76058">
        <ele>173.17</ele>
        <time>2021-06-17T13:45:16Z</time>
      </trkpt>
      <trkpt lat="45.58803" lon="4.76054">
        <ele>173.17</ele>
        <time>2021-06-17T13:45:17Z</time>
      </trkpt>
      <trkpt lat="45.58806" lon="4.76049">
        <ele>173.17</ele>
        <time>2021-06-17T13:45:18Z</time>
      </trkpt>
      <trkpt lat="45.58808" lon="4.76044">
        <ele>173.17</ele>
        <time>2021-06-17T13:45:19Z</time>
      </trkpt>
      <trkpt lat="45.5881" lon="4.76039">
        <ele>173.66</ele>
        <time>2021-06-17T13:45:20Z</time>
      </trkpt>
      <trkpt lat="45.58812" lon="4.76036">
        <ele>173.66</ele>
        <time>2021-06-17T13:45:21Z</time>
      </trkpt>
      <trkpt lat="45.58814" lon="4.76033">
        <ele>173.17</ele>
        <time>2021-06-17T13:45:22Z</time>
      </trkpt>
      <trkpt lat="45.58817" lon="4.76031">
        <ele>173.66</ele>
        <time>2021-06-17T13:45:23Z</time>
      </trkpt>
      <trkpt lat="45.5882" lon="4.76031">
        <ele>173.66</ele>
        <time>2021-06-17T13:45:24Z</time>
      </trkpt>
      <trkpt lat="45.58824" lon="4.76033">
        <ele>173.66</ele>
        <time>2021-06-17T13:45:25Z</time>
      </trkpt>
      <trkpt lat="45.58827" lon="4.76037">
        <ele>173.66</ele>
        <time>2021-06-17T13:45:26Z</time>
      </trkpt>
      <trkpt lat="45.58829" lon="4.76042">
        <ele>173.66</ele>
        <time>2021-06-17T13:45:27Z</time>
      </trkpt>
      <trkpt lat="45.58832" lon="4.76047">
        <ele>174.62</ele>
        <time>2021-06-17T13:45:28Z</time>
      </trkpt>
      <trkpt lat="45.5884" lon="4.76069">
        <ele>173.17</ele>
        <time>2021-06-17T13:45:31Z</time>
      </trkpt>
      <trkpt lat="45.58851" lon="4.76095">
        <ele>171.73</ele>
        <time>2021-06-17T13:45:34Z</time>
      </trkpt>
      <trkpt lat="45.58863" lon="4.7612">
        <ele>170.29</ele>
        <time>2021-06-17T13:45:37Z</time>
      </trkpt>
      <trkpt lat="45.58867" lon="4.76127">
        <ele>171.25</ele>
        <time>2021-06-17T13:45:38Z</time>
      </trkpt>
      <trkpt lat="45.58873" lon="4.76132">
        <ele>170.77</ele>
        <time>2021-06-17T13:45:39Z</time>
      </trkpt>
      <trkpt lat="45.58879" lon="4.76136">
        <ele>170.77</ele>
        <time>2021-06-17T13:45:40Z</time>
      </trkpt>
      <trkpt lat="45.58884" lon="4.76139">
        <ele>170.77</ele>
        <time>2021-06-17T13:45:41Z</time>
      </trkpt>
      <trkpt lat="45.5889" lon="4.7614">
        <ele>170.77</ele>
        <time>2021-06-17T13:45:42Z</time>
      </trkpt>
      <trkpt lat="45.58896" lon="4.76142">
        <ele>170.77</ele>
        <time>2021-06-17T13:45:43Z</time>
      </trkpt>
      <trkpt lat="45.58968" lon="4.76171">
        <ele>171.25</ele>
        <time>2021-06-17T13:45:57Z</time>
      </trkpt>
      <trkpt lat="45.58976" lon="4.76174">
        <ele>171.25</ele>
        <time>2021-06-17T13:46:04Z</time>
      </trkpt>
      <trkpt lat="45.58977" lon="4.76176">
        <ele>171.25</ele>
        <time>2021-06-17T13:46:12Z</time>
      </trkpt>
      <trkpt lat="45.58979" lon="4.76177">
        <ele>171.25</ele>
        <time>2021-06-17T13:46:14Z</time>
      </trkpt>
      <trkpt lat="45.5898" lon="4.76178">
        <ele>171.25</ele>
        <time>2021-06-17T13:46:15Z</time>
      </trkpt>
      <trkpt lat="45.58982" lon="4.76178">
        <ele>171.25</ele>
        <time>2021-06-17T13:46:16Z</time>
      </trkpt>
      <trkpt lat="45.58983" lon="4.76179">
        <ele>171.73</ele>
        <time>2021-06-17T13:46:17Z</time>
      </trkpt>
      <trkpt lat="45.58985" lon="4.7618">
        <ele>171.25</ele>
        <time>2021-06-17T13:46:18Z</time>
      </trkpt>
      <trkpt lat="45.58986" lon="4.76183">
        <ele>171.73</ele>
        <time>2021-06-17T13:46:19Z</time>
      </trkpt>
      <trkpt lat="45.58988" lon="4.76185">
        <ele>171.73</ele>
        <time>2021-06-17T13:46:20Z</time>
      </trkpt>
      <trkpt lat="45.5899" lon="4.76188">
        <ele>171.73</ele>
        <time>2021-06-17T13:46:21Z</time>
      </trkpt>
      <trkpt lat="45.58992" lon="4.7619">
        <ele>171.73</ele>
        <time>2021-06-17T13:46:22Z</time>
      </trkpt>
      <trkpt lat="45.59035" lon="4.76229">
        <ele>170.77</ele>
        <time>2021-06-17T13:46:32Z</time>
      </trkpt>
      <trkpt lat="45.5906" lon="4.76254">
        <ele>171.25</ele>
        <time>2021-06-17T13:46:36Z</time>
      </trkpt>
      <trkpt lat="45.59067" lon="4.76258">
        <ele>170.77</ele>
        <time>2021-06-17T13:46:37Z</time>
      </trkpt>
      <trkpt lat="45.59163" lon="4.76292">
        <ele>170.29</ele>
        <time>2021-06-17T13:46:49Z</time>
      </trkpt>
      <trkpt lat="45.59268" lon="4.76356">
        <ele>169.81</ele>
        <time>2021-06-17T13:47:05Z</time>
      </trkpt>
      <trkpt lat="45.59315" lon="4.76396">
        <ele>169.81</ele>
        <time>2021-06-17T13:47:16Z</time>
      </trkpt>
      <trkpt lat="45.59339" lon="4.76425">
        <ele>169.81</ele>
        <time>2021-06-17T13:47:22Z</time>
      </trkpt>
      <trkpt lat="45.59344" lon="4.76429">
        <ele>169.81</ele>
        <time>2021-06-17T13:47:23Z</time>
      </trkpt>
      <trkpt lat="45.59418" lon="4.76486">
        <ele>169.33</ele>
        <time>2021-06-17T13:47:37Z</time>
      </trkpt>
      <trkpt lat="45.5952" lon="4.76567">
        <ele>168.85</ele>
        <time>2021-06-17T13:47:54Z</time>
      </trkpt>
      <trkpt lat="45.59612" lon="4.76646">
        <ele>168.85</ele>
        <time>2021-06-17T13:48:10Z</time>
      </trkpt>
      <trkpt lat="45.59654" lon="4.76675">
        <ele>169.33</ele>
        <time>2021-06-17T13:48:17Z</time>
      </trkpt>
      <trkpt lat="45.59661" lon="4.76676">
        <ele>170.29</ele>
        <time>2021-06-17T13:48:18Z</time>
      </trkpt>
      <trkpt lat="45.59714" lon="4.76682">
        <ele>170.77</ele>
        <time>2021-06-17T13:48:26Z</time>
      </trkpt>
      <trkpt lat="45.59756" lon="4.76708">
        <ele>171.25</ele>
        <time>2021-06-17T13:48:33Z</time>
      </trkpt>
      <trkpt lat="45.59837" lon="4.76796">
        <ele>170.77</ele>
        <time>2021-06-17T13:48:48Z</time>
      </trkpt>
      <trkpt lat="45.59874" lon="4.76876">
        <ele>170.29</ele>
        <time>2021-06-17T13:49:01Z</time>
      </trkpt>
      <trkpt lat="45.59876" lon="4.76884">
        <ele>170.29</ele>
        <time>2021-06-17T13:49:14Z</time>
      </trkpt>
      <trkpt lat="45.5989" lon="4.76918">
        <ele>169.81</ele>
        <time>2021-06-17T13:49:24Z</time>
      </trkpt>
      <trkpt lat="45.59895" lon="4.7692">
        <ele>169.81</ele>
        <time>2021-06-17T13:49:25Z</time>
      </trkpt>
      <trkpt lat="45.599" lon="4.76921">
        <ele>170.29</ele>
        <time>2021-06-17T13:49:26Z</time>
      </trkpt>
      <trkpt lat="45.59995" lon="4.7696">
        <ele>170.77</ele>
        <time>2021-06-17T13:49:42Z</time>
      </trkpt>
      <trkpt lat="45.601" lon="4.77003">
        <ele>170.77</ele>
        <time>2021-06-17T13:49:58Z</time>
      </trkpt>
      <trkpt lat="45.60157" lon="4.77029">
        <ele>171.25</ele>
        <time>2021-06-17T13:50:11Z</time>
      </trkpt>
      <trkpt lat="45.60183" lon="4.77043">
        <ele>171.25</ele>
        <time>2021-06-17T13:50:22Z</time>
      </trkpt>
      <trkpt lat="45.60191" lon="4.77047">
        <ele>171.25</ele>
        <time>2021-06-17T13:50:24Z</time>
      </trkpt>
      <trkpt lat="45.60275" lon="4.77076">
        <ele>173.66</ele>
        <time>2021-06-17T13:50:40Z</time>
      </trkpt>
      <trkpt lat="45.60382" lon="4.77118">
        <ele>174.14</ele>
        <time>2021-06-17T13:51:00Z</time>
      </trkpt>
      <trkpt lat="45.60503" lon="4.77167">
        <ele>173.17</ele>
        <time>2021-06-17T13:51:21Z</time>
      </trkpt>
      <trkpt lat="45.60548" lon="4.77189">
        <ele>173.66</ele>
        <time>2021-06-17T13:51:29Z</time>
      </trkpt>
      <trkpt lat="45.60661" lon="4.77237">
        <ele>174.14</ele>
        <time>2021-06-17T13:51:50Z</time>
      </trkpt>
      <trkpt lat="45.60709" lon="4.77259">
        <ele>175.1</ele>
        <time>2021-06-17T13:52:01Z</time>
      </trkpt>
      <trkpt lat="45.60724" lon="4.77265">
        <ele>174.62</ele>
        <time>2021-06-17T13:52:04Z</time>
      </trkpt>
      <trkpt lat="45.60729" lon="4.77267">
        <ele>175.1</ele>
        <time>2021-06-17T13:52:05Z</time>
      </trkpt>
      <trkpt lat="45.60811" lon="4.77256">
        <ele>175.58</ele>
        <time>2021-06-17T13:52:20Z</time>
      </trkpt>
      <trkpt lat="45.60897" lon="4.77214">
        <ele>175.58</ele>
        <time>2021-06-17T13:52:36Z</time>
      </trkpt>
      <trkpt lat="45.61014" lon="4.7716">
        <ele>175.58</ele>
        <time>2021-06-17T13:52:56Z</time>
      </trkpt>
      <trkpt lat="45.61025" lon="4.77154">
        <ele>175.1</ele>
        <time>2021-06-17T13:52:58Z</time>
      </trkpt>
      <trkpt lat="45.61156" lon="4.77092">
        <ele>176.06</ele>
        <time>2021-06-17T13:53:22Z</time>
      </trkpt>
      <trkpt lat="45.61248" lon="4.77047">
        <ele>176.54</ele>
        <time>2021-06-17T13:53:39Z</time>
      </trkpt>
      <trkpt lat="45.61309" lon="4.77016">
        <ele>177.02</ele>
        <time>2021-06-17T13:53:51Z</time>
      </trkpt>
      <trkpt lat="45.61319" lon="4.77009">
        <ele>177.02</ele>
        <time>2021-06-17T13:53:53Z</time>
      </trkpt>
      <trkpt lat="45.61416" lon="4.76961">
        <ele>177.5</ele>
        <time>2021-06-17T13:54:12Z</time>
      </trkpt>
      <trkpt lat="45.61531" lon="4.76904">
        <ele>178.94</ele>
        <time>2021-06-17T13:54:34Z</time>
      </trkpt>
      <trkpt lat="45.61615" lon="4.76864">
        <ele>179.42</ele>
        <time>2021-06-17T13:54:50Z</time>
      </trkpt>
      <trkpt lat="45.61678" lon="4.76841">
        <ele>179.42</ele>
        <time>2021-06-17T13:55:02Z</time>
      </trkpt>
      <trkpt lat="45.61683" lon="4.76842">
        <ele>179.42</ele>
        <time>2021-06-17T13:55:03Z</time>
      </trkpt>
      <trkpt lat="45.61689" lon="4.76844">
        <ele>179.9</ele>
        <time>2021-06-17T13:55:04Z</time>
      </trkpt>
      <trkpt lat="45.61694" lon="4.76847">
        <ele>179.42</ele>
        <time>2021-06-17T13:55:05Z</time>
      </trkpt>
      <trkpt lat="45.61699" lon="4.76851">
        <ele>179.9</ele>
        <time>2021-06-17T13:55:06Z</time>
      </trkpt>
      <trkpt lat="45.61704" lon="4.76854">
        <ele>179.42</ele>
        <time>2021-06-17T13:55:07Z</time>
      </trkpt>
      <trkpt lat="45.6171" lon="4.76855">
        <ele>179.42</ele>
        <time>2021-06-17T13:55:08Z</time>
      </trkpt>
      <trkpt lat="45.61715" lon="4.76854">
        <ele>179.42</ele>
        <time>2021-06-17T13:55:09Z</time>
      </trkpt>
      <trkpt lat="45.6172" lon="4.76852">
        <ele>179.9</ele>
        <time>2021-06-17T13:55:10Z</time>
      </trkpt>
      <trkpt lat="45.61726" lon="4.7685">
        <ele>179.9</ele>
        <time>2021-06-17T13:55:11Z</time>
      </trkpt>
      <trkpt lat="45.61752" lon="4.76835">
        <ele>180.38</ele>
        <time>2021-06-17T13:55:16Z</time>
      </trkpt>
      <trkpt lat="45.61756" lon="4.76831">
        <ele>179.9</ele>
        <time>2021-06-17T13:55:17Z</time>
      </trkpt>
      <trkpt lat="45.61761" lon="4.76826">
        <ele>179.9</ele>
        <time>2021-06-17T13:55:18Z</time>
      </trkpt>
      <trkpt lat="45.61765" lon="4.7682">
        <ele>179.9</ele>
        <time>2021-06-17T13:55:19Z</time>
      </trkpt>
      <trkpt lat="45.61768" lon="4.76814">
        <ele>179.9</ele>
        <time>2021-06-17T13:55:20Z</time>
      </trkpt>
      <trkpt lat="45.61783" lon="4.7679">
        <ele>179.42</ele>
        <time>2021-06-17T13:55:24Z</time>
      </trkpt>
      <trkpt lat="45.61808" lon="4.7677">
        <ele>180.87</ele>
        <time>2021-06-17T13:55:29Z</time>
      </trkpt>
      <trkpt lat="45.61901" lon="4.76723">
        <ele>180.87</ele>
        <time>2021-06-17T13:55:46Z</time>
      </trkpt>
      <trkpt lat="45.62001" lon="4.76673">
        <ele>181.83</ele>
        <time>2021-06-17T13:56:05Z</time>
      </trkpt>
      <trkpt lat="45.62076" lon="4.76632">
        <ele>182.79</ele>
        <time>2021-06-17T13:56:20Z</time>
      </trkpt>
      <trkpt lat="45.62141" lon="4.76584">
        <ele>183.27</ele>
        <time>2021-06-17T13:56:34Z</time>
      </trkpt>
      <trkpt lat="45.62218" lon="4.76509">
        <ele>185.19</ele>
        <time>2021-06-17T13:56:51Z</time>
      </trkpt>
      <trkpt lat="45.62255" lon="4.76469">
        <ele>184.23</ele>
        <time>2021-06-17T13:56:59Z</time>
      </trkpt>
      <trkpt lat="45.62295" lon="4.76425">
        <ele>185.19</ele>
        <time>2021-06-17T13:57:08Z</time>
      </trkpt>
      <trkpt lat="45.623" lon="4.7642">
        <ele>184.71</ele>
        <time>2021-06-17T13:57:09Z</time>
      </trkpt>
      <trkpt lat="45.62304" lon="4.76415">
        <ele>184.71</ele>
        <time>2021-06-17T13:57:10Z</time>
      </trkpt>
      <trkpt lat="45.62308" lon="4.76411">
        <ele>184.71</ele>
        <time>2021-06-17T13:57:11Z</time>
      </trkpt>
      <trkpt lat="45.62312" lon="4.76406">
        <ele>184.71</ele>
        <time>2021-06-17T13:57:12Z</time>
      </trkpt>
      <trkpt lat="45.62384" lon="4.76329">
        <ele>185.19</ele>
        <time>2021-06-17T13:57:28Z</time>
      </trkpt>
      <trkpt lat="45.62471" lon="4.76234">
        <ele>185.67</ele>
        <time>2021-06-17T13:57:48Z</time>
      </trkpt>
      <trkpt lat="45.62552" lon="4.76159">
        <ele>186.15</ele>
        <time>2021-06-17T13:58:05Z</time>
      </trkpt>
      <trkpt lat="45.62635" lon="4.76092">
        <ele>187.11</ele>
        <time>2021-06-17T13:58:22Z</time>
      </trkpt>
      <trkpt lat="45.62706" lon="4.76033">
        <ele>187.59</ele>
        <time>2021-06-17T13:58:37Z</time>
      </trkpt>
      <trkpt lat="45.62773" lon="4.75977">
        <ele>188.08</ele>
        <time>2021-06-17T13:58:51Z</time>
      </trkpt>
      <trkpt lat="45.62848" lon="4.75917">
        <ele>188.56</ele>
        <time>2021-06-17T13:59:06Z</time>
      </trkpt>
      <trkpt lat="45.62921" lon="4.75856">
        <ele>189.52</ele>
        <time>2021-06-17T13:59:21Z</time>
      </trkpt>
      <trkpt lat="45.63024" lon="4.75781">
        <ele>190.96</ele>
        <time>2021-06-17T13:59:41Z</time>
      </trkpt>
      <trkpt lat="45.6313" lon="4.75728">
        <ele>191.92</ele>
        <time>2021-06-17T14:00:01Z</time>
      </trkpt>
      <trkpt lat="45.63171" lon="4.75709">
        <ele>192.4</ele>
        <time>2021-06-17T14:00:09Z</time>
      </trkpt>
      <trkpt lat="45.63278" lon="4.7566">
        <ele>193.36</ele>
        <time>2021-06-17T14:00:30Z</time>
      </trkpt>
      <trkpt lat="45.63373" lon="4.75616">
        <ele>193.84</ele>
        <time>2021-06-17T14:00:48Z</time>
      </trkpt>
      <trkpt lat="45.63479" lon="4.75589">
        <ele>193.84</ele>
        <time>2021-06-17T14:01:07Z</time>
      </trkpt>
      <trkpt lat="45.63581" lon="4.7561">
        <ele>193.84</ele>
        <time>2021-06-17T14:01:25Z</time>
      </trkpt>
      <trkpt lat="45.63686" lon="4.75627">
        <ele>194.32</ele>
        <time>2021-06-17T14:01:44Z</time>
      </trkpt>
      <trkpt lat="45.63766" lon="4.75631">
        <ele>195.28</ele>
        <time>2021-06-17T14:01:58Z</time>
      </trkpt>
      <trkpt lat="45.6383" lon="4.75635">
        <ele>196.73</ele>
        <time>2021-06-17T14:02:10Z</time>
      </trkpt>
      <trkpt lat="45.63886" lon="4.75633">
        <ele>198.17</ele>
        <time>2021-06-17T14:02:21Z</time>
      </trkpt>
      <trkpt lat="45.63928" lon="4.75628">
        <ele>199.13</ele>
        <time>2021-06-17T14:02:29Z</time>
      </trkpt>
      <trkpt lat="45.64004" lon="4.75586">
        <ele>200.09</ele>
        <time>2021-06-17T14:02:45Z</time>
      </trkpt>
      <trkpt lat="45.64009" lon="4.75585">
        <ele>200.09</ele>
        <time>2021-06-17T14:02:46Z</time>
      </trkpt>
      <trkpt lat="45.64014" lon="4.75584">
        <ele>200.09</ele>
        <time>2021-06-17T14:02:47Z</time>
      </trkpt>
      <trkpt lat="45.64019" lon="4.75582">
        <ele>200.09</ele>
        <time>2021-06-17T14:02:48Z</time>
      </trkpt>
      <trkpt lat="45.64023" lon="4.75578">
        <ele>200.09</ele>
        <time>2021-06-17T14:02:49Z</time>
      </trkpt>
      <trkpt lat="45.64027" lon="4.75572">
        <ele>200.57</ele>
        <time>2021-06-17T14:02:50Z</time>
      </trkpt>
      <trkpt lat="45.64029" lon="4.75565">
        <ele>200.57</ele>
        <time>2021-06-17T14:02:51Z</time>
      </trkpt>
      <trkpt lat="45.6403" lon="4.75557">
        <ele>200.09</ele>
        <time>2021-06-17T14:02:52Z</time>
      </trkpt>
      <trkpt lat="45.64031" lon="4.75549">
        <ele>200.09</ele>
        <time>2021-06-17T14:02:53Z</time>
      </trkpt>
      <trkpt lat="45.64031" lon="4.75541">
        <ele>200.09</ele>
        <time>2021-06-17T14:02:54Z</time>
      </trkpt>
      <trkpt lat="45.64032" lon="4.75534">
        <ele>200.09</ele>
        <time>2021-06-17T14:02:55Z</time>
      </trkpt>
      <trkpt lat="45.64035" lon="4.75526">
        <ele>200.09</ele>
        <time>2021-06-17T14:02:56Z</time>
      </trkpt>
      <trkpt lat="45.64038" lon="4.7552">
        <ele>199.61</ele>
        <time>2021-06-17T14:02:57Z</time>
      </trkpt>
      <trkpt lat="45.64043" lon="4.75513">
        <ele>199.61</ele>
        <time>2021-06-17T14:02:58Z</time>
      </trkpt>
      <trkpt lat="45.64126" lon="4.75406">
        <ele>200.57</ele>
        <time>2021-06-17T14:03:18Z</time>
      </trkpt>
      <trkpt lat="45.64206" lon="4.75308">
        <ele>203.94</ele>
        <time>2021-06-17T14:03:38Z</time>
      </trkpt>
      <trkpt lat="45.6421" lon="4.75304">
        <ele>203.94</ele>
        <time>2021-06-17T14:03:39Z</time>
      </trkpt>
      <trkpt lat="45.64218" lon="4.75295">
        <ele>202.49</ele>
        <time>2021-06-17T14:03:41Z</time>
      </trkpt>
      <trkpt lat="45.64285" lon="4.75239">
        <ele>202.49</ele>
        <time>2021-06-17T14:03:55Z</time>
      </trkpt>
      <trkpt lat="45.64366" lon="4.75201">
        <ele>204.9</ele>
        <time>2021-06-17T14:04:12Z</time>
      </trkpt>
      <trkpt lat="45.64448" lon="4.75185">
        <ele>207.3</ele>
        <time>2021-06-17T14:04:29Z</time>
      </trkpt>
      <trkpt lat="45.64523" lon="4.75177">
        <ele>208.74</ele>
        <time>2021-06-17T14:04:45Z</time>
      </trkpt>
      <trkpt lat="45.64613" lon="4.75169">
        <ele>211.15</ele>
        <time>2021-06-17T14:05:05Z</time>
      </trkpt>
      <trkpt lat="45.64695" lon="4.75162">
        <ele>213.07</ele>
        <time>2021-06-17T14:05:23Z</time>
      </trkpt>
      <trkpt lat="45.64801" lon="4.75154">
        <ele>212.59</ele>
        <time>2021-06-17T14:05:43Z</time>
      </trkpt>
      <trkpt lat="45.6489" lon="4.75146">
        <ele>212.59</ele>
        <time>2021-06-17T14:06:00Z</time>
      </trkpt>
      <trkpt lat="45.65006" lon="4.75138">
        <ele>213.07</ele>
        <time>2021-06-17T14:06:23Z</time>
      </trkpt>
      <trkpt lat="45.65105" lon="4.75128">
        <ele>213.55</ele>
        <time>2021-06-17T14:06:41Z</time>
      </trkpt>
      <trkpt lat="45.65219" lon="4.75116">
        <ele>214.51</ele>
        <time>2021-06-17T14:07:01Z</time>
      </trkpt>
      <trkpt lat="45.65306" lon="4.7511">
        <ele>214.51</ele>
        <time>2021-06-17T14:07:19Z</time>
      </trkpt>
      <trkpt lat="45.65317" lon="4.75108">
        <ele>214.51</ele>
        <time>2021-06-17T14:07:31Z</time>
      </trkpt>
      <trkpt lat="45.65316" lon="4.75108">
        <ele>214.99</ele>
        <time>2021-06-17T14:07:56Z</time>
      </trkpt>
      <trkpt lat="45.65316" lon="4.7511">
        <ele>214.51</ele>
        <time>2021-06-17T14:08:17Z</time>
      </trkpt>
      <trkpt lat="45.65327" lon="4.75112">
        <ele>214.51</ele>
        <time>2021-06-17T14:08:34Z</time>
      </trkpt>
      <trkpt lat="45.65337" lon="4.75169">
        <ele>214.03</ele>
        <time>2021-06-17T14:08:44Z</time>
      </trkpt>
      <trkpt lat="45.65351" lon="4.75236">
        <ele>214.51</ele>
        <time>2021-06-17T14:08:53Z</time>
      </trkpt>
      <trkpt lat="45.65354" lon="4.75243">
        <ele>214.03</ele>
        <time>2021-06-17T14:08:54Z</time>
      </trkpt>
      <trkpt lat="45.65358" lon="4.75249">
        <ele>214.51</ele>
        <time>2021-06-17T14:08:55Z</time>
      </trkpt>
      <trkpt lat="45.65418" lon="4.75333">
        <ele>213.55</ele>
        <time>2021-06-17T14:09:10Z</time>
      </trkpt>
      <trkpt lat="45.6546" lon="4.75429">
        <ele>214.03</ele>
        <time>2021-06-17T14:09:25Z</time>
      </trkpt>
      <trkpt lat="45.65468" lon="4.75459">
        <ele>213.07</ele>
        <time>2021-06-17T14:09:29Z</time>
      </trkpt>
      <trkpt lat="45.65469" lon="4.75467">
        <ele>213.55</ele>
        <time>2021-06-17T14:09:30Z</time>
      </trkpt>
      <trkpt lat="45.65465" lon="4.75591">
        <ele>214.51</ele>
        <time>2021-06-17T14:09:46Z</time>
      </trkpt>
      <trkpt lat="45.65463" lon="4.75681">
        <ele>214.03</ele>
        <time>2021-06-17T14:09:58Z</time>
      </trkpt>
      <trkpt lat="45.65464" lon="4.75689">
        <ele>214.51</ele>
        <time>2021-06-17T14:09:59Z</time>
      </trkpt>
      <trkpt lat="45.65506" lon="4.75793">
        <ele>214.51</ele>
        <time>2021-06-17T14:10:14Z</time>
      </trkpt>
      <trkpt lat="45.65568" lon="4.75904">
        <ele>214.51</ele>
        <time>2021-06-17T14:10:32Z</time>
      </trkpt>
      <trkpt lat="45.65643" lon="4.76015">
        <ele>214.03</ele>
        <time>2021-06-17T14:10:51Z</time>
      </trkpt>
      <trkpt lat="45.65646" lon="4.76022">
        <ele>214.03</ele>
        <time>2021-06-17T14:10:52Z</time>
      </trkpt>
      <trkpt lat="45.6565" lon="4.76038">
        <ele>213.07</ele>
        <time>2021-06-17T14:10:54Z</time>
      </trkpt>
      <trkpt lat="45.65654" lon="4.76046">
        <ele>213.07</ele>
        <time>2021-06-17T14:10:55Z</time>
      </trkpt>
      <trkpt lat="45.65659" lon="4.76052">
        <ele>213.07</ele>
        <time>2021-06-17T14:10:56Z</time>
      </trkpt>
      <trkpt lat="45.65711" lon="4.76134">
        <ele>210.19</ele>
        <time>2021-06-17T14:11:06Z</time>
      </trkpt>
      <trkpt lat="45.6574" lon="4.76241">
        <ele>208.74</ele>
        <time>2021-06-17T14:11:16Z</time>
      </trkpt>
      <trkpt lat="45.65764" lon="4.76397">
        <ele>207.78</ele>
        <time>2021-06-17T14:11:33Z</time>
      </trkpt>
      <trkpt lat="45.65769" lon="4.7642">
        <ele>208.74</ele>
        <time>2021-06-17T14:11:36Z</time>
      </trkpt>
      <trkpt lat="45.65782" lon="4.76459">
        <ele>209.22</ele>
        <time>2021-06-17T14:11:42Z</time>
      </trkpt>
      <trkpt lat="45.65786" lon="4.76471">
        <ele>209.7</ele>
        <time>2021-06-17T14:11:44Z</time>
      </trkpt>
      <trkpt lat="45.65788" lon="4.76478">
        <ele>210.19</ele>
        <time>2021-06-17T14:11:45Z</time>
      </trkpt>
      <trkpt lat="45.65791" lon="4.76484">
        <ele>210.19</ele>
        <time>2021-06-17T14:11:46Z</time>
      </trkpt>
      <trkpt lat="45.65799" lon="4.7651">
        <ele>210.67</ele>
        <time>2021-06-17T14:11:50Z</time>
      </trkpt>
      <trkpt lat="45.65807" lon="4.76527">
        <ele>210.67</ele>
        <time>2021-06-17T14:11:53Z</time>
      </trkpt>
      <trkpt lat="45.65811" lon="4.76531">
        <ele>210.67</ele>
        <time>2021-06-17T14:11:54Z</time>
      </trkpt>
      <trkpt lat="45.65815" lon="4.76532">
        <ele>211.15</ele>
        <time>2021-06-17T14:11:55Z</time>
      </trkpt>
      <trkpt lat="45.6582" lon="4.76532">
        <ele>211.15</ele>
        <time>2021-06-17T14:11:56Z</time>
      </trkpt>
      <trkpt lat="45.65825" lon="4.76529">
        <ele>211.15</ele>
        <time>2021-06-17T14:11:57Z</time>
      </trkpt>
      <trkpt lat="45.6583" lon="4.76526">
        <ele>211.15</ele>
        <time>2021-06-17T14:11:58Z</time>
      </trkpt>
      <trkpt lat="45.6587" lon="4.76506">
        <ele>211.15</ele>
        <time>2021-06-17T14:12:06Z</time>
      </trkpt>
      <trkpt lat="45.65959" lon="4.76455">
        <ele>211.15</ele>
        <time>2021-06-17T14:12:24Z</time>
      </trkpt>
      <trkpt lat="45.66033" lon="4.76421">
        <ele>210.67</ele>
        <time>2021-06-17T14:12:39Z</time>
      </trkpt>
      <trkpt lat="45.66037" lon="4.76422">
        <ele>210.67</ele>
        <time>2021-06-17T14:12:40Z</time>
      </trkpt>
      <trkpt lat="45.66041" lon="4.76424">
        <ele>210.67</ele>
        <time>2021-06-17T14:12:41Z</time>
      </trkpt>
      <trkpt lat="45.66044" lon="4.76425">
        <ele>210.67</ele>
        <time>2021-06-17T14:12:42Z</time>
      </trkpt>
      <trkpt lat="45.66048" lon="4.76425">
        <ele>210.67</ele>
        <time>2021-06-17T14:12:43Z</time>
      </trkpt>
      <trkpt lat="45.66052" lon="4.76423">
        <ele>210.67</ele>
        <time>2021-06-17T14:12:44Z</time>
      </trkpt>
      <trkpt lat="45.66056" lon="4.7642">
        <ele>210.67</ele>
        <time>2021-06-17T14:12:45Z</time>
      </trkpt>
      <trkpt lat="45.66065" lon="4.76414">
        <ele>210.67</ele>
        <time>2021-06-17T14:12:47Z</time>
      </trkpt>
      <trkpt lat="45.6607" lon="4.76411">
        <ele>210.67</ele>
        <time>2021-06-17T14:12:48Z</time>
      </trkpt>
      <trkpt lat="45.66157" lon="4.76389">
        <ele>210.67</ele>
        <time>2021-06-17T14:13:04Z</time>
      </trkpt>
      <trkpt lat="45.66252" lon="4.76365">
        <ele>212.59</ele>
        <time>2021-06-17T14:13:24Z</time>
      </trkpt>
      <trkpt lat="45.66341" lon="4.76321">
        <ele>213.55</ele>
        <time>2021-06-17T14:13:43Z</time>
      </trkpt>
      <trkpt lat="45.66345" lon="4.76316">
        <ele>213.55</ele>
        <time>2021-06-17T14:13:44Z</time>
      </trkpt>
      <trkpt lat="45.66399" lon="4.76215">
        <ele>213.07</ele>
        <time>2021-06-17T14:14:00Z</time>
      </trkpt>
      <trkpt lat="45.66403" lon="4.76209">
        <ele>213.07</ele>
        <time>2021-06-17T14:14:01Z</time>
      </trkpt>
      <trkpt lat="45.66408" lon="4.76204">
        <ele>212.59</ele>
        <time>2021-06-17T14:14:02Z</time>
      </trkpt>
      <trkpt lat="45.66413" lon="4.762">
        <ele>212.59</ele>
        <time>2021-06-17T14:14:03Z</time>
      </trkpt>
      <trkpt lat="45.66423" lon="4.76192">
        <ele>213.07</ele>
        <time>2021-06-17T14:14:05Z</time>
      </trkpt>
      <trkpt lat="45.66429" lon="4.76188">
        <ele>212.59</ele>
        <time>2021-06-17T14:14:06Z</time>
      </trkpt>
      <trkpt lat="45.66434" lon="4.76185">
        <ele>212.11</ele>
        <time>2021-06-17T14:14:07Z</time>
      </trkpt>
      <trkpt lat="45.6644" lon="4.76183">
        <ele>212.59</ele>
        <time>2021-06-17T14:14:08Z</time>
      </trkpt>
      <trkpt lat="45.66445" lon="4.76182">
        <ele>212.59</ele>
        <time>2021-06-17T14:14:09Z</time>
      </trkpt>
      <trkpt lat="45.66451" lon="4.7618">
        <ele>212.59</ele>
        <time>2021-06-17T14:14:10Z</time>
      </trkpt>
      <trkpt lat="45.66457" lon="4.7618">
        <ele>212.59</ele>
        <time>2021-06-17T14:14:11Z</time>
      </trkpt>
      <trkpt lat="45.66462" lon="4.7618">
        <ele>212.11</ele>
        <time>2021-06-17T14:14:12Z</time>
      </trkpt>
      <trkpt lat="45.66549" lon="4.76179">
        <ele>213.55</ele>
        <time>2021-06-17T14:14:29Z</time>
      </trkpt>
      <trkpt lat="45.66585" lon="4.76163">
        <ele>214.03</ele>
        <time>2021-06-17T14:14:36Z</time>
      </trkpt>
      <trkpt lat="45.66599" lon="4.76151">
        <ele>214.51</ele>
        <time>2021-06-17T14:14:39Z</time>
      </trkpt>
      <trkpt lat="45.66603" lon="4.76146">
        <ele>214.99</ele>
        <time>2021-06-17T14:14:40Z</time>
      </trkpt>
      <trkpt lat="45.66613" lon="4.7613">
        <ele>214.51</ele>
        <time>2021-06-17T14:14:43Z</time>
      </trkpt>
      <trkpt lat="45.6667" lon="4.76022">
        <ele>214.99</ele>
        <time>2021-06-17T14:15:01Z</time>
      </trkpt>
      <trkpt lat="45.66709" lon="4.75935">
        <ele>214.99</ele>
        <time>2021-06-17T14:15:15Z</time>
      </trkpt>
      <trkpt lat="45.66713" lon="4.7593">
        <ele>214.99</ele>
        <time>2021-06-17T14:15:16Z</time>
      </trkpt>
      <trkpt lat="45.66716" lon="4.75926">
        <ele>214.99</ele>
        <time>2021-06-17T14:15:17Z</time>
      </trkpt>
      <trkpt lat="45.6672" lon="4.75921">
        <ele>215.47</ele>
        <time>2021-06-17T14:15:18Z</time>
      </trkpt>
      <trkpt lat="45.66723" lon="4.75916">
        <ele>215.47</ele>
        <time>2021-06-17T14:15:19Z</time>
      </trkpt>
      <trkpt lat="45.66726" lon="4.75911">
        <ele>215.47</ele>
        <time>2021-06-17T14:15:20Z</time>
      </trkpt>
      <trkpt lat="45.66729" lon="4.75905">
        <ele>215.47</ele>
        <time>2021-06-17T14:15:21Z</time>
      </trkpt>
      <trkpt lat="45.66732" lon="4.75899">
        <ele>215.47</ele>
        <time>2021-06-17T14:15:22Z</time>
      </trkpt>
      <trkpt lat="45.66792" lon="4.75807">
        <ele>215.47</ele>
        <time>2021-06-17T14:15:38Z</time>
      </trkpt>
      <trkpt lat="45.66867" lon="4.75754">
        <ele>214.99</ele>
        <time>2021-06-17T14:15:53Z</time>
      </trkpt>
      <trkpt lat="45.66934" lon="4.75722">
        <ele>215.95</ele>
        <time>2021-06-17T14:16:06Z</time>
      </trkpt>
      <trkpt lat="45.67034" lon="4.75692">
        <ele>217.88</ele>
        <time>2021-06-17T14:16:27Z</time>
      </trkpt>
      <trkpt lat="45.67044" lon="4.7569">
        <ele>217.88</ele>
        <time>2021-06-17T14:16:29Z</time>
      </trkpt>
      <trkpt lat="45.67116" lon="4.75683">
        <ele>216.91</ele>
        <time>2021-06-17T14:16:43Z</time>
      </trkpt>
      <trkpt lat="45.6712" lon="4.7568">
        <ele>217.4</ele>
        <time>2021-06-17T14:16:44Z</time>
      </trkpt>
      <trkpt lat="45.67124" lon="4.75675">
        <ele>217.88</ele>
        <time>2021-06-17T14:16:45Z</time>
      </trkpt>
      <trkpt lat="45.67127" lon="4.75668">
        <ele>217.4</ele>
        <time>2021-06-17T14:16:46Z</time>
      </trkpt>
      <trkpt lat="45.67128" lon="4.7566">
        <ele>216.43</ele>
        <time>2021-06-17T14:16:47Z</time>
      </trkpt>
      <trkpt lat="45.67129" lon="4.7565">
        <ele>216.91</ele>
        <time>2021-06-17T14:16:48Z</time>
      </trkpt>
      <trkpt lat="45.67146" lon="4.75525">
        <ele>215.95</ele>
        <time>2021-06-17T14:17:03Z</time>
      </trkpt>
      <trkpt lat="45.67154" lon="4.75494">
        <ele>215.47</ele>
        <time>2021-06-17T14:17:07Z</time>
      </trkpt>
      <trkpt lat="45.67156" lon="4.75486">
        <ele>215.47</ele>
        <time>2021-06-17T14:17:08Z</time>
      </trkpt>
      <trkpt lat="45.67177" lon="4.75371">
        <ele>215.47</ele>
        <time>2021-06-17T14:17:23Z</time>
      </trkpt>
      <trkpt lat="45.67182" lon="4.75334">
        <ele>215.47</ele>
        <time>2021-06-17T14:17:33Z</time>
      </trkpt>
      <trkpt lat="45.67181" lon="4.75332">
        <ele>215.95</ele>
        <time>2021-06-17T14:17:34Z</time>
      </trkpt>
      <trkpt lat="45.67179" lon="4.75331">
        <ele>216.43</ele>
        <time>2021-06-17T14:17:35Z</time>
      </trkpt>
      <trkpt lat="45.67177" lon="4.75331">
        <ele>215.47</ele>
        <time>2021-06-17T14:17:36Z</time>
      </trkpt>
      <trkpt lat="45.67173" lon="4.75331">
        <ele>216.43</ele>
        <time>2021-06-17T14:17:37Z</time>
      </trkpt>
      <trkpt lat="45.6717" lon="4.7533">
        <ele>215.95</ele>
        <time>2021-06-17T14:17:38Z</time>
      </trkpt>
      <trkpt lat="45.6714" lon="4.75327">
        <ele>216.43</ele>
        <time>2021-06-17T14:17:47Z</time>
      </trkpt>
      <trkpt lat="45.67136" lon="4.75326">
        <ele>216.91</ele>
        <time>2021-06-17T14:17:48Z</time>
      </trkpt>
      <trkpt lat="45.67098" lon="4.75319">
        <ele>217.4</ele>
        <time>2021-06-17T14:17:57Z</time>
      </trkpt>
      <trkpt lat="45.67095" lon="4.75316">
        <ele>217.4</ele>
        <time>2021-06-17T14:17:58Z</time>
      </trkpt>
      <trkpt lat="45.67092" lon="4.75312">
        <ele>217.88</ele>
        <time>2021-06-17T14:17:59Z</time>
      </trkpt>
      <trkpt lat="45.6709" lon="4.75306">
        <ele>217.4</ele>
        <time>2021-06-17T14:18:00Z</time>
      </trkpt>
      <trkpt lat="45.67089" lon="4.75299">
        <ele>217.88</ele>
        <time>2021-06-17T14:18:01Z</time>
      </trkpt>
      <trkpt lat="45.67089" lon="4.75292">
        <ele>217.88</ele>
        <time>2021-06-17T14:18:02Z</time>
      </trkpt>
      <trkpt lat="45.67088" lon="4.75285">
        <ele>217.88</ele>
        <time>2021-06-17T14:18:03Z</time>
      </trkpt>
      <trkpt lat="45.67074" lon="4.75211">
        <ele>217.88</ele>
        <time>2021-06-17T14:18:14Z</time>
      </trkpt>
      <trkpt lat="45.67037" lon="4.75103">
        <ele>218.84</ele>
        <time>2021-06-17T14:18:32Z</time>
      </trkpt>
      <trkpt lat="45.67015" lon="4.75017">
        <ele>220.28</ele>
        <time>2021-06-17T14:18:47Z</time>
      </trkpt>
      <trkpt lat="45.67014" lon="4.75012">
        <ele>220.76</ele>
        <time>2021-06-17T14:18:48Z</time>
      </trkpt>
      <trkpt lat="45.67012" lon="4.75007">
        <ele>220.76</ele>
        <time>2021-06-17T14:18:49Z</time>
      </trkpt>
      <trkpt lat="45.67001" lon="4.74982">
        <ele>220.76</ele>
        <time>2021-06-17T14:18:54Z</time>
      </trkpt>
      <trkpt lat="45.66976" lon="4.74872">
        <ele>222.68</ele>
        <time>2021-06-17T14:19:14Z</time>
      </trkpt>
      <trkpt lat="45.66979" lon="4.74798">
        <ele>225.09</ele>
        <time>2021-06-17T14:19:30Z</time>
      </trkpt>
      <trkpt lat="45.67" lon="4.74726">
        <ele>226.53</ele>
        <time>2021-06-17T14:19:48Z</time>
      </trkpt>
      <trkpt lat="45.67018" lon="4.74665">
        <ele>228.45</ele>
        <time>2021-06-17T14:20:06Z</time>
      </trkpt>
      <trkpt lat="45.67015" lon="4.74598">
        <ele>230.85</ele>
        <time>2021-06-17T14:20:23Z</time>
      </trkpt>
      <trkpt lat="45.67032" lon="4.74535">
        <ele>234.22</ele>
        <time>2021-06-17T14:20:40Z</time>
      </trkpt>
      <trkpt lat="45.67067" lon="4.74501">
        <ele>236.62</ele>
        <time>2021-06-17T14:20:55Z</time>
      </trkpt>
      <trkpt lat="45.67119" lon="4.74455">
        <ele>238.54</ele>
        <time>2021-06-17T14:21:14Z</time>
      </trkpt>
      <trkpt lat="45.67159" lon="4.74406">
        <ele>239.99</ele>
        <time>2021-06-17T14:21:30Z</time>
      </trkpt>
      <trkpt lat="45.67198" lon="4.74352">
        <ele>242.39</ele>
        <time>2021-06-17T14:21:47Z</time>
      </trkpt>
      <trkpt lat="45.67232" lon="4.74281">
        <ele>243.35</ele>
        <time>2021-06-17T14:22:04Z</time>
      </trkpt>
      <trkpt lat="45.67269" lon="4.74197">
        <ele>243.35</ele>
        <time>2021-06-17T14:22:22Z</time>
      </trkpt>
      <trkpt lat="45.67282" lon="4.74112">
        <ele>243.83</ele>
        <time>2021-06-17T14:22:38Z</time>
      </trkpt>
      <trkpt lat="45.67278" lon="4.7403">
        <ele>246.23</ele>
        <time>2021-06-17T14:22:55Z</time>
      </trkpt>
      <trkpt lat="45.67263" lon="4.73969">
        <ele>247.2</ele>
        <time>2021-06-17T14:23:08Z</time>
      </trkpt>
      <trkpt lat="45.67264" lon="4.73896">
        <ele>248.64</ele>
        <time>2021-06-17T14:23:23Z</time>
      </trkpt>
      <trkpt lat="45.67285" lon="4.73822">
        <ele>249.6</ele>
        <time>2021-06-17T14:23:38Z</time>
      </trkpt>
      <trkpt lat="45.67294" lon="4.73784">
        <ele>250.56</ele>
        <time>2021-06-17T14:23:45Z</time>
      </trkpt>
      <trkpt lat="45.67293" lon="4.73681">
        <ele>251.52</ele>
        <time>2021-06-17T14:24:03Z</time>
      </trkpt>
      <trkpt lat="45.67294" lon="4.73599">
        <ele>252.96</ele>
        <time>2021-06-17T14:24:19Z</time>
      </trkpt>
      <trkpt lat="45.67305" lon="4.73509">
        <ele>255.37</ele>
        <time>2021-06-17T14:24:36Z</time>
      </trkpt>
      <trkpt lat="45.67295" lon="4.73442">
        <ele>256.81</ele>
        <time>2021-06-17T14:24:50Z</time>
      </trkpt>
      <trkpt lat="45.67285" lon="4.73366">
        <ele>258.25</ele>
        <time>2021-06-17T14:25:06Z</time>
      </trkpt>
      <trkpt lat="45.67301" lon="4.7329">
        <ele>260.65</ele>
        <time>2021-06-17T14:25:22Z</time>
      </trkpt>
      <trkpt lat="45.67311" lon="4.73227">
        <ele>263.06</ele>
        <time>2021-06-17T14:25:37Z</time>
      </trkpt>
      <trkpt lat="45.67311" lon="4.73165">
        <ele>264.98</ele>
        <time>2021-06-17T14:25:52Z</time>
      </trkpt>
      <trkpt lat="45.67297" lon="4.73127">
        <ele>265.46</ele>
        <time>2021-06-17T14:26:02Z</time>
      </trkpt>
      <trkpt lat="45.67254" lon="4.73128">
        <ele>265.94</ele>
        <time>2021-06-17T14:26:13Z</time>
      </trkpt>
      <trkpt lat="45.67214" lon="4.73107">
        <ele>267.38</ele>
        <time>2021-06-17T14:26:26Z</time>
      </trkpt>
    </trkseg>
  </trk>
</gpx>